[[{"header":{"parameterUnit":"m.s-1","parameterCategory":1,"la1":30.6,"la2":29.2853,"lo1":-89.7004,"lo2":-87.6739,"dy":0.0162,"dx":0.0183,"nx":112,"ny":82,"refTime":"2023-03-19T18:00:00:Z","depth":0,"parameterNumber":2,"parameterNumberName":"U-component_of_WINDS"},"data":[0.0,0.0,0.0,0.0,0.0,0.0,0.0,0.0,0.0,0.0,0.0,0.0,0.0,0.0,0.0,0.0,0.0,0.0,0.0,0.0,0.0,0.0,0.0,0.0,0.0,0.0,0.0,0.0,0.0,0.0,0.0,0.0,0.0,0.0,0.0,0.0,0.0,0.0,0.0,0.0,0.0,0.0,0.0,0.0,0.0,0.0,0.0,0.0,0.0,0.0,0.0,0.0,0.0,0.0,0.0,0.0,0.0,0.0,0.0,0.0,0.0,0.0,0.0,0.0,0.0,0.0,0.0,0.0,0.0,0.0,0.0,0.0,0.0,0.0,0.0,0.0,0.0,0.0,0.0,0.0,0.0,0.0,0.0,0.0,0.0,0.0,0.0,0.0,0.0,0.0,-2.4711,-2.4829,-2.5406,-2.5778,-2.5778,-2.5595,-2.4973,-2.3727,0.0,0.0,0.0,0.0,0.0,0.0,0.0,0.0,0.0,0.0,0.0,0.0,0.0,0.0,0.0,0.0,0.0,0.0,0.0,0.0,0.0,0.0,0.0,0.0,0.0,0.0,0.0,0.0,0.0,0.0,0.0,0.0,0.0,0.0,0.0,0.0,0.0,0.0,0.0,0.0,0.0,0.0,0.0,0.0,0.0,0.0,0.0,0.0,0.0,0.0,0.0,0.0,0.0,0.0,0.0,0.0,0.0,0.0,0.0,0.0,0.0,0.0,0.0,0.0,0.0,0.0,0.0,0.0,0.0,0.0,0.0,0.0,0.0,0.0,0.0,0.0,0.0,0.0,0.0,0.0,0.0,0.0,0.0,0.0,0.0,0.0,0.0,0.0,0.0,0.0,0.0,0.0,0.0,0.0,0.0,0.0,0.0,0.0,0.0,0.0,0.0,0.0,0.0,0.0,-2.5676,-2.6302,-2.6471,-2.6522,-2.6522,-2.5915,-2.5411,-2.5192,0.0,0.0,0.0,0.0,0.0,0.0,0.0,0.0,0.0,0.0,0.0,0.0,0.0,0.0,0.0,0.0,0.0,0.0,0.0,0.0,0.0,0.0,0.0,0.0,0.0,0.0,0.0,0.0,0.0,0.0,0.0,0.0,0.0,0.0,0.0,0.0,0.0,0.0,0.0,0.0,0.0,0.0,0.0,0.0,0.0,0.0,0.0,0.0,0.0,0.0,0.0,0.0,0.0,0.0,0.0,0.0,0.0,0.0,0.0,0.0,0.0,0.0,0.0,0.0,0.0,0.0,0.0,0.0,0.0,0.0,0.0,0.0,0.0,0.0,0.0,0.0,0.0,0.0,0.0,0.0,0.0,0.0,0.0,0.0,0.0,0.0,0.0,0.0,0.0,0.0,0.0,0.0,0.0,0.0,0.0,0.0,0.0,0.0,0.0,0.0,0.0,0.0,0.0,-2.6168,-2.6303,-2.6556,-2.6623,-2.6623,-2.6589,-2.6202,-2.5765,-2.5363,-2.4245,0.0,0.0,0.0,0.0,0.0,0.0,0.0,0.0,0.0,0.0,0.0,0.0,0.0,0.0,0.0,0.0,0.0,0.0,0.0,0.0,0.0,0.0,0.0,0.0,0.0,0.0,0.0,0.0,0.0,0.0,0.0,0.0,0.0,0.0,0.0,0.0,0.0,0.0,0.0,0.0,0.0,0.0,0.0,0.0,0.0,0.0,0.0,0.0,0.0,0.0,0.0,0.0,0.0,0.0,0.0,0.0,0.0,0.0,0.0,0.0,0.0,0.0,0.0,0.0,0.0,0.0,0.0,0.0,0.0,0.0,0.0,0.0,0.0,0.0,0.0,0.0,0.0,0.0,0.0,0.0,0.0,0.0,0.0,0.0,0.0,0.0,0.0,0.0,0.0,0.0,0.0,0.0,0.0,0.0,0.0,0.0,0.0,0.0,0.0,0.0,0.0,0.0,-2.664,-2.6623,-2.6537,-2.6554,-2.6554,-2.6502,-2.6382,-2.6063,-2.5496,-2.4697,0.0,0.0,0.0,0.0,0.0,0.0,0.0,0.0,0.0,0.0,0.0,0.0,0.0,0.0,0.0,0.0,0.0,0.0,0.0,0.0,0.0,0.0,0.0,0.0,0.0,0.0,0.0,0.0,0.0,0.0,0.0,0.0,0.0,0.0,0.0,0.0,0.0,0.0,0.0,0.0,0.0,0.0,0.0,0.0,0.0,0.0,0.0,0.0,0.0,0.0,0.0,0.0,0.0,0.0,0.0,0.0,0.0,0.0,0.0,0.0,0.0,0.0,0.0,0.0,0.0,0.0,0.0,0.0,0.0,0.0,0.0,0.0,0.0,0.0,0.0,0.0,0.0,0.0,0.0,0.0,0.0,0.0,0.0,0.0,0.0,0.0,0.0,0.0,0.0,0.0,0.0,0.0,0.0,0.0,0.0,0.0,0.0,0.0,0.0,0.0,0.0,0.0,-2.6589,-2.6537,-2.6606,-2.6537,-2.6502,-2.6502,-2.6382,-2.6279,-2.6229,-2.5477,0.0,0.0,0.0,0.0,0.0,0.0,0.0,0.0,0.0,0.0,0.0,0.0,0.0,0.0,0.0,0.0,0.0,0.0,0.0,0.0,0.0,0.0,0.0,0.0,0.0,0.0,0.0,0.0,0.0,0.0,0.0,0.0,0.0,0.0,0.0,0.0,0.0,0.0,0.0,0.0,0.0,0.0,0.0,0.0,0.0,0.0,0.0,0.0,0.0,0.0,0.0,0.0,0.0,0.0,0.0,0.0,0.0,0.0,0.0,0.0,0.0,0.0,0.0,0.0,0.0,0.0,0.0,0.0,0.0,0.0,0.0,0.0,0.0,0.0,0.0,0.0,0.0,0.0,0.0,0.0,0.0,0.0,0.0,0.0,0.0,0.0,0.0,0.0,0.0,0.0,0.0,0.0,0.0,0.0,0.0,0.0,0.0,0.0,0.0,0.0,0.0,0.0,-2.7139,-2.7286,0.0,-2.7748,-2.7548,-2.7043,-2.694,-2.674,-2.6273,0.0,0.0,0.0,0.0,0.0,0.0,0.0,0.0,0.0,0.0,0.0,0.0,0.0,0.0,0.0,0.0,0.0,0.0,0.0,0.0,0.0,0.0,0.0,0.0,0.0,0.0,0.0,0.0,0.0,0.0,0.0,0.0,0.0,0.0,0.0,0.0,0.0,0.0,0.0,0.0,0.0,0.0,0.0,0.0,0.0,0.0,0.0,0.0,0.0,0.0,0.0,0.0,0.0,0.0,0.0,0.0,0.0,0.0,0.0,0.0,0.0,0.0,0.0,0.0,0.0,0.0,0.0,0.0,0.0,0.0,0.0,0.0,0.0,0.0,0.0,0.0,0.0,0.0,0.0,0.0,0.0,0.0,0.0,0.0,0.0,0.0,0.0,0.0,0.0,0.0,0.0,0.0,0.0,0.0,0.0,0.0,0.0,0.0,0.0,0.0,0.0,0.0,-2.7437,-2.7668,-2.7944,0.0,-2.845,-2.8251,-2.7699,-2.7431,-2.7083,-2.6584,0.0,0.0,0.0,0.0,0.0,0.0,0.0,0.0,0.0,0.0,0.0,0.0,0.0,0.0,0.0,0.0,0.0,0.0,0.0,0.0,0.0,0.0,0.0,0.0,0.0,0.0,0.0,0.0,0.0,0.0,0.0,0.0,0.0,0.0,0.0,0.0,0.0,0.0,0.0,0.0,0.0,0.0,0.0,0.0,0.0,0.0,0.0,0.0,0.0,0.0,0.0,0.0,0.0,0.0,0.0,0.0,0.0,0.0,0.0,0.0,0.0,0.0,0.0,0.0,0.0,0.0,0.0,0.0,0.0,0.0,0.0,0.0,0.0,0.0,0.0,0.0,0.0,0.0,0.0,0.0,0.0,0.0,0.0,0.0,0.0,0.0,0.0,0.0,0.0,0.0,0.0,0.0,0.0,0.0,0.0,0.0,0.0,0.0,0.0,0.0,0.0,0.0,-2.752,-2.804,-2.8448,-2.8524,-2.8448,-2.8426,-2.8409,-2.7729,-2.7315,0.0,0.0,0.0,0.0,0.0,0.0,0.0,0.0,0.0,0.0,0.0,0.0,0.0,0.0,0.0,0.0,0.0,0.0,0.0,0.0,0.0,0.0,0.0,0.0,0.0,0.0,0.0,0.0,0.0,0.0,0.0,0.0,0.0,0.0,0.0,0.0,0.0,0.0,0.0,0.0,0.0,0.0,0.0,0.0,0.0,0.0,0.0,0.0,0.0,0.0,0.0,0.0,0.0,0.0,0.0,0.0,0.0,0.0,0.0,0.0,0.0,0.0,0.0,0.0,0.0,0.0,0.0,0.0,0.0,0.0,0.0,0.0,0.0,0.0,0.0,0.0,0.0,0.0,0.0,0.0,0.0,0.0,0.0,0.0,0.0,0.0,0.0,0.0,0.0,0.0,0.0,0.0,0.0,0.0,0.0,0.0,0.0,0.0,0.0,0.0,0.0,0.0,0.0,-2.8846,-2.9045,-2.9301,-2.9851,-2.988,-2.9682,-2.9152,-2.892,-2.8357,-2.7348,0.0,0.0,0.0,0.0,0.0,0.0,0.0,0.0,0.0,0.0,0.0,0.0,0.0,0.0,0.0,0.0,0.0,0.0,0.0,0.0,0.0,0.0,0.0,0.0,0.0,0.0,0.0,0.0,0.0,0.0,0.0,0.0,0.0,0.0,0.0,0.0,0.0,0.0,0.0,0.0,0.0,0.0,0.0,0.0,0.0,0.0,0.0,0.0,0.0,0.0,0.0,0.0,0.0,0.0,0.0,0.0,0.0,0.0,0.0,0.0,0.0,0.0,0.0,0.0,0.0,0.0,0.0,0.0,0.0,0.0,0.0,0.0,0.0,0.0,0.0,0.0,0.0,0.0,0.0,0.0,0.0,0.0,0.0,0.0,0.0,0.0,0.0,0.0,0.0,0.0,0.0,0.0,0.0,0.0,0.0,0.0,0.0,0.0,0.0,0.0,0.0,0.0,-2.9413,-2.9702,-3.0009,-3.0456,-3.0506,-3.0323,-2.9877,-2.9562,-2.9052,-2.8194,0.0,0.0,0.0,0.0,0.0,0.0,0.0,0.0,0.0,0.0,0.0,0.0,0.0,0.0,0.0,0.0,0.0,0.0,0.0,0.0,0.0,0.0,0.0,0.0,0.0,0.0,0.0,0.0,0.0,0.0,0.0,0.0,0.0,0.0,0.0,0.0,0.0,0.0,0.0,0.0,0.0,0.0,0.0,0.0,0.0,0.0,0.0,0.0,0.0,0.0,0.0,0.0,0.0,0.0,0.0,0.0,0.0,0.0,0.0,0.0,0.0,0.0,0.0,0.0,0.0,0.0,0.0,0.0,0.0,0.0,0.0,0.0,0.0,0.0,0.0,0.0,0.0,0.0,0.0,0.0,0.0,0.0,0.0,0.0,0.0,0.0,0.0,0.0,0.0,0.0,0.0,0.0,0.0,0.0,0.0,0.0,0.0,0.0,0.0,0.0,0.0,0.0,-2.9479,-3.0092,-3.0506,-3.0506,-3.0506,-3.0506,-3.0506,-2.9877,-2.9463,-2.9397,0.0,0.0,0.0,0.0,0.0,0.0,0.0,0.0,0.0,0.0,0.0,0.0,0.0,0.0,0.0,0.0,0.0,0.0,0.0,0.0,0.0,0.0,0.0,0.0,0.0,0.0,0.0,0.0,0.0,0.0,0.0,0.0,0.0,0.0,0.0,0.0,0.0,0.0,0.0,0.0,0.0,0.0,0.0,0.0,0.0,0.0,0.0,0.0,0.0,0.0,0.0,0.0,0.0,0.0,0.0,0.0,0.0,0.0,0.0,0.0,-2.945,0.0,0.0,0.0,0.0,0.0,0.0,0.0,0.0,0.0,0.0,0.0,0.0,0.0,0.0,0.0,0.0,0.0,0.0,0.0,0.0,0.0,0.0,0.0,0.0,0.0,0.0,0.0,0.0,0.0,0.0,0.0,0.0,0.0,0.0,0.0,0.0,0.0,0.0,0.0,0.0,0.0,-3.0212,-3.0406,-3.0506,-3.0506,-3.0506,-3.0506,-3.0506,-3.0357,-3.0009,-2.943,-2.9284,0.0,0.0,0.0,0.0,0.0,0.0,0.0,0.0,0.0,0.0,0.0,0.0,0.0,0.0,0.0,0.0,0.0,0.0,0.0,0.0,0.0,0.0,0.0,0.0,0.0,0.0,0.0,0.0,0.0,0.0,0.0,0.0,0.0,0.0,0.0,0.0,0.0,0.0,0.0,0.0,0.0,0.0,0.0,0.0,0.0,0.0,0.0,0.0,0.0,0.0,0.0,0.0,0.0,0.0,0.0,0.0,0.0,0.0,0.0,0.0,-2.9926,0.0,0.0,0.0,0.0,0.0,0.0,0.0,0.0,0.0,0.0,0.0,0.0,0.0,0.0,0.0,0.0,0.0,0.0,0.0,0.0,0.0,0.0,0.0,0.0,0.0,0.0,0.0,0.0,0.0,0.0,0.0,0.0,0.0,0.0,0.0,0.0,0.0,0.0,0.0,0.0,-3.0986,-3.1333,-3.1553,-3.1553,-3.1553,-3.1553,-3.1553,-3.1217,-3.087,-3.0472,-3.0125,0.0,0.0,0.0,0.0,0.0,0.0,0.0,0.0,0.0,0.0,0.0,0.0,0.0,0.0,0.0,0.0,0.0,0.0,0.0,0.0,0.0,0.0,0.0,0.0,0.0,0.0,0.0,0.0,0.0,0.0,0.0,0.0,0.0,0.0,0.0,0.0,0.0,0.0,0.0,0.0,0.0,0.0,0.0,0.0,0.0,0.0,0.0,0.0,0.0,0.0,0.0,0.0,0.0,-3.2702,-3.2702,-3.2702,-3.2702,-3.2702,-3.2636,-3.1421,-3.087,-3.087,-3.087,0.0,0.0,0.0,0.0,0.0,0.0,0.0,0.0,0.0,0.0,0.0,0.0,0.0,0.0,0.0,0.0,0.0,0.0,0.0,0.0,0.0,0.0,0.0,0.0,-2.9155,-2.9155,-2.9155,0.0,0.0,0.0,0.0,0.0,0.0,0.0,0.0,0.0,0.0,0.0,-3.178,-3.2315,-3.2702,-3.2702,-3.2702,-3.2702,-3.2702,-3.215,-3.178,-3.178,-3.1101,-3.0423,0.0,0.0,0.0,0.0,0.0,0.0,0.0,0.0,0.0,0.0,0.0,0.0,0.0,0.0,0.0,0.0,0.0,0.0,0.0,0.0,0.0,0.0,0.0,0.0,0.0,0.0,0.0,0.0,0.0,0.0,0.0,0.0,-3.2702,-3.2702,0.0,0.0,0.0,0.0,0.0,0.0,0.0,0.0,0.0,0.0,0.0,0.0,0.0,-3.2702,-3.2702,-3.2702,-3.2702,-3.2702,-3.2702,-3.2702,-3.2702,-3.2702,-3.2702,-3.2702,-3.2481,0.0,-3.2398,-3.2398,0.0,0.0,0.0,0.0,0.0,0.0,0.0,0.0,0.0,0.0,0.0,0.0,0.0,0.0,0.0,0.0,0.0,0.0,0.0,0.0,0.0,0.0,-3.2138,-3.2138,-3.2138,-3.2138,0.0,-3.0626,-2.9466,-3.0092,-3.0208,0.0,0.0,0.0,0.0,0.0,0.0,0.0,-3.2547,-3.2652,-3.2702,-3.2702,-3.2702,-3.2702,-3.2702,-3.2619,-3.2547,-3.2547,-3.1846,-3.1416,-3.1317,-3.0075,0.0,0.0,0.0,0.0,0.0,0.0,0.0,0.0,0.0,0.0,0.0,0.0,0.0,0.0,0.0,0.0,0.0,0.0,0.0,0.0,0.0,0.0,0.0,0.0,0.0,0.0,0.0,0.0,0.0,-3.3938,-3.3938,-3.3938,-3.3938,-3.3938,0.0,0.0,0.0,0.0,0.0,0.0,0.0,0.0,0.0,-3.4551,-3.4965,-3.5164,-3.5164,-3.5164,-3.5164,-3.5164,-3.5164,-3.5164,-3.5164,-3.5164,-3.5164,-3.5164,-3.5164,-3.5164,-3.5032,-3.3375,-3.2702,-3.2702,0.0,0.0,0.0,0.0,-3.2017,-3.1735,-3.1735,-3.1735,-3.1735,-3.1735,0.0,0.0,0.0,0.0,0.0,0.0,0.0,0.0,0.0,0.0,-3.2702,-3.2702,-3.2702,-3.2702,-3.2702,-3.1934,-3.1338,0.0,-3.1735,-3.1835,-3.2166,0.0,0.0,0.0,0.0,-3.3332,-3.3332,-3.3696,-3.3938,-3.3938,-3.3938,-3.3938,-3.3938,-3.3557,-3.3332,-3.3332,-3.263,-3.2216,-3.2216,-3.1201,-3.0638,0.0,0.0,0.0,0.0,0.0,0.0,0.0,0.0,0.0,0.0,0.0,0.0,0.0,0.0,0.0,0.0,0.0,0.0,0.0,0.0,0.0,0.0,0.0,0.0,0.0,0.0,0.0,0.0,-3.4899,-3.4899,-3.4899,-3.4899,-3.4965,0.0,0.0,0.0,0.0,0.0,0.0,-3.5462,-3.5976,-3.629,-3.629,-3.682,-3.7102,-3.7102,-3.7102,-3.7102,-3.7102,-3.7102,-3.7102,-3.7102,-3.7102,-3.7102,-3.7102,-3.7102,-3.7102,-3.6936,-3.4717,-3.3822,-3.3822,-3.3822,-3.3707,-3.3524,-3.3524,-3.3292,-3.2984,-3.2984,-3.2868,-3.2702,-3.2702,-3.2702,-3.2702,-3.2702,0.0,0.0,0.0,0.0,-3.2984,-3.2984,-3.3133,-3.3243,-3.3243,-3.3243,-3.3243,-3.3243,-3.3243,-3.3143,0.0,-3.2702,-3.2768,-3.2967,0.0,0.0,0.0,0.0,-3.4071,-3.4071,-3.4551,-3.4899,-3.4899,-3.4899,-3.4899,-3.4899,-3.4386,-3.4071,-3.4071,-3.3375,-3.2984,-3.2984,-3.2282,-3.1797,-3.1598,0.0,0.0,0.0,0.0,0.0,0.0,0.0,0.0,0.0,0.0,0.0,0.0,0.0,0.0,0.0,0.0,0.0,0.0,0.0,0.0,0.0,0.0,0.0,0.0,0.0,0.0,0.0,0.0,0.0,-3.4899,-3.4899,0.0,0.0,0.0,0.0,-3.6953,-3.7003,-3.7003,-3.7003,-3.7036,-3.7052,-3.7052,-3.7085,-3.7102,-3.7102,-3.7102,-3.7102,-3.7102,-3.7102,-3.7102,-3.7102,-3.7102,-3.7102,-3.7102,-3.7102,-3.7102,-3.7102,-3.6953,-3.6887,-3.6887,-3.6887,-3.6456,-3.5827,-3.5827,-3.4949,-3.3723,-3.3723,-3.3299,-3.2702,-3.2702,-3.2702,-3.2702,-3.2702,-3.2702,0.0,0.0,-3.3216,-3.3723,-3.3723,-3.4253,-3.4783,-3.4783,-3.4783,-3.4783,-3.4783,-3.4783,-3.4369,0.0,-3.2702,-3.2934,-3.3607,0.0,-3.3972,-3.4667,-3.4816,-3.4833,-3.4833,-3.4883,-3.4899,-3.4899,-3.4899,-3.4899,-3.4899,-3.4866,-3.4833,-3.4833,-3.4137,-3.3723,-3.3723,-3.305,-3.2315,-3.1615,-3.1532,0.0,0.0,0.0,0.0,0.0,0.0,0.0,0.0,0.0,0.0,0.0,0.0,0.0,0.0,0.0,0.0,0.0,0.0,0.0,0.0,0.0,0.0,0.0,0.0,0.0,0.0,0.0,0.0,-3.5611,-3.6025,0.0,-3.6688,-3.6721,-3.682,-3.7085,-3.7102,-3.7102,-3.7102,-3.7566,-3.7814,-3.7814,-3.8261,-3.8536,-3.8536,-3.8536,-3.8536,-3.8536,-3.8536,-3.8536,-3.8536,-3.8536,-3.8536,-3.8536,-3.8536,-3.8536,-3.8536,-3.8536,-3.7963,-3.7102,-3.7102,-3.6953,-3.6721,-3.6721,-3.639,-3.5926,-3.5926,-3.5744,-3.5528,-3.5528,-3.5528,-3.5528,-3.5528,-3.5528,-3.5528,-3.5528,-3.5727,-3.5926,-3.5926,-3.6125,-3.6324,-3.6324,-3.6324,-3.6324,-3.6324,-3.6324,-3.6158,-3.5628,-3.4767,-3.4336,-3.5081,-3.5214,-3.5462,-3.6208,-3.6324,-3.6324,-3.6324,-3.6324,-3.6141,-3.5661,-3.5611,-3.5413,-3.4932,-3.4899,-3.4899,-3.4899,-3.4651,-3.4502,-3.4502,-3.3789,-3.3276,-3.3027,-3.2547,-3.1951,0.0,0.0,0.0,0.0,0.0,0.0,0.0,0.0,0.0,0.0,0.0,0.0,0.0,0.0,0.0,0.0,0.0,0.0,0.0,0.0,0.0,0.0,0.0,0.0,0.0,0.0,-3.6373,-3.6373,-3.6804,-3.7201,-3.7466,-3.7483,-3.7582,-3.7814,-3.7831,-3.7831,-3.7831,-3.8311,-3.8576,-3.8576,-3.905,-3.9299,-3.9299,-3.9299,-3.9299,-3.9299,-3.9299,-3.9299,-3.9299,-3.9299,-3.9299,-3.9299,-3.9299,-3.9299,-3.9299,-3.9299,-3.8735,-3.7831,-3.7831,-3.7831,-3.7831,-3.7831,-3.7682,-3.745,-3.7201,-3.7102,-3.7102,-3.7102,-3.7102,-3.7102,-3.7102,-3.7102,-3.7102,-3.7102,-3.7102,-3.7102,-3.7102,-3.7102,-3.7102,-3.7102,-3.7102,-3.7102,-3.7102,-3.7102,-3.7102,-3.7102,-3.6307,-3.5794,-3.629,-3.6373,-3.6539,-3.7036,-3.7102,-3.7102,-3.7102,-3.7102,-3.692,-3.6423,-3.6373,-3.6174,-3.5678,-3.5413,-3.5263,-3.5263,-3.5032,-3.4899,-3.4899,-3.4419,-3.4038,-3.3789,-3.3083,-3.2332,-3.1598,0.0,0.0,0.0,0.0,0.0,0.0,0.0,0.0,0.0,0.0,0.0,0.0,0.0,0.0,0.0,0.0,0.0,0.0,0.0,0.0,0.0,0.0,0.0,-3.7119,-3.7119,-3.7135,-3.7135,-3.7152,-3.7466,-3.8179,-3.8219,-3.8526,-3.9249,-3.9299,-3.9299,-3.9299,-3.9299,-3.9299,-3.9299,-3.9299,-3.9299,-3.9299,-3.9299,-3.9299,-3.9299,-3.9299,-3.9299,-3.9299,-3.9299,-3.9299,-3.9299,-3.9299,-3.9299,-3.9299,-3.9299,-3.9299,-3.9299,-3.9299,-3.9299,-3.9299,-3.9299,-3.8841,-3.8146,-3.7433,-3.7168,-3.7168,-3.7168,-3.7168,-3.7168,-3.7168,-3.7168,-3.7168,-3.7168,-3.7168,-3.7168,-3.7168,-3.7168,-3.7168,-3.7168,-3.7168,-3.7168,-3.7168,-3.7168,-3.7168,-3.7168,-3.7168,-3.7168,-3.7152,-3.7135,-3.7152,-3.7168,-3.7168,0.0,-3.7168,-3.7168,-3.7168,-3.7152,-3.7135,-3.7135,-3.7102,-3.6456,-3.6025,-3.6025,-3.5346,-3.4932,-3.4932,-3.4916,-3.4551,-3.3839,-3.3116,-3.2381,-3.1664,0.0,0.0,0.0,0.0,0.0,0.0,0.0,0.0,0.0,0.0,0.0,0.0,0.0,0.0,0.0,0.0,0.0,0.0,0.0,0.0,0.0,0.0,-3.8311,-3.7251,-3.7566,-3.7914,-3.7914,-3.8361,-3.8785,-3.8984,-3.9017,-3.9083,-3.9282,-3.9299,-3.9299,-3.9299,-3.9299,-3.9299,-3.9299,-3.9299,-3.9299,-3.9299,-3.9299,-3.9299,-3.9299,-3.9299,-3.9299,-3.9299,-3.9299,-3.9299,-3.9299,-3.9299,-3.9299,-3.9299,-3.9299,-3.9299,-3.9299,-3.9299,-3.9299,-3.9299,-3.9299,-3.9183,-3.8984,-3.8785,-3.8702,-3.8702,-3.8702,-3.8702,-3.8702,-3.8702,-3.8702,-3.8702,-3.8702,-3.8702,-3.8702,-3.8702,-3.8702,-3.8702,-3.8702,-3.8702,-3.8702,-3.8702,-3.8702,-3.8702,-3.8702,-3.8702,-3.851,-3.7996,-3.7914,-3.8079,-3.8593,-3.8702,0.0,-3.8702,-3.8702,-3.8477,-3.7963,-3.7914,-3.7698,-3.7152,-3.692,-3.6804,-3.6804,-3.6108,-3.5694,-3.5694,-3.5181,-3.48,-3.4601,-3.3856,-3.3392,0.0,0.0,0.0,0.0,0.0,0.0,0.0,0.0,0.0,0.0,0.0,0.0,0.0,0.0,0.0,0.0,0.0,0.0,0.0,0.0,0.0,0.0,-3.9299,-3.9,-3.8129,-3.8394,-3.8659,-3.8659,-3.9315,-3.9763,-3.9763,-4.0028,-4.0166,-4.0166,-4.0166,-4.0166,-4.0166,-4.0166,-4.0166,-4.0166,-4.0166,-4.0166,-4.0166,-4.0166,-4.0166,-4.0166,-4.0166,-4.0166,-4.0166,-3.9895,-3.9763,-3.9746,-3.9431,-3.9299,-3.9299,-3.9299,-3.9299,0.0,0.0,0.0,0.0,0.0,-3.9299,-3.9299,-3.9299,-3.9299,-3.9299,-3.9299,-3.9299,-3.9299,-3.9299,-3.9299,-3.9299,-3.9299,-3.9299,-3.9299,-3.9299,-3.9299,-3.9299,-3.9299,-3.9299,-3.9299,-3.9299,-3.9299,-3.9299,-3.9299,-3.9299,0.0,-3.8725,-3.8659,-3.8808,-3.9232,-3.9299,-3.9299,-3.9299,-3.9299,-3.9149,-3.8709,-3.8659,-3.8477,-3.8046,-3.7748,0.0,0.0,0.0,-3.6324,-3.6009,-3.5595,0.0,0.0,0.0,-3.4104,-3.3789,0.0,0.0,0.0,-3.1222,-3.1189,0.0,0.0,0.0,0.0,0.0,0.0,0.0,0.0,0.0,0.0,0.0,0.0,0.0,0.0,0.0,0.0,-3.9299,-3.9332,-3.9415,-3.9431,-3.9431,-3.9431,-4.0011,-4.0442,-4.0525,-4.1061,-4.1409,-4.1409,-4.1409,-4.1409,-4.1409,0.0,0.0,0.0,0.0,-4.1409,-4.1409,-4.1409,-4.1409,-4.1409,-4.1409,-4.1409,-4.1364,-4.0779,-4.0525,-4.0492,-3.9829,-3.9547,-3.9547,-3.9547,-3.9497,-3.9415,-3.9332,-3.9299,-3.9299,-3.9299,-3.9299,-3.9299,-3.9299,0.0,0.0,-3.9299,-3.9299,-3.9299,-3.9299,-3.9299,-3.9299,-3.9299,-3.9299,-3.9299,-3.9299,-3.9299,-3.9299,-3.9299,-3.9299,-3.9299,-3.9299,-3.9299,-3.9299,-3.9299,-3.9299,-3.9299,-3.9299,-3.9299,-3.9299,-3.9299,-3.9299,-3.9299,-3.9299,-3.9299,-3.9299,-3.9299,0.0,0.0,-3.9299,-3.8692,-3.8328,-3.8328,-3.7632,-3.6903,-3.6158,-3.6042,-3.5694,-3.5032,-3.4932,-3.4584,-3.3905,-3.3905,-3.3597,-3.2928,-3.2785,-3.2702,0.0,0.0,0.0,0.0,0.0,0.0,0.0,0.0,0.0,0.0,0.0,0.0,0.0,0.0,0.0,-3.9299,-3.9299,-3.9514,-4.0111,-4.0194,-4.0194,-4.0194,-4.031,-4.0597,-4.116,-4.1326,-4.1409,-4.1409,-4.1409,-4.1409,-4.1409,-4.1409,-4.1409,-4.1409,-4.1409,-4.1409,-4.1409,-4.1409,-4.1409,-4.1409,0.0,0.0,-4.1409,-4.1276,-4.121,-4.121,-4.1061,-4.0994,-4.0994,-4.0994,-4.068,-4.0144,-3.9531,-3.9299,-3.9299,-3.9299,-3.9299,-3.9299,-3.9299,-3.9299,-3.9299,-3.9299,-3.9299,-3.9299,-3.9299,-3.9299,0.0,-3.9299,-3.9299,-3.9299,-3.9299,-3.9299,-3.9299,-3.9299,-3.9299,-3.9299,-3.9299,-3.9299,-3.9299,-3.9299,-3.9299,-3.9299,-3.9299,-3.9299,-3.9299,-3.9299,-3.9299,-3.9299,-3.9299,-3.9299,-3.9299,-3.9299,-3.9299,-3.9299,-3.9299,-3.9183,-3.91,-3.91,-3.8394,-3.7665,-3.692,-3.6324,-3.5926,-3.5794,-3.5197,-3.4833,-3.4684,-3.4684,-3.4601,-3.4435,-3.3265,-3.2702,0.0,0.0,0.0,0.0,0.0,0.0,0.0,0.0,0.0,0.0,0.0,-3.9299,0.0,0.0,-3.9299,-3.9299,-3.9613,-3.9978,-4.0359,-4.068,-4.0895,-4.0895,-4.1226,-4.1591,-4.191,-4.2274,-4.2489,-4.2489,-4.2489,-4.2489,-4.2489,-4.2489,-4.2489,-4.2489,-4.2489,-4.2489,-4.2489,-4.2489,-4.2489,-4.2489,-4.2489,-4.2489,-4.2473,-4.2109,-4.1943,-4.1926,-4.1574,-4.1409,-4.1409,-4.1409,-4.121,-4.0862,-4.0481,-3.9928,-3.9299,-3.9299,-3.9299,-3.9299,-3.9299,-3.9299,-3.9299,-3.9299,-3.9299,-3.9299,-3.9299,-3.9299,-3.9299,-3.9299,-3.9299,-3.9299,-3.9299,-3.9299,-3.9299,-3.9299,-3.9299,-3.9299,-3.9299,-3.9299,-3.9299,-3.9299,-3.9299,-3.9299,-3.9299,-3.9299,-3.9299,-3.9299,-3.9299,-3.9299,-3.9299,-3.9299,-3.9299,-3.9299,-3.9299,-3.9299,-3.9299,-3.9299,-3.9299,-3.9299,-3.8941,-3.8411,-3.7698,-3.7317,-3.6936,-3.6555,-3.5827,-3.5446,-3.5446,-3.5081,-3.4899,-3.4883,-3.4137,-3.3789,0.0,0.0,0.0,0.0,0.0,0.0,0.0,0.0,-3.9299,-3.9299,-3.9299,-3.9299,-3.9299,-3.9415,-3.9514,-3.9514,-4.0127,-4.063,-4.0779,-4.1276,-4.1662,-4.1794,-4.2224,-4.2555,-4.2688,-4.3251,-4.3598,-4.3598,-4.3598,-4.3598,-4.3598,-4.3598,-4.3598,-4.3598,-4.3598,-4.3598,-4.3598,-4.3598,-4.3598,-4.3598,-4.3598,-4.3598,-4.3582,-4.2969,-4.2704,-4.2671,-4.2075,-4.1839,-4.1839,-4.1662,-4.1595,-4.1595,-4.1446,-4.0713,-3.9696,-3.9564,-3.9514,-3.9497,-3.9348,-3.9299,-3.9299,-3.9299,-3.9299,-3.9299,-3.9299,-3.9299,-3.9299,-3.9299,-3.9299,-3.9299,-3.9299,-3.9299,-3.9299,-3.9299,-3.9299,-3.9299,-3.9299,-3.9299,-3.9299,-3.9299,-3.9299,-3.9299,-3.9299,-3.9299,-3.9299,-3.9299,-3.9299,-3.9299,-3.9299,-3.9299,-3.9299,-3.9299,-3.9299,-3.9299,-3.9299,-3.9299,-3.9299,-3.9299,-3.9299,-3.9033,-3.8444,-3.8295,-3.793,-3.7334,-3.6605,-3.6224,-3.6224,-3.5628,-3.5247,-3.5114,-3.5114,-3.5032,-3.9299,-3.9299,-3.9299,-3.9299,-3.9299,-3.9299,0.0,0.0,-3.9299,-3.9299,-3.9299,-3.9299,-3.9299,-3.9846,-4.0293,-4.0293,-4.0845,-4.1524,-4.2187,-4.2324,-4.2605,-4.3267,-4.2837,-4.2754,-4.34,-4.3549,-4.3598,-4.3598,-4.3598,-4.3598,-4.3598,-4.3598,-4.3598,-4.3598,-4.3598,-4.3598,-4.3598,-4.3598,-4.3598,-4.3598,-4.3598,-4.3598,-4.3598,-4.3515,-4.3466,-4.3466,-4.3383,-4.335,-4.33,-4.2638,-4.2373,-4.2307,-4.1674,-4.1281,-4.1094,-4.0481,-4.0293,-4.0194,-3.9531,-3.9299,-3.9299,-3.9299,-3.9299,-3.9299,-3.9299,-3.9299,-3.9299,-3.9299,-3.9299,-3.9299,-3.9299,-3.9299,-3.9299,-3.9299,-3.9299,-3.9299,-3.9299,-3.9299,-3.9299,-3.9299,-3.9299,-3.9299,-3.9299,-3.9299,-3.9299,-3.9299,-3.9299,-3.9299,-3.9299,-3.9299,-3.9299,-3.9299,-3.9299,-3.9299,-3.9299,-3.9299,-3.9299,-3.9299,-3.9299,-3.9265,-3.9183,-3.8543,-3.8153,-3.8096,-3.7367,-3.6986,-3.6986,-3.6903,-3.6522,-3.5876,-3.5876,-3.5528,-3.9299,-3.9299,0.0,0.0,-3.9299,-3.9299,-3.9299,-3.9299,-3.9299,-3.9299,-3.9299,-3.9431,-3.9862,-4.0194,-4.0542,0.0,-4.1591,-4.2142,-4.2456,-4.287,-4.3251,-4.3565,-4.3317,-4.3251,-4.3565,-4.3598,-4.3598,-4.3598,-4.3598,-4.3598,-4.3598,-4.3598,-4.3598,-4.3598,-4.3598,-4.3598,-4.3598,-4.3598,-4.3598,-4.3598,-4.3598,-4.3598,-4.3598,-4.3598,-4.3598,-4.3598,-4.3598,-4.3598,-4.3565,-4.3267,-4.3135,-4.3102,-4.2787,-4.2671,-4.2522,-4.1409,-4.0978,-4.0945,-4.063,-4.0266,-3.9945,-3.9945,-3.9647,-3.9299,-3.9299,-3.9299,-3.9299,-3.9299,-3.9299,-3.9299,-3.9299,-3.9299,-3.9299,-3.9299,-3.9299,-3.9299,-3.9299,-3.9299,-3.9299,-3.9299,-3.9299,-3.9299,-3.9299,-3.9299,-3.9299,-3.9299,-3.9299,-3.9299,-3.9299,-3.9299,-3.9299,-3.9299,-3.9299,-3.9299,-3.9299,-3.9299,-3.9299,-3.9299,-3.9299,-3.9299,-3.9299,-3.9017,-3.8825,-3.8825,-3.8129,-3.7748,-3.7748,-3.7317,-3.6953,-3.6655,-3.6655,-3.6473,-3.9299,0.0,0.0,-3.9299,-3.9299,-3.9299,-3.9299,-3.9299,-3.9299,-3.9299,-3.9299,-3.9531,-4.026,-4.0531,-4.0895,-4.1579,-4.2307,-4.2787,-4.2787,-4.3251,-4.3598,-4.3598,-4.3598,-4.3598,-4.3598,-4.3598,-4.3598,-4.3598,-4.3598,-4.3598,-4.3598,-4.3598,-4.3598,-4.3598,-4.3598,-4.3598,-4.3598,-4.3598,-4.3598,-4.3598,-4.3598,-4.3598,-4.3598,-4.3598,-4.3598,-4.3598,-4.3598,-4.3598,-4.3598,-4.3598,-4.3598,-4.3598,-4.3598,-4.3598,-4.3466,-4.239,-4.1889,-4.1662,-4.1475,-4.1077,-4.0663,-4.0663,-4.0299,-3.9868,-3.9868,-3.9763,-3.9597,-3.9597,-3.9464,-3.9299,-3.9299,-3.9299,-3.9299,-3.9299,-3.9299,-3.9299,-3.9299,-3.9299,-3.9299,-3.9299,-3.9299,-3.9299,-3.9299,-3.9299,-3.9299,-3.9299,-3.9299,-3.9299,-3.9299,-3.9299,-3.9299,-3.9299,-3.9299,-3.9299,-3.9299,-3.9299,-3.9299,-3.9299,-3.9299,-3.9299,-3.9299,-3.9299,-3.9299,-3.9299,-3.8775,-3.851,-3.8493,-3.7963,-3.7599,-3.7417,-3.7417,-3.7301,0.0,0.0,-3.9299,-3.9299,-3.9299,-3.9299,-3.9299,-3.9299,-3.9299,-3.9299,-3.9299,-3.9531,-4.026,-4.0928,-4.1624,-4.234,-4.3085,-4.3565,-4.3565,-4.3582,-4.3598,-4.3598,-4.3598,-4.3598,0.0,-4.3598,-4.3598,-4.3598,-4.3598,-4.3598,-4.3598,-4.3598,-4.3598,-4.3598,-4.3598,-4.3598,-4.3598,-4.3598,-4.3598,-4.3598,-4.3598,-4.3598,-4.3598,-4.3598,-4.3598,-4.3598,-4.3598,-4.3598,-4.3598,-4.3598,-4.3598,-4.3598,-4.3598,-4.3598,-4.3582,-4.3549,-4.3069,-4.2357,-4.1645,-4.1409,-4.1375,-4.1375,-4.1331,-4.1359,-4.1359,-4.0878,-4.0376,-4.0376,-3.9862,-3.9299,-3.9299,-3.9299,-3.9299,-3.9299,-3.9299,-3.9299,-3.9299,-3.9299,-3.9299,-3.9299,-3.9299,-3.9299,-3.9299,-3.9299,-3.9299,-3.9299,-3.9299,-3.9299,-3.9299,-3.9299,-3.9299,-3.9299,-3.9299,-3.9299,-3.9299,-3.9299,-3.9299,-3.9299,-3.9299,-3.9299,-3.9299,-3.9299,-3.9299,-3.9299,-3.9282,-3.9265,-3.9265,-3.9249,-3.8858,-3.8179,-3.8179,-3.7798,0.0,0.0,-3.9299,-3.9299,-3.9299,-3.9299,-3.9299,-3.9299,-3.9299,-3.9299,-3.9299,-3.9663,-4.0845,-4.1259,-4.1794,-4.3019,-4.3433,-4.3598,-4.3598,-4.3598,-4.3598,-4.3598,-4.3598,0.0,0.0,0.0,0.0,-4.3598,-4.3598,-4.3598,-4.3598,-4.3598,-4.3598,-4.3598,-4.3598,-4.3598,-4.3598,-4.3598,-4.3598,-4.3598,-4.3598,-4.3598,-4.3598,-4.3598,-4.3598,-4.3598,-4.3598,-4.3598,-4.3598,-4.3598,-4.3598,-4.3598,-4.3598,-4.3598,-4.3598,-4.3598,-4.3433,-4.3184,-4.2936,-4.2539,-4.2109,-4.2109,-4.1806,-4.1409,-4.1409,-4.1243,-4.1061,-4.1061,-4.0878,-4.0696,-4.0696,-4.0696,-4.0696,-4.0696,-4.0332,-4.0028,-4.0028,-3.9647,-3.9299,-3.9299,-3.9299,-3.9299,-3.9299,-3.9299,-3.9299,-3.9299,-3.9299,-3.9299,-3.9299,-3.9299,-3.9299,-3.9299,-3.9299,-3.9299,-3.9299,-3.9299,-3.9299,-3.9299,-3.9299,-3.9299,-3.9299,-3.9299,-3.9299,-3.9299,-3.9299,-3.9299,-3.9299,-3.9299,-3.9183,-3.8924,-3.8924,-3.8818,0.0,-3.9299,-3.9365,-3.963,-3.9497,-3.9365,-3.963,-3.9497,-3.9299,-3.9299,-3.9299,-3.9746,-4.1143,-4.1409,-4.1877,-4.335,-4.3598,-4.3598,-4.3598,-4.3598,-4.3598,-4.3598,-4.3598,-4.3598,0.0,0.0,0.0,-4.3598,-4.3598,-4.3598,-4.3598,-4.3598,-4.3598,-4.3598,-4.3598,-4.3598,-4.3598,-4.3598,-4.3598,-4.3598,-4.3598,-4.3598,-4.3598,-4.3598,-4.3598,-4.3598,-4.3598,-4.3598,-4.3598,-4.3598,-4.3598,-4.3598,-4.3598,-4.3598,-4.3598,-4.3598,-4.3598,-4.3598,-4.3598,-4.3284,-4.2886,-4.2886,-4.2555,-4.2175,-4.2175,-4.1993,-4.1778,-4.1778,-4.1595,-4.1409,-4.1409,-4.1409,-4.1409,-4.1409,-4.1077,-4.0746,-4.0746,-4.0365,-3.9995,-3.9746,-3.9696,-3.9613,-3.9348,-3.9299,-3.9299,-3.9299,-3.9299,-3.9299,-3.9299,-3.9299,-3.9299,-3.9299,-3.9299,-3.9299,-3.9299,-3.9299,-3.9299,-3.9299,-3.9299,-3.9299,-3.9299,-3.9299,-3.9299,-3.9299,-3.9299,-3.9299,-3.9299,-3.9299,-3.9299,-3.9299,-3.9299,-3.9299,-3.9348,-3.9365,-3.9531,-4.0276,-3.9928,-3.958,-4.026,-3.9862,-3.9348,-3.9315,-3.9299,-3.973,0.0,0.0,-4.186,-4.33,-4.3565,-4.3598,-4.3598,-4.3598,-4.3598,0.0,0.0,0.0,0.0,0.0,0.0,-4.3698,0.0,-4.3598,-4.3598,-4.3598,-4.3598,-4.3598,-4.3598,-4.3598,-4.3598,-4.3598,-4.3598,-4.3598,-4.3598,-4.3598,-4.3598,-4.3598,-4.3598,-4.3598,-4.3598,-4.3598,-4.3598,-4.3598,-4.3598,-4.3598,-4.3598,-4.3598,-4.3598,-4.3598,-4.3598,-4.3598,-4.3598,-4.3598,-4.3598,-4.3598,-4.3598,-4.3598,-4.3598,-4.3102,-4.2555,-4.2555,-4.2042,-4.1496,-4.1496,-4.1496,-4.1496,-4.1496,-4.1491,-4.1446,-4.1446,-4.1413,-4.1226,-4.0591,-4.0426,-4.0194,-3.9481,-3.9332,-3.9299,-3.9299,-3.9299,-3.9299,-3.9299,-3.9299,-3.9299,-3.9299,-3.9299,-3.9299,-3.9299,-3.9299,-3.9299,-3.9299,-3.9299,-3.9299,-3.9299,-3.9272,-3.9245,-3.9245,-3.9245,-3.9245,-3.9245,-3.9272,-3.9299,-3.9299,-3.9272,-3.9245,-3.9978,-4.0127,-4.0293,-4.0961,-4.1011,-4.0779,-4.0475,-4.026,-3.9962,-3.9415,-3.9299,-3.958,0.0,0.0,0.0,-4.2622,-4.3234,0.0,-4.3598,-4.3598,0.0,-4.3598,0.0,-4.3813,-4.4373,-4.4423,0.0,0.0,-4.4211,-4.3598,-4.3598,-4.3598,-4.3598,-4.3598,-4.3598,-4.3598,-4.3598,-4.3598,-4.3598,-4.3598,-4.3598,-4.3598,-4.3598,-4.3598,-4.3598,-4.3598,-4.3598,-4.3598,-4.3598,-4.3598,-4.3598,-4.3598,-4.3598,-4.3598,-4.3598,-4.3598,-4.3598,-4.3598,-4.3598,-4.3598,-4.3598,-4.3598,-4.3598,-4.3598,-4.3598,-4.3466,-4.3317,-4.3317,-4.3184,-4.3035,-4.3035,-4.3035,-4.3035,-4.3035,-4.2605,-4.2208,-4.2208,-4.1778,-4.1359,-4.1177,-4.0729,-4.0343,-4.016,-3.9663,-3.9299,-3.9299,-3.9299,-3.9299,-3.9299,-3.9299,-3.9299,-3.9299,-3.9299,-3.9299,-3.9299,-3.9299,-3.9299,-3.9299,-3.9299,-3.9299,-3.9299,-3.8799,-3.8562,-3.8562,-3.8562,-3.8562,-3.8562,-3.905,-3.9299,-3.9299,-3.8788,-3.8562,-4.0293,-4.0597,-4.1011,-4.1723,-4.1657,-4.1309,-4.0928,-4.0597,-4.0194,-3.9448,-3.9299,0.0,0.0,0.0,0.0,0.0,0.0,0.0,-4.3598,-4.3598,-4.3598,0.0,-4.388,0.0,-4.4655,-4.4986,-4.5334,0.0,-4.5036,-4.4572,-4.4572,-4.4572,-4.4423,-4.4092,-4.4092,-4.3943,-4.3598,-4.3598,-4.3598,-4.3598,-4.3598,-4.3598,-4.3598,-4.3598,-4.3598,-4.3598,0.0,-4.3598,-4.3598,-4.3598,-4.3598,-4.3598,-4.3598,-4.3598,-4.3598,-4.3598,-4.3598,-4.3598,-4.3598,-4.3598,-4.3598,-4.3598,-4.3598,-4.3598,-4.3598,-4.3598,-4.3598,-4.3598,-4.3598,-4.3598,-4.3598,-4.3598,-4.3598,-4.3598,-4.3267,-4.2969,-4.2969,-4.2655,-4.2258,-4.1943,-4.1326,-4.0829,-4.0829,-4.026,-3.9779,-3.9779,-3.9514,-3.9299,-3.9299,-3.9299,-3.9299,-3.9299,-3.9299,-3.9299,-3.9299,-3.9299,-3.9299,-3.9299,-3.9299,-3.9299,-3.9299,-3.8925,-3.859,-3.8322,-3.8306,-3.8306,-3.8306,-3.8689,-3.9023,-3.9272,-3.8618,-3.8306,-4.0525,-4.1028,-4.1711,-4.2456,-4.2075,-4.1513,-4.1425,-4.0878,-4.0194,-3.9448,0.0,-3.9497,-4.0144,0.0,-4.1624,-4.2241,0.0,-4.3598,-4.3598,-4.3598,-4.3631,-4.3714,-4.4307,-4.4771,-4.4953,-4.5566,-4.598,-4.6079,-4.6079,-4.5997,-4.5798,-4.5798,-4.545,-4.4735,-4.4688,-4.4357,-4.3598,-4.3598,-4.3598,-4.3598,-4.3598,-4.3598,-4.3598,-4.3598,-4.3598,-4.3598,-4.3598,-4.3598,-4.3598,-4.3598,-4.3598,-4.3598,-4.3598,-4.3598,-4.3598,-4.3598,-4.3598,-4.3598,-4.3598,-4.3598,-4.3598,-4.3598,-4.3598,-4.3598,-4.3598,-4.3598,-4.3598,-4.3598,-4.3598,-4.3598,-4.3598,-4.3598,-4.3598,-4.3598,-4.3598,-4.3598,-4.3598,-4.3598,-4.34,-4.2754,-4.2042,-4.1558,-4.1558,-4.0978,-4.0509,-4.0426,-3.9862,-3.9415,-3.9315,-3.9299,-3.9299,-3.9299,-3.9299,-3.9299,-3.9299,-3.9299,-3.9299,-3.9299,-3.9299,-3.9299,-3.9299,-3.9202,-3.8871,-3.8193,-3.8165,-3.8137,-3.8051,-3.8137,-3.8479,-3.9023,-3.8451,-3.8137,-4.1077,-4.1773,-4.2473,-4.3218,-4.2837,-4.2142,-4.1529,-4.0878,0.0,0.0,0.0,-3.9332,-3.9481,-4.0531,0.0,-4.1562,0.0,0.0,0.0,0.0,-4.3843,0.0,0.0,0.0,0.0,0.0,0.0,0.0,0.0,-4.709,-4.5864,-4.5798,-4.545,-4.4735,-4.4688,-4.4357,-4.3598,-4.3598,-4.3598,-4.3598,-4.3598,-4.3598,-4.3598,-4.3598,-4.3598,-4.3598,-4.3598,0.0,-4.3598,-4.3598,-4.3598,-4.3598,-4.3598,-4.3598,-4.3598,-4.3598,-4.3598,-4.3598,-4.3598,-4.3598,-4.3598,-4.3598,-4.3598,-4.3598,-4.3598,-4.3598,-4.3598,-4.3598,-4.3598,-4.3598,-4.3598,-4.3598,-4.3598,-4.3598,-4.3598,-4.3598,-4.3598,-4.3598,-4.3565,-4.3416,-4.2804,-4.2307,-4.2307,-4.1723,-4.1044,-4.0492,-4.0293,-3.9995,-3.9381,-3.9299,-3.9299,-3.9299,-3.9299,-3.9299,-3.9299,-3.9299,-3.9299,-3.9299,-3.9299,-3.9299,-3.9299,-3.8772,-3.8165,-3.7576,-3.7576,-3.728,-3.6723,-3.728,-3.7634,-3.7722,-3.7605,-3.7251,-4.1326,-4.2208,-4.3151,-4.3499,-4.3035,-4.2307,-4.1562,0.0,0.0,0.0,0.0,-3.9299,-3.9299,0.0,0.0,0.0,0.0,0.0,0.0,0.0,0.0,0.0,0.0,0.0,0.0,0.0,0.0,0.0,0.0,-4.7686,-4.6974,-4.6576,-4.6195,-4.5847,-4.5086,-4.4522,-4.4175,-4.378,-4.3598,-4.3598,-4.3598,-4.3598,-4.3598,-4.3598,-4.3598,-4.3598,-4.3598,-4.3598,-4.3598,-4.3598,-4.3598,-4.3598,-4.3598,-4.3598,-4.3598,-4.3598,-4.3598,-4.3598,-4.3598,-4.3598,-4.3598,-4.3598,-4.3598,-4.3598,-4.3598,-4.3598,-4.3598,-4.3598,-4.3598,-4.3598,-4.3598,-4.3598,-4.3598,-4.3598,-4.3598,-4.3598,-4.3598,-4.3598,-4.3598,-4.3598,-4.33,-4.3069,-4.3069,-4.2456,-4.1844,-4.1541,-4.0862,-4.0276,-3.9928,-3.9227,-3.8898,-3.9272,-3.9299,-3.9299,-3.9299,-3.8996,-3.8772,-3.8772,-3.8479,-3.8311,-3.8311,-3.801,-3.7531,-3.689,-3.6875,-3.6723,-3.6399,-3.6723,-3.7041,-3.7399,-3.7041,-3.6723,-4.1375,-4.2357,-4.335,-4.335,-4.2804,-4.2059,-4.1359,-4.0647,0.0,0.0,-3.9299,-3.9299,-3.9299,0.0,0.0,0.0,0.0,0.0,0.0,0.0,0.0,0.0,0.0,0.0,0.0,0.0,0.0,0.0,0.0,0.0,-4.8001,-4.7454,-4.7057,-4.6891,-4.5765,-4.5003,-4.4688,-4.4141,-4.3747,-4.3598,-4.3598,-4.3598,-4.3598,-4.3598,-4.3598,-4.3598,-4.3598,-4.3598,-4.3598,-4.3598,-4.3598,-4.3598,-4.3598,-4.3598,-4.3598,-4.3598,-4.3598,-4.3598,-4.3598,-4.3598,-4.3598,-4.3598,-4.3598,-4.3598,-4.3598,-4.3598,-4.3598,-4.3598,-4.3598,-4.3598,-4.3598,-4.3598,-4.3598,-4.3598,-4.3598,-4.3598,-4.3598,-4.3598,-4.3598,-4.3598,-4.3598,-4.3598,-4.3598,-4.3118,-4.2671,-4.2506,-4.1558,-4.0729,-4.0442,-3.9306,-3.8669,-3.904,-3.8969,-3.8887,-3.8887,-3.8423,-3.8108,-3.8108,-3.7648,-3.7399,-3.7399,-3.7399,-3.7071,-3.6399,-3.6399,-3.6337,-3.6196,-3.6196,-3.6492,-3.6981,-3.6569,-3.6337,-4.1243,-4.2005,-4.2589,-4.2589,-4.2042,-4.1326,-4.0658,0.0,0.0,0.0,-3.9299,-3.9299,-3.9299,-3.9912,-4.0641,0.0,0.0,0.0,0.0,0.0,0.0,0.0,0.0,0.0,0.0,0.0,0.0,0.0,0.0,0.0,-4.8001,-4.7934,-4.7587,-4.6924,-4.6775,-4.6046,-4.4705,-4.4622,-4.4257,-4.3598,-4.3598,-4.3598,-4.3598,-4.3598,-4.3598,-4.3598,-4.3598,-4.3598,0.0,-4.3598,-4.3598,-4.3598,-4.3598,-4.3598,-4.3598,-4.3598,-4.3598,-4.3598,-4.3598,-4.3598,-4.3598,-4.3598,-4.3598,-4.3598,-4.3598,-4.3598,-4.3598,-4.3598,-4.3598,-4.3598,-4.3598,-4.3598,-4.3598,-4.3598,-4.3598,-4.3598,-4.3598,-4.3598,-4.3598,-4.3598,-4.3598,-4.3598,-4.3598,-4.3532,-4.3267,-4.2589,-4.2373,-4.1856,-4.0575,-3.9748,-3.908,-3.8444,-3.7895,-3.7576,-3.7576,-3.7517,-3.7472,-3.7472,-3.7429,-3.7399,-3.7399,-3.7399,-3.7071,-3.6399,-3.6399,-3.6148,-3.5587,-3.5587,-3.5619,-3.5683,-3.6164,-3.6116,-4.0713,-4.1309,-4.1827,-4.1827,-4.1309,-4.0713,-4.0475,0.0,0.0,-3.9299,-3.9299,-3.9299,-3.9299,-3.9547,-4.0111,0.0,0.0,0.0,0.0,0.0,0.0,0.0,0.0,0.0,0.0,0.0,0.0,0.0,0.0,0.0,-4.8001,-4.8001,-4.7868,-4.757,-4.7123,-4.6394,-4.5367,-4.4903,-4.4324,-4.3598,-4.3598,-4.3598,-4.3598,-4.3598,-4.3598,-4.3598,-4.3598,0.0,0.0,-4.3598,-4.3598,-4.3598,-4.3598,-4.3598,-4.3598,-4.3598,-4.3598,-4.3598,-4.3598,-4.3598,-4.3598,-4.3598,-4.3598,-4.3598,-4.3598,-4.3598,-4.3598,-4.3598,-4.3598,-4.3598,-4.3598,-4.3598,-4.3598,-4.3598,-4.3598,-4.3598,-4.3598,-4.3598,-4.3598,-4.3598,-4.3598,-4.3598,-4.3598,-4.3598,-4.3499,-4.3201,-4.2771,-4.2158,-4.1187,-4.0091,-3.8974,-3.7883,-3.7547,-3.7399,-3.7399,-3.7041,-3.6814,-3.6814,-3.6476,-3.6274,-3.6274,-3.6274,-3.6148,-3.5846,-3.5846,-3.5733,-3.5504,-3.5504,-3.5504,-3.5504,-3.5733,-3.5733,-4.0343,-4.0729,-4.111,-4.111,-4.0746,-4.0343,0.0,0.0,-3.9299,-3.9299,-3.9299,-3.9299,-3.9299,-3.9299,-3.9779,0.0,0.0,0.0,0.0,0.0,0.0,0.0,0.0,0.0,0.0,0.0,0.0,0.0,0.0,0.0,-4.8001,-4.8001,-4.8001,-4.8001,-4.7504,-4.6775,-4.5798,-4.5268,-4.4556,-4.3598,-4.3598,-4.3598,-4.3598,-4.3598,-4.3598,-4.3598,-4.3598,0.0,0.0,-4.3598,-4.3598,-4.3598,-4.3598,-4.3598,-4.3598,-4.3598,-4.3598,-4.3598,-4.3598,-4.3598,-4.3598,-4.3598,-4.3598,-4.3598,-4.3598,-4.3598,-4.3598,-4.3598,-4.3598,-4.3598,-4.3598,-4.3598,-4.3598,-4.3598,-4.3598,-4.3598,-4.3598,-4.3598,-4.3598,-4.3598,-4.3598,-4.3598,-4.3598,-4.3598,-4.3598,-4.3598,-4.3151,-4.2515,-4.1624,-4.0448,-3.9188,-3.7832,-3.7343,-3.7063,-3.686,-3.6399,-3.6133,-3.6133,-3.5733,-3.5504,-3.5504,-3.5504,-3.5504,-3.5504,-3.5504,-3.5504,-3.5504,-3.5504,-3.5504,-3.5504,-3.5504,-3.5504,-4.021,-4.0409,-4.0426,-4.0426,-4.0409,-4.021,0.0,0.0,-3.9299,-3.9299,-3.9299,-3.9299,-3.9299,-3.9299,-3.9779,-4.1177,0.0,0.0,0.0,0.0,0.0,0.0,0.0,0.0,0.0,0.0,0.0,0.0,0.0,0.0,-4.8001,-4.8001,-4.8001,-4.8001,-4.8001,-4.7272,-4.5798,-4.5781,-4.5052,-4.3598,-4.3598,-4.3598,-4.3598,-4.3598,-4.3598,-4.3598,0.0,0.0,0.0,-4.3598,-4.3598,-4.3598,-4.3598,-4.3598,-4.3598,-4.3598,-4.3598,-4.3598,-4.3598,-4.3598,-4.3598,-4.3598,-4.3598,-4.3598,-4.3598,-4.3598,-4.3598,-4.3598,-4.3598,-4.3598,-4.3598,-4.3598,-4.3598,-4.3598,-4.3598,-4.3598,-4.3598,-4.3598,-4.3598,-4.3598,-4.3598,-4.3598,-4.3598,-4.3598,-4.3598,-4.3598,-4.3582,-4.3092,-4.1689,-4.0895,-3.9958,-3.8541,-3.7255,-3.6241,-3.5597,-3.5504,-3.5504,-3.5504,-3.5504,-3.5504,-3.5504,-3.5504,-3.5504,-3.5504,-3.5504,-3.5504,-3.5504,-3.5504,-3.5504,-3.5504,-3.5504,-3.5504,-3.958,-3.9647,-3.9647,-3.9647,-3.9647,-3.9597,-3.9348,0.0,-3.9299,-3.9299,-3.9299,-3.9299,-3.9299,-3.9299,-3.9779,-4.1177,0.0,0.0,0.0,0.0,0.0,0.0,0.0,0.0,0.0,0.0,0.0,0.0,0.0,0.0,-4.8001,-4.7853,-4.7853,-4.8001,-4.8001,-4.7537,-4.656,-4.6046,-4.5301,-4.4357,-4.383,-4.3598,-4.3598,-4.3598,-4.3598,0.0,0.0,0.0,0.0,-4.3598,-4.3598,-4.3598,-4.3598,-4.3598,-4.3598,-4.3598,-4.3598,-4.3598,-4.3598,-4.3598,-4.3598,-4.3598,-4.3598,-4.3598,-4.3598,-4.3598,-4.3598,-4.3598,-4.3598,-4.3598,-4.3598,-4.3598,-4.3598,-4.3598,-4.3598,-4.3598,-4.3598,-4.3598,-4.3598,-4.3598,-4.3598,-4.3598,-4.3598,-4.3598,-4.3598,-4.3598,-4.3598,-4.3075,-4.1678,-4.1308,-4.045,-3.8607,-3.8037,-3.7345,-3.6267,-3.5759,-3.5504,-3.5504,-3.5504,-3.5504,-3.5504,-3.5504,-3.5504,-3.5504,-3.5504,-3.5504,-3.5504,-3.5504,-3.5504,-3.5504,-3.5504,-3.5504,0.0,-3.9299,-3.9299,-3.9299,-3.9299,0.0,0.0,0.0,-3.9299,-3.9299,-3.9299,-3.9299,-3.9299,-3.9299,-3.9779,-4.1177,0.0,0.0,0.0,0.0,0.0,0.0,0.0,0.0,0.0,0.0,0.0,0.0,0.0,0.0,-4.7902,-4.7787,-4.7787,-4.8001,-4.8001,-4.7653,-4.6908,-4.6162,-4.5417,-4.4671,-4.3959,-4.3598,-4.3598,-4.3598,-4.3598,0.0,0.0,0.0,0.0,-4.3598,-4.3598,-4.3598,-4.3598,-4.3598,-4.3598,-4.3598,-4.3598,-4.3598,-4.3598,-4.3598,-4.3598,-4.3598,-4.3598,-4.3598,-4.3598,-4.3598,-4.3598,-4.3598,-4.3598,-4.3598,-4.3598,-4.3598,-4.3598,-4.3598,-4.3598,-4.3598,-4.3598,-4.3598,-4.3598,-4.3598,-4.3598,-4.3598,-4.3598,-4.3598,-4.3598,-4.3598,-4.3386,-4.2803,-4.1656,-4.1294,-4.0532,-3.8953,-3.8542,-3.8063,-3.727,-3.6596,-3.6133,-3.5893,-3.5878,-3.5759,-3.5519,-3.5504,-3.5504,-3.5504,-3.5504,-3.5504,-3.5504,-3.5504,-3.5504,-3.5504,-3.5504,-3.5504,0.0,0.0,0.0,0.0,0.0,0.0,0.0,0.0,0.0,-3.9299,-3.9299,-3.9299,-3.9299,-3.9348,-3.9829,-4.1193,0.0,0.0,0.0,0.0,0.0,0.0,0.0,0.0,0.0,0.0,0.0,0.0,0.0,0.0,-4.7671,-4.7671,-4.7754,-4.7968,-4.7968,-4.7669,-4.6974,-4.6245,-4.55,-4.4785,-4.4042,-4.3648,-4.3598,-4.3598,-4.3598,0.0,0.0,0.0,0.0,-4.3598,-4.3598,-4.3598,-4.3598,-4.3598,-4.3598,-4.3598,-4.3598,-4.3598,-4.3598,-4.3598,-4.3598,-4.3598,-4.3598,-4.3598,-4.3598,-4.3598,-4.3598,-4.3598,-4.3598,-4.3598,-4.3598,-4.3598,-4.3598,-4.3598,-4.3598,-4.3598,-4.3598,-4.3598,-4.3598,-4.3598,-4.3598,-4.3598,-4.3598,-4.3598,-4.3598,-4.3598,-4.3066,-4.238,-4.1591,-4.0974,-4.0285,-3.9481,-3.8841,-3.8467,-3.8467,-3.7808,-3.7165,-3.6596,-3.6552,-3.6267,-3.5609,-3.5579,-3.5549,-3.5504,-3.5504,-3.5504,-3.5504,-3.5504,-3.5504,-3.5504,-3.5504,-3.5504,-3.9299,0.0,-3.9299,-3.9299,0.0,0.0,0.0,0.0,0.0,0.0,0.0,0.0,0.0,0.0,0.0,0.0,0.0,0.0,0.0,0.0,0.0,0.0,0.0,0.0,0.0,0.0,0.0,0.0,0.0,-4.7352,-4.7537,-4.7386,-4.7454,-4.7737,-4.7787,-4.777,-4.7736,-4.7007,-4.6262,-4.5516,-4.4787,-4.4158,-4.3598,-4.3598,-4.3522,0.0,0.0,0.0,-4.3432,-4.3568,-4.3598,-4.3598,-4.3598,-4.3598,-4.3598,-4.3598,-4.3598,-4.3598,-4.3598,-4.3598,-4.3598,-4.3598,-4.3598,-4.3598,-4.3598,-4.3598,-4.3598,-4.3598,-4.3598,-4.3598,-4.3598,-4.3598,-4.3598,-4.3598,-4.3598,-4.3598,-4.3598,-4.3598,-4.3598,-4.3598,-4.3598,-4.3598,-4.3598,-4.3598,-4.3598,-4.3598,-4.3462,-4.2896,-4.1656,-4.136,-4.0805,-3.9517,-3.9275,-3.917,-3.917,-3.8093,-3.7345,-3.721,-3.7195,-3.6911,-3.6282,-3.6252,-3.6013,-3.5519,-3.5504,-3.5504,-3.5504,-3.5504,-3.5504,-3.5504,-3.5504,-3.5504,-3.9299,-3.9299,-3.9299,-3.9299,-3.9299,-3.9299,0.0,0.0,0.0,0.0,0.0,0.0,0.0,0.0,0.0,0.0,0.0,0.0,0.0,0.0,0.0,0.0,0.0,0.0,0.0,0.0,0.0,0.0,0.0,-4.7149,-4.7369,-4.7251,-4.7336,-4.7671,-4.7654,-4.7721,-4.8001,-4.7272,-4.6527,-4.5781,-4.5036,-4.4307,-4.3598,-4.3539,-4.3479,0.0,0.0,0.0,-4.3281,-4.3432,-4.3509,-4.3492,-4.3568,-4.3598,-4.3598,-4.3598,-4.3598,-4.3598,-4.3598,-4.3598,-4.3598,-4.3598,-4.3598,-4.3598,-4.3598,-4.3598,-4.3598,-4.3598,-4.3598,-4.3598,-4.3598,-4.3598,-4.3598,-4.3598,-4.3598,-4.3598,-4.3598,-4.3598,-4.3598,-4.3598,-4.3598,-4.3598,-4.3598,-4.3598,-4.3598,-4.3598,-4.3035,-4.238,-4.1591,-4.094,-4.0235,-3.9481,-3.9388,-3.9388,-3.9388,-3.8751,-3.8197,-3.7883,-3.7853,-3.7569,-3.6941,-3.6911,-3.6611,-3.5968,-3.5953,-3.5804,-3.5504,-3.5504,-3.5504,-3.5504,-3.5504,-3.5504,-3.9299,-3.9299,-3.9299,-3.9299,-3.9299,-3.9299,0.0,0.0,0.0,0.0,0.0,0.0,0.0,0.0,0.0,0.0,0.0,0.0,0.0,0.0,0.0,0.0,0.0,0.0,0.0,0.0,0.0,0.0,0.0,-4.6961,-4.7149,-4.7132,-4.7302,-4.7605,-4.7521,-4.7604,-4.7902,-4.7307,-4.6579,-4.5767,-4.5121,-4.4362,-4.3522,-4.3432,-4.3372,-4.3312,0.0,0.0,-4.3082,-4.3312,-4.3402,-4.3402,-4.3539,-4.3598,-4.3598,-4.3598,-4.3598,-4.3568,-4.3522,-4.3522,-4.3568,-4.3568,-4.3598,-4.3598,-4.3598,-4.3598,-4.3598,-4.3568,-4.3582,-4.3598,-4.3598,-4.3598,-4.3598,-4.3598,-4.3598,-4.3598,-4.3598,-4.3598,-4.3598,-4.3598,-4.3598,-4.3598,-4.3598,-4.3598,-4.3568,-4.3462,-4.2443,-4.1591,-4.136,-4.0305,-3.9517,-3.9409,-3.9388,-3.9388,-3.9388,-3.9388,-3.917,-3.8586,-3.8542,-3.8242,-3.7584,-3.7464,-3.7165,-3.6641,-3.6626,-3.6357,-3.5789,-3.5699,-3.5654,-3.5654,-3.5549,-3.5504,-3.9299,-3.9299,-3.9299,-3.9299,-3.9299,-3.9299,0.0,0.0,0.0,0.0,0.0,0.0,0.0,0.0,0.0,0.0,0.0,0.0,0.0,0.0,0.0,0.0,0.0,0.0,0.0,0.0,0.0,0.0,0.0,-4.6911,-4.6945,-4.6961,-4.7064,-4.7285,-4.7251,-4.7352,-4.7571,-4.7472,-4.6799,-4.5643,-4.5446,-4.4609,-4.3174,-4.3342,-4.3267,-4.2992,0.0,-4.3037,-4.2961,-4.3251,-4.3402,-4.3402,-4.3539,-4.3598,-4.3598,-4.3598,-4.3539,-4.3419,-4.3235,-4.3295,-4.3432,-4.3432,-4.3509,-4.3598,-4.3598,-4.3598,-4.3568,-4.3462,-4.3492,-4.3598,-4.3598,-4.3598,-4.3598,-4.3598,-4.3598,-4.3598,-4.3598,-4.3598,-4.3598,-4.3598,-4.3598,-4.3598,-4.3598,-4.3598,-4.3402,-4.2851,-4.2585,-4.1981,-4.0805,-4.0443,-4.0076,-3.9445,-3.9388,-3.9388,-3.9388,-3.9388,-3.9379,-3.9275,-3.926,-3.896,-3.8257,-3.7704,-3.736,-3.727,-3.727,-3.7225,-3.712,-3.6596,-3.6342,-3.6327,-3.5759,-3.5504,-3.9299,-3.9299,-3.9299,-3.9299,-3.9299,-3.9299,0.0,0.0,0.0,0.0,0.0,0.0,0.0,0.0,0.0,0.0,0.0,0.0,0.0,0.0,0.0,0.0,0.0,0.0,0.0,0.0,0.0,0.0,0.0,0.0,-4.6876,-4.6876,-4.6996,-4.7183,-4.7098,-4.7004,-4.6897,-4.6697,-4.6208,-4.5419,-4.5009,-4.4191,-4.3113,-4.3129,-4.3054,-4.2899,0.0,-4.2774,-4.2775,-4.3007,-4.3146,-4.3146,-4.3281,-4.3342,-4.3342,-4.3342,-4.3295,-4.3235,-4.3143,-4.3174,-4.3281,-4.3372,-4.3432,-4.3509,-4.3598,-4.3598,-4.3568,-4.3432,-4.3509,-4.3598,-4.3492,-4.3539,-4.3598,-4.3598,-4.3598,-4.3598,-4.3509,-4.3539,-4.3598,-4.3509,-4.3568,-4.3598,-4.3598,-4.3598,-4.3509,-4.3204,-4.2475,-4.1754,-4.1127,-4.0374,-3.9788,-3.946,-3.9388,-3.9388,-3.9388,-3.9388,-3.9388,-3.9388,-3.9388,-3.9239,-3.896,-3.8646,-3.8317,-3.7943,-3.7943,-3.7764,-3.7404,-3.712,-3.6985,-3.6985,-3.6671,-3.6537,-3.9299,-3.9299,-3.9299,-3.9299,0.0,0.0,0.0,0.0,0.0,0.0,0.0,0.0,0.0,0.0,0.0,0.0,0.0,0.0,0.0,0.0,0.0,0.0,0.0,0.0,0.0,0.0,0.0,0.0,0.0,0.0,-4.6582,-4.6617,-4.6692,-4.6854,-4.6702,-4.6429,-4.6045,-4.5536,-4.5211,-4.4982,-4.4409,-4.3724,-4.299,-4.2914,-4.2868,-4.2837,-4.2665,-4.2602,-4.2634,-4.2837,-4.2899,-4.2899,-4.3052,-4.3113,-4.3113,-4.3052,-4.3052,-4.3052,-4.299,-4.3021,-4.3082,-4.3221,-4.3358,-4.3402,-4.3539,-4.3568,-4.3539,-4.3372,-4.3402,-4.3462,-4.3402,-4.3479,-4.3568,-4.3598,-4.3598,-4.3568,-4.3449,-4.3479,-4.3539,-4.3402,-4.3479,-4.3568,-4.3598,-4.3598,-4.3568,-4.3402,-4.2443,-4.1656,-4.1294,-4.0305,-3.9589,-3.9409,-3.9388,-3.9388,-3.9388,-3.9388,-3.9388,-3.9388,-3.9388,-3.9388,-3.9388,-3.9388,-3.917,-3.8631,-3.8631,-3.8377,-3.7883,-3.7719,-3.7644,-3.7629,-3.7479,-3.7404,-3.9299,-3.9299,-3.9299,-3.9299,-3.9299,0.0,-3.9299,-3.9829,0.0,0.0,0.0,0.0,0.0,0.0,0.0,0.0,0.0,0.0,0.0,0.0,0.0,0.0,0.0,0.0,0.0,0.0,0.0,0.0,0.0,0.0,-4.5733,-4.5769,-4.5805,-4.5905,-4.5888,-4.5565,-4.4901,-4.4204,-4.3945,-4.4088,-4.4039,-4.3537,-4.2618,-4.2837,-4.2806,-4.2634,-4.2602,-4.2602,-4.2634,-4.2837,-4.2899,-4.2899,-4.3052,-4.3113,-4.3066,-4.2945,-4.2899,-4.2899,-4.2696,-4.2759,-4.293,-4.293,-4.3146,-4.3402,-4.3402,-4.3402,-4.3372,-4.3174,-4.3143,-4.3174,-4.3342,-4.3419,-4.3449,-4.3568,-4.3598,-4.3568,-4.3449,-4.3419,-4.3402,-4.3402,-4.3419,-4.3432,-4.3598,-4.3598,-4.3402,-4.2789,-4.2585,-4.2061,-4.0737,-4.0478,-4.0146,-3.9481,-3.9388,-3.9388,-3.9388,-3.9388,-3.9388,-3.9388,-3.9388,-3.9388,-3.9388,-3.9388,-3.9394,-3.9313,-3.9313,-3.9284,-3.9239,-3.8631,-3.8317,-3.8302,-3.7689,-3.7404,-3.9299,-3.9299,-3.9299,-3.9299,-3.9647,0.0,0.0,-4.021,-4.063,0.0,0.0,0.0,0.0,0.0,0.0,0.0,0.0,0.0,0.0,0.0,0.0,0.0,0.0,0.0,0.0,0.0,0.0,0.0,0.0,0.0,-4.4324,-4.4782,-4.4874,-4.4503,-4.4959,-4.4836,-4.4123,-4.3848,-4.3524,-4.3133,-4.3133,-4.2924,-4.2602,-4.2665,-4.2665,-4.2602,-4.2602,-4.2602,-4.2602,-4.2665,-4.2696,-4.2728,-4.279,-4.2774,-4.2774,-4.2728,-4.2696,-4.2696,-4.2634,-4.2665,-4.2728,-4.2868,-4.2992,-4.3099,-4.319,-4.3204,-4.3174,-4.3037,-4.2976,-4.3007,-4.3174,-4.3312,-4.3432,-4.3568,-4.3598,-4.3539,-4.3265,-4.3312,-4.3358,-4.3146,-4.3267,-4.3419,-4.3479,-4.3522,-4.3492,-4.3265,-4.2881,-4.2428,-4.1852,-4.1042,-4.0374,-4.0111,-3.9681,-3.9388,-3.9388,-3.9388,-3.9388,-3.9388,-3.9388,-3.9388,-3.9388,-3.9388,-3.9388,-3.9388,-3.9388,-3.9388,-3.9388,-3.9155,-3.9035,-3.902,-3.8766,-3.8626,-3.9299,-3.9299,-3.9299,0.0,0.0,0.0,-4.0663,-4.0895,0.0,0.0,0.0,0.0,0.0,0.0,0.0,0.0,0.0,0.0,0.0,0.0,0.0,0.0,0.0,0.0,0.0,0.0,0.0,0.0,0.0,0.0,0.0,-4.3303,-4.3497,-4.3361,-4.3836,-4.3847,-4.3347,-4.3331,-4.3088,-4.2602,-4.2602,-4.2602,-4.2602,-4.2602,-4.2602,-4.2602,-4.2602,-4.2602,-4.2602,-4.2602,-4.2602,-4.2602,-4.2602,-4.2602,-4.2602,-4.2602,-4.2602,-4.2602,-4.2602,-4.2602,-4.2634,-4.2775,-4.2837,-4.293,-4.3007,-4.3037,-4.3037,-4.293,-4.2868,-4.2821,-4.3007,-4.319,-4.3342,-4.3509,-4.3539,-4.3462,-4.3174,-4.3174,-4.316,-4.293,-4.3099,-4.3342,-4.3372,-4.3492,-4.3598,-4.3598,-4.3204,-4.282,-4.2554,-4.1525,-4.065,-4.0216,-3.9681,-3.9388,-3.9388,-3.9388,-3.9388,-3.9388,-3.9388,-3.9388,-3.9388,-3.9388,-3.9388,-3.9388,-3.9388,-3.9388,-3.9388,-3.9388,-3.9373,-3.9301,-3.9373,-3.9373,-3.9299,-3.9299,-3.9299,0.0,0.0,0.0,0.0,0.0,0.0,0.0,0.0,0.0,0.0,0.0,0.0,0.0,0.0,0.0,0.0,0.0,0.0,0.0,0.0,0.0,0.0,0.0,0.0,0.0,0.0,0.0,0.0,-4.14,-4.1757,-4.255,-4.2568,-4.2584,-4.2571,-4.2602,-4.2602,-4.2602,-4.2602,-4.2602,-4.2602,-4.2602,-4.2602,-4.2602,-4.2602,-4.2602,-4.2602,-4.2602,-4.2602,-4.2602,-4.2602,-4.2602,-4.2602,-4.2602,-4.2602,-4.2602,-4.2602,-4.2602,-4.2602,-4.2602,-4.2728,-4.2899,-4.2899,-4.2899,-4.2899,-4.2899,-4.2728,-4.2634,-4.2837,-4.3007,-4.3143,-4.3342,-4.3402,-4.3342,-4.3143,-4.3007,-4.2899,-4.2899,-4.3007,-4.3174,-4.3372,-4.3509,-4.3598,-4.3598,-4.3598,-4.3265,-4.2412,-4.1819,-4.0974,-3.9553,-3.9388,-3.9388,-3.9388,-3.9388,-3.9388,-3.9388,-3.9388,-3.9388,-3.9388,-3.9388,-3.9388,-3.9388,-3.9388,-3.9388,-3.9388,-3.9388,-3.9301,-3.9104,-3.9301,-3.9301,-3.8197,-3.8266,0.0,0.0,0.0,0.0,0.0,0.0,0.0,0.0,0.0,0.0,0.0,0.0,0.0,0.0,0.0,0.0,0.0,0.0,0.0,0.0,0.0,0.0,0.0,0.0,0.0,0.0,0.0,0.0,0.0,-4.0352,-4.0528,-4.0284,-4.0793,-4.1044,-4.1044,-4.1558,-4.1835,-4.1835,-4.2349,-4.2602,-4.2602,-4.2602,-4.2602,-4.2602,-4.2602,-4.2602,-4.2602,-4.2602,-4.2602,-4.2602,-4.2602,-4.2602,-4.2602,-4.2602,-4.2602,-4.2602,-4.2602,-4.2602,-4.2602,-4.2602,-4.2634,-4.2696,-4.2696,-4.2696,-4.2696,-4.2696,-4.2634,-4.2602,-4.2665,-4.2821,-4.3007,-4.3143,-4.3312,-4.3312,-4.3007,-4.3007,-4.2959,-4.2728,-4.2821,-4.3007,-4.3143,-4.3342,-4.3492,-4.3598,-4.3598,-4.3096,-4.1723,-4.1411,-4.0805,-3.9343,-3.9301,-3.9388,-3.9388,-3.9388,-3.9388,-3.9388,-3.9265,-3.9265,-3.9388,-3.9388,-3.9388,-3.9388,-3.9388,-3.9388,-3.9388,-3.9388,-3.9301,-3.9104,-3.9141,-3.9068,-3.7488,0.0,0.0,0.0,0.0,0.0,0.0,0.0,0.0,0.0,0.0,0.0,0.0,0.0,0.0,0.0,0.0,0.0,0.0,0.0,0.0,0.0,0.0,0.0,0.0,0.0,0.0,0.0,0.0,0.0,0.0,-3.9222,-3.9424,-3.9284,-3.9718,-4.0104,-4.0382,-4.0826,-4.1211,-4.1525,-4.1948,-4.2317,-4.2602,-4.2602,-4.2602,-4.2602,-4.2602,-4.2602,-4.2602,-4.2602,-4.2602,-4.2602,-4.2602,-4.2602,-4.2602,-4.2602,-4.2602,-4.2602,-4.2602,-4.2602,-4.2602,-4.2602,-4.2602,-4.2602,-4.2602,-4.2602,-4.2602,-4.2602,-4.2602,-4.2602,-4.2602,-4.2696,-4.2821,-4.2976,-4.3099,-4.3146,-4.293,-4.2914,-4.2836,-4.2634,-4.2759,-4.293,-4.3007,-4.3221,-4.3449,-4.3509,-4.3462,-4.2958,-4.1788,-4.1278,-4.0668,-3.9651,-3.9394,-3.9301,-3.9388,-3.9388,-3.9373,-3.9301,-3.9177,-3.9141,-3.9265,-3.9265,-3.9301,-3.9388,-3.9388,-3.9337,-3.9265,-3.9265,-3.9156,-3.8848,-3.8943,-3.9038,-3.6935,0.0,0.0,0.0,0.0,0.0,0.0,0.0,0.0,0.0,0.0,0.0,0.0,0.0,0.0,0.0,0.0,0.0,0.0,0.0,0.0,0.0,0.0,0.0,0.0,0.0,0.0,0.0,0.0,0.0,0.0,-3.8202,-3.8523,-3.9175,-3.9211,-3.952,-4.0209,-4.0278,-4.0656,-4.1393,-4.1459,-4.1868,-4.2602,-4.2602,-4.2602,-4.2602,-4.2602,-4.2602,-4.2602,-4.2602,-4.2602,-4.2602,-4.2602,-4.2602,-4.2602,-4.2602,-4.2602,-4.2602,-4.2602,-4.2602,-4.2602,-4.2602,-4.2602,-4.2602,-4.2602,-4.2602,-4.2602,-4.2602,-4.2602,-4.2602,-4.2602,-4.2602,-4.2634,-4.2837,-4.2899,-4.2899,-4.2868,-4.2728,-4.2634,-4.2602,-4.2728,-4.2868,-4.2899,-4.3146,-4.3342,-4.3419,-4.3235,-4.2912,-4.2332,-4.136,-4.0566,-4.02,-3.9523,-3.9177,-3.9388,-3.9388,-3.9301,-3.9141,-3.9104,-3.9104,-3.9213,-3.9141,-3.9177,-3.9388,-3.9388,-3.9265,-3.9104,-3.9068,-3.8885,-3.8516,-3.8686,-3.906,0.0,-3.5928,0.0,0.0,0.0,0.0,0.0,0.0,0.0,0.0,0.0,0.0,0.0,0.0,0.0,0.0,0.0,0.0,0.0,0.0,0.0,0.0,0.0,0.0,0.0,0.0,0.0,0.0,0.0,0.0,-3.8202,-3.8202,-3.8277,-3.8449,-3.8449,-3.8509,-3.8694,-3.9247,-3.9909,0.0,-4.1211,-4.1868,-4.2602,-4.2602,-4.2602,-4.2602,-4.2602,-4.2602,-4.2602,-4.2602,-4.2602,-4.2602,-4.2602,-4.2602,-4.2602,-4.2602,-4.2602,-4.2602,-4.2602,-4.2602,-4.2602,-4.2602,-4.2602,-4.2602,-4.2602,-4.2602,-4.2602,-4.2602,-4.2602,-4.2602,-4.2602,-4.2602,-4.2602,-4.2665,-4.2806,-4.2868,-4.2696,-4.2759,-4.2806,-4.2634,-4.2634,-4.2696,-4.2868,-4.2961,-4.3084,-4.3342,-4.3235,-4.2865,-4.2141,-4.1278,-4.0531,-4.001,-3.9436,-3.9177,-3.9388,-3.9388,-3.9388,-3.9337,-3.9031,-3.9184,-3.9935,-3.9415,-3.9177,-3.9388,-3.9228,-3.9141,-3.9104,-3.8943,-3.8723,-3.8478,-3.8553,-3.8855,0.0,0.0,0.0,0.0,0.0,0.0,0.0,0.0,0.0,0.0,0.0,0.0,0.0,0.0,0.0,0.0,0.0,0.0,0.0,0.0,0.0,0.0,0.0,0.0,0.0,0.0,0.0,0.0,0.0,-3.8202,-3.8202,-3.8202,-3.8202,-3.8202,-3.8202,-3.8202,-3.8202,-3.8583,-3.9305,-4.0416,-4.0792,-4.1558,-4.2602,-4.2602,-4.2602,-4.2602,-4.2602,-4.2602,-4.2602,-4.2602,-4.2602,-4.2602,-4.2602,-4.2602,-4.2602,-4.2602,-4.2602,-4.2602,-4.2602,-4.2602,-4.2602,-4.2602,-4.2602,-4.2602,-4.2602,-4.2602,-4.2602,-4.2602,-4.2602,-4.2602,-4.2602,-4.2602,-4.2602,-4.2602,-4.2665,-4.2728,-4.2634,-4.2665,-4.2728,-4.2634,-4.2602,-4.2747,-4.3182,-4.3634,-4.389,-4.3795,-4.3699,-4.3335,-4.2523,-4.1722,-4.1127,-4.0842,-4.0255,-3.9849,-3.9773,-3.9773,-3.9646,-3.9265,-3.898,-3.9038,-3.9493,-3.94,-3.9615,-4.0146,-4.006,-3.9955,-3.9884,-3.9763,-3.9621,-3.9391,-3.9391,-3.9748,0.0,0.0,0.0,0.0,0.0,0.0,0.0,0.0,0.0,0.0,0.0,0.0,0.0,0.0,0.0,0.0,0.0,0.0,0.0,0.0,0.0,0.0,0.0,0.0,0.0,0.0,0.0,0.0,0.0,-3.8202,-3.8202,-3.8202,-3.8202,-3.8202,-3.8202,-3.8202,-3.8202,-3.8202,-3.8863,-4.0209,-4.0347,-4.1178,-4.2602,-4.246,-4.2492,-4.2602,-4.2602,-4.2602,-4.2602,-4.2602,-4.2602,-4.2602,-4.2602,-4.2602,-4.2602,-4.2602,-4.2602,-4.2602,-4.2602,-4.2602,-4.2602,-4.2602,-4.2602,-4.2602,-4.2602,-4.2602,-4.2602,-4.2602,-4.2602,-4.2602,-4.2602,-4.2602,-4.2602,-4.2602,-4.2602,-4.2602,-4.2602,-4.2602,-4.2602,-4.2602,-4.2699,-4.3007,-4.3767,-4.4497,-4.4837,-4.4409,-4.4359,-4.4082,-4.3207,-4.2462,-4.193,-4.1803,-4.1127,-4.06,-4.0409,-4.0374,-4.013,-3.9544,-3.9313,-3.9241,-3.937,-3.9833,-4.0547,-4.1449,-4.1138,-4.0873,-4.0703,-4.0668,-4.0585,-4.0382,-4.0382,-4.0808,0.0,0.0,0.0,0.0,0.0,0.0,0.0,0.0,0.0,0.0,0.0,0.0,0.0,0.0,0.0,0.0,0.0,0.0,0.0,0.0,0.0,0.0,0.0,0.0,0.0,0.0,0.0,0.0,-3.8202,-3.8202,-3.8202,-3.8202,-3.8202,-3.8202,-3.8202,-3.8202,-3.8202,-3.8202,-3.862,-3.9448,-4.0104,-4.1178,-4.2571,-4.1933,-4.2013,-4.2602,-4.2602,-4.2602,-4.2602,-4.2602,-4.2602,-4.2602,-4.2602,-4.2602,-4.2602,-4.2602,-4.2602,-4.2602,-4.2602,-4.2602,-4.2602,-4.2602,-4.2602,-4.2602,-4.2602,-4.2602,-4.2602,-4.2602,-4.2602,-4.2602,-4.2602,-4.2602,-4.2602,-4.2602,-4.2602,-4.2602,-4.2602,-4.2602,-4.2602,-4.2602,-4.3104,-4.38,-4.4528,-4.4838,-4.4984,-4.4902,-4.5048,-4.4835,-4.3973,-4.3202,-4.2504,-4.1851,-4.1127,-4.0839,-4.1142,-4.1142,-4.116,-4.1194,-4.0891,-4.1008,-4.1623,-4.2025,-4.2542,-4.3315,-4.1624,-4.0737,-4.0703,-4.0535,-4.0416,-4.0382,-4.0382,-4.0808,0.0,0.0,0.0,0.0,0.0,0.0,0.0,0.0,0.0,0.0,0.0,0.0,0.0,0.0,0.0,0.0,0.0,0.0,0.0,0.0,0.0,0.0,0.0,0.0,0.0,0.0,0.0,0.0,-3.8202,-3.8202,-3.8202,-3.8202,-3.8202,-3.8202,-3.8202,-3.8202,-3.8202,-3.8202,-3.8583,-3.9305,-4.0451,-4.1145,-4.1377,-4.1868,-4.2285,-4.2602,-4.2602,-4.2602,-4.2602,-4.2602,-4.2602,-4.2602,-4.2602,-4.2602,-4.2602,-4.2602,-4.2602,-4.2602,-4.2602,-4.2602,-4.2602,-4.2602,-4.2602,-4.2602,-4.2602,-4.2602,-4.2602,-4.2602,-4.2602,-4.2602,-4.2602,-4.2602,-4.2602,-4.2602,-4.2602,-4.2602,-4.2602,-4.2602,-4.2716,-4.312,-4.3816,-4.4544,-4.5241,-4.5745,-4.5975,-4.5668,-4.58,-4.5587,-4.4723,-4.4399,-4.3897,-4.296,-4.2571,-4.2166,-4.1638,-4.1672,-4.1655,-4.1393,-4.1127,-4.1142,-4.1491,-4.1808,-4.2132,-4.2476,-4.2392,-4.2374,-4.2374,-4.1863,-4.1624,-4.1624,-4.1624,-4.1803,0.0,0.0,0.0,0.0,0.0,0.0,0.0,0.0,0.0,0.0,0.0,0.0,0.0,0.0,0.0,0.0,0.0,0.0,0.0,0.0,0.0,0.0,0.0,0.0,0.0,0.0,0.0,0.0,-3.8202,-3.8202,-3.8202,-3.8202,-3.8202,-3.8202,-3.8202,-3.8202,-3.8202,-3.8202,-3.8583,-3.932,-4.0243,-4.0554,-4.0416,-4.136,-4.1868,-4.2045,-4.2429,-4.2602,-4.2602,-4.2602,-4.2602,-4.2602,-4.2602,-4.2602,-4.2602,-4.2602,-4.2602,-4.2602,-4.2602,-4.2602,-4.2602,-4.2602,-4.2602,-4.2602,-4.2602,-4.2602,-4.2602,-4.2602,-4.2602,-4.2602,-4.2602,-4.2602,-4.2602,-4.2602,-4.2602,-4.2602,-4.2602,-4.2602,-4.2861,-4.38,-4.4415,-4.5063,-4.5937,-4.6536,-4.6767,-4.6366,-4.6469,-4.6257,-4.5391,-4.5408,-4.513,-4.4091,-4.3994,-4.3541,-4.2446,-4.2494,-4.235,-4.1803,-4.1574,-4.1475,-4.1475,-4.1847,-4.2073,-4.2073,-4.3154,-4.3719,-4.3719,-4.3136,-4.2877,-4.2877,-4.2877,-4.278,0.0,0.0,0.0,0.0,0.0,0.0,0.0,0.0,0.0,0.0,0.0,0.0,0.0,0.0,0.0,0.0,0.0,0.0,0.0,0.0,0.0,0.0,0.0,0.0,0.0,0.0,0.0,0.0,-3.8202,-3.8202,-3.8202,-3.8202,-3.8202,-3.8202,-3.8202,-3.8202,-3.8202,-3.8202,-3.8583,-3.9269,-3.8694,-3.9066,-4.0382,-3.9768,-3.9859,-4.0588,-4.1997,-4.2602,-4.2602,-4.2602,-4.2602,-4.2602,-4.2602,-4.2602,-4.2602,-4.2602,-4.2602,-4.2602,-4.2602,-4.2602,-4.2602,-4.2602,-4.2602,-4.2602,-4.2602,-4.2602,-4.2602,-4.2602,-4.2602,-4.2602,-4.2602,-4.2602,-4.2602,-4.2602,-4.2602,-4.2602,-4.2602,-4.2602,-4.3007,-4.4464,-4.4755,-4.5225,-4.6601,-4.686,-4.6911,-4.6862,-4.705,-4.6823,-4.5874,-4.5927,-4.57,-4.4836,-4.4739,-4.4513,-4.3911,-4.391,-4.3664,-4.3054,-4.2883,-4.2806,-4.2806,-4.3298,-4.359,-4.359,-4.3654,-4.3719,-4.3719,-4.367,-4.3654,-4.3654,-4.3654,-4.3266,0.0,0.0,0.0,0.0,0.0,0.0,0.0,0.0,0.0,0.0,0.0,0.0,0.0,0.0,0.0,0.0,0.0,0.0,0.0,0.0,0.0,0.0,0.0,0.0,0.0,0.0,0.0,0.0,0.0,-3.8202,-3.8202,-3.8202,-3.8202,-3.8202,-3.8202,-3.8202,-3.8202,-3.8202,-3.8337,-3.8583,-3.8789,-3.8921,-3.8994,-3.9682,-3.9894,-3.9768,-4.0758,-4.1178,-4.1211,-4.1705,-4.19,-4.1933,-4.2429,-4.2602,-4.2602,-4.2602,-4.2602,-4.2602,-4.2602,-4.2602,-4.2602,-4.2602,-4.2602,-4.2602,-4.2602,-4.2602,-4.2602,-4.2602,-4.2602,-4.2602,-4.2602,-4.2602,-4.2602,-4.2602,-4.2602,-4.2602,-4.2602,-4.2958,-4.3622,-4.4609,-4.5144,-4.5743,-4.6714,-4.6876,-4.6945,-4.7064,-4.7132,-4.7119,-4.6942,-4.6826,-4.6515,-4.5732,-4.5518,-4.5193,-4.4561,-4.4187,-4.3908,-4.3694,-4.3191,-4.2899,-4.2899,-4.2956,-4.2991,-4.2991,-4.2991,-4.3217,-4.3719,-4.3719,-4.3719,-4.3719,-4.4188,-4.4269,0.0,0.0,0.0,0.0,0.0,0.0,0.0,0.0,0.0,0.0,0.0,0.0,0.0,0.0,0.0,0.0,0.0,0.0,0.0,0.0,0.0,0.0,0.0,0.0,0.0,0.0,0.0,0.0,0.0,0.0,-3.8202,-3.8202,-3.8202,-3.8202,-3.8202,-3.8202,-3.8202,-3.8202,-3.8202,-3.8202,-3.8694,-3.8694,-3.824,-3.9211,-3.9376,-3.8972,-3.9448,-3.9929,-4.0451,-4.0943,-4.1278,-4.1558,-4.2045,-4.2397,-4.2602,-4.2602,-4.2602,-4.2602,-4.2602,-4.2602,-4.2602,-4.2602,-4.2602,-4.2602,-4.2602,-4.2602,-4.2602,-4.2602,-4.2602,-4.2602,-4.2602,-4.2602,-4.2602,-4.2602,-4.2602,-4.2667,-4.291,-4.3331,-4.3929,-4.4658,-4.5338,-4.6034,-4.6763,-4.6876,-4.6961,-4.7064,-4.7098,-4.7183,-4.7369,-4.7217,-4.6919,-4.6515,-4.6282,-4.5888,-4.5192,-4.4805,-4.4496,-4.4301,-4.357,-4.3164,-4.3164,-4.2795,-4.2602,-4.2602,-4.2602,-4.2829,-4.3314,-4.3589,-4.3719,-4.3735,-4.4464,-4.4787,0.0,0.0,0.0,0.0,0.0,0.0,0.0,0.0,0.0,0.0,0.0,0.0,0.0,0.0,0.0,0.0,0.0,0.0,0.0,0.0,0.0,0.0,0.0,0.0,0.0,0.0,0.0,0.0,-3.8202,-3.8202,-3.8202,-3.8202,-3.8202,-3.8202,-3.8202,-3.8202,-3.8202,-3.8202,-3.8202,-3.8202,-3.8202,-3.8202,-3.8202,-3.8202,-3.8202,-3.8202,-3.8202,-3.8994,-4.0347,-4.0347,-4.0792,-4.1459,-4.1492,-4.1933,-4.2571,-4.2602,-4.2602,-4.2602,-4.2602,-4.2602,-4.2602,-4.2602,-4.2602,-4.2602,-4.2602,-4.2602,-4.2602,-4.2602,-4.2602,-4.2602,-4.2602,-4.2602,-4.2602,-4.2602,-4.2602,-4.2797,-4.3524,-4.3719,-4.3962,-4.469,-4.537,-4.6067,-4.6763,-4.6876,-4.6876,-4.6876,-4.6876,-4.6961,-4.7167,-4.703,-4.6996,-4.7183,-4.703,-4.6601,-4.5888,-4.5807,-4.5516,-4.4868,-4.414,-4.3735,-4.3735,-4.3039,-4.2651,-4.2651,-4.2651,-4.2651,-4.2667,-4.3379,-4.3719,-4.3735,-4.448,-4.482,-3.4414,0.0,0.0,0.0,0.0,0.0,0.0,0.0,0.0,0.0,0.0,0.0,0.0,0.0,0.0,0.0,0.0,0.0,0.0,0.0,0.0,0.0,0.0,0.0,0.0,0.0,0.0,0.0,-3.8202,-3.8202,-3.8202,-3.8202,-3.8202,-3.8202,-3.8202,-3.8202,-3.8202,-3.8202,-3.8202,-3.8202,-3.8202,-3.8202,-3.8202,-3.8202,-3.8202,-3.8202,-3.8202,-3.8449,-3.8863,-3.9376,-3.9718,-3.9999,-4.1078,-4.1624,-4.1868,-4.2397,-4.2602,-4.2602,-4.2602,-4.2602,-4.2602,-4.2602,-4.2602,-4.2602,-4.2602,-4.2602,-4.2602,-4.2602,-4.2602,-4.2602,-4.2602,-4.2602,-4.2602,-4.2602,-4.2602,-4.2651,-4.2861,-4.3751,-4.4706,-4.5386,-4.6099,-4.6649,-4.6844,-4.6876,-4.6876,-4.6876,-4.6876,-4.6961,-4.7167,-4.703,-4.6996,-4.7183,-4.703,-4.6811,-4.6601,-4.6115,-4.5726,-4.5532,-4.4885,-4.4496,-4.4496,-4.4302,-4.4188,-4.4188,-4.4188,-4.4188,-4.4188,-4.3864,-4.3719,-4.3735,-4.4949,-4.5516,0.0,0.0,0.0,0.0,0.0,0.0,-3.4414,-3.4414,-3.4414,0.0,0.0,0.0,0.0,0.0,0.0,0.0,0.0,0.0,0.0,0.0,0.0,0.0,0.0,0.0,0.0,-3.8202,-3.8202,-3.8202,-3.8202,-3.8202,-3.8202,-3.8202,-3.8202,-3.8202,-3.8202,-3.8202,-3.8202,-3.8202,-3.8202,-3.8202,-3.8202,-3.8202,-3.8202,-3.8202,-3.8202,-3.8202,-3.8202,-3.8202,-3.824,-3.8657,-3.903,-3.9376,-4.0243,-4.0758,-4.1078,-4.1525,-4.1868,-4.2142,-4.2142,-4.2349,-4.2602,-4.2602,-4.2602,-4.2602,-4.2602,-4.2602,-4.2602,-4.2602,-4.2602,-4.2602,-4.2602,-4.2602,-4.2602,-4.2602,-4.2602,-4.2683,-4.2991,-4.3735,-4.4544,-4.5257,-4.6196,-4.6876,-4.6876,-4.6876,-4.6876,-4.6876,-4.6876,-4.6961,-4.7167,-4.703,-4.6996,-4.7183,-4.703,-4.6876,-4.6876,-4.6504,-4.6261,-4.6261,-4.5597,-4.5208,-4.5208,-4.4933,-4.4787,-4.4787,-4.4787,-4.4787,-4.4787,-4.4059,-4.3719,-4.3735,-4.4544,-4.5241,0.0,0.0,0.0,0.0,0.0,0.0,-3.4414,-3.4414,-3.4414,-3.4414,0.0,0.0,0.0,0.0,0.0,0.0,0.0,0.0,0.0,0.0,0.0,0.0,0.0,0.0,-3.7941,-3.8057,-3.8101,-3.8101,-3.8159,-3.8202,-3.8202,-3.8202,-3.8202,-3.8202,-3.8202,-3.8202,-3.8202,-3.8202,-3.8202,-3.8202,-3.8202,-3.8202,-3.8202,-3.8202,-3.8202,-3.8202,-3.8202,-3.8202,-3.8202,-3.8202,-3.8583,-3.9175,-3.9284,-3.9697,-4.0278,-4.0382,-4.0792,-4.1393,-4.1393,-4.1803,-4.2349,-4.246,-4.246,-4.2492,-4.2571,-4.2602,-4.2602,-4.2492,-4.2429,-4.2349,-4.246,-4.246,-4.2492,-4.2602,-4.2602,-4.278,-4.346,-4.3654,-4.3897,-4.4544,-4.5807,-4.6795,-4.6911,-4.6876,-4.6876,-4.6876,-4.6876,-4.6945,-4.7149,-4.6996,-4.6961,-4.7149,-4.6996,-4.6876,-4.6876,-4.6876,-4.6876,-4.6876,-4.6277,-4.5921,-4.5921,-4.5338,-4.503,-4.503,-4.503,-4.4982,-4.4901,-4.4188,-4.3783,-4.3719,-4.3783,-4.4464,0.0,0.0,0.0,0.0,0.0,0.0,-3.4414,-3.4414,-3.4414,0.0,0.0,0.0,0.0,0.0,0.0,0.0,0.0,0.0,0.0,0.0,0.0,0.0,0.0,0.0,-3.6664,-3.7172,-3.7491,-3.7491,-3.7941,-3.8202,-3.8202,-3.8202,-3.8202,-3.8202,-3.8202,-3.8202,-3.8202,-3.8202,-3.8202,-3.8202,-3.8202,-3.8202,-3.8202,-3.8202,-3.8202,-3.8202,-3.8202,-3.8202,-3.8202,-3.8202,-3.8263,-3.8472,-3.9066,-3.9376,-3.9591,-4.0174,-4.0485,-4.0622,-4.0622,-4.069,-4.0943,-4.1525,-4.1689,-4.1835,-4.2429,-4.2602,-4.246,-4.1868,-4.1278,-4.0977,-4.1558,-4.1689,-4.1868,-4.246,-4.2602,-4.2635,-4.278,-4.3266,-4.3751,-4.3897,-4.5046,-4.6196,-4.6779,-4.6876,-4.6876,-4.6876,-4.6876,-4.6911,-4.6961,-4.6911,-4.6927,-4.6961,-4.6911,-4.6876,-4.6876,-4.6876,-4.6876,-4.6876,-4.6747,-4.6682,-4.6682,-4.6552,-4.6471,-4.6471,-4.6471,-4.6196,-4.5597,-4.4917,-4.4285,-4.3719,-4.4318,-4.4415,0.0,0.0,0.0,-3.4414,0.0,0.0,0.0,-3.4414,-3.4414,-3.4414,0.0,0.0,0.0,0.0,0.0,0.0,0.0,0.0,0.0,0.0,0.0,0.0,0.0,0.0,-3.6272,-3.6606,-3.6954,-3.7288,-3.7868,-3.8202,-3.8202,-3.8202,-3.8202,-3.8202,-3.8202,-3.8202,-3.8202,-3.8202,-3.8202,-3.8202,-3.8202,-3.8202,-3.8202,-3.8202,-3.8202,-3.8202,-3.8202,-3.8202,-3.8202,-3.8202,-3.8202,-3.824,-3.862,-3.8752,-3.8789,-3.9175,-3.9555,-3.9859,-3.9859,-4.0104,-4.0519,-4.1245,-4.1492,-4.1558,-4.1933,-4.1803,-4.1426,-4.1044,-4.0706,-4.0485,-4.0876,-4.1211,-4.1492,-4.1492,-4.2077,-4.2492,-4.211,-4.2639,-4.325,-4.3638,-4.4577,-4.5516,-4.6228,-4.6649,-4.6876,-4.6876,-4.6876,-4.6876,-4.6876,-4.6876,-4.6876,-4.6876,-4.6876,-4.6876,-4.6876,-4.6876,-4.6876,-4.6876,-4.6512,-4.6477,-4.6876,-4.6512,-4.6477,-4.6876,-4.6876,-4.6698,-4.6342,-4.6002,-4.5289,-4.4253,-4.4229,-4.4172,0.0,0.0,0.0,0.0,0.0,-3.4414,0.0,0.0,0.0,-3.4414,0.0,0.0,0.0,0.0,0.0,0.0,0.0,0.0,0.0,0.0,0.0,0.0,0.0,0.0,-3.5894,-3.6054,-3.646,-3.7244,-3.7752,-3.8086,-3.8188,-3.8202,-3.8202,-3.8202,-3.8202,-3.8202,-3.8202,-3.8202,-3.8202,-3.8202,-3.8202,-3.8202,-3.8202,-3.8202,-3.8202,-3.8202,-3.8202,-3.8202,-3.8202,-3.8202,-3.8202,-3.8202,-3.8202,-3.8202,-3.8202,-3.8202,-3.8583,-3.9103,-3.9103,-3.9484,-4.0104,-4.0826,-4.1178,-4.1278,-4.1278,-4.0758,-4.0174,-4.0174,-4.0069,-3.9999,-4.0139,-4.0622,-4.0961,-4.0519,-4.1311,-4.2013,-4.1426,-4.177,-4.2382,-4.3138,-4.3844,-4.4682,-4.5611,-4.6407,-4.6876,-4.6876,-4.6876,-4.6876,-4.6876,-4.6876,-4.6876,-4.6876,-4.6876,-4.6876,-4.6876,-4.6772,-4.6668,-4.6668,-4.5913,-4.5769,-4.6407,-4.5805,-4.5769,-4.6442,-4.6442,-4.6512,-4.6668,-4.6668,-4.6007,-4.4733,-4.4106,-4.3913,0.0,0.0,0.0,0.0,-3.4835,0.0,0.0,0.0,-3.4414,-3.4414,0.0,0.0,0.0,0.0,0.0,0.0,0.0,0.0,0.0,0.0,0.0,0.0,0.0,0.0,0.0,-3.514,-3.6017,-3.7215,-3.7375,-3.7651,-3.8173,-3.8202,-3.8202,-3.8202,-3.8202,-3.8202,-3.8202,-3.8202,-3.8202,-3.8202,-3.8202,-3.8202,-3.8202,-3.8202,-3.8202,-3.8202,-3.8202,-3.8202,-3.8202,-3.8202,-3.8202,-3.8202,-3.8202,-3.8202,-3.8202,-3.8202,-3.824,-3.83,-3.83,-3.8375,-3.8583,-3.932,-3.9999,-4.0519,-4.0519,-3.9999,-3.9412,-3.9412,-3.8957,-3.8583,-3.9247,-3.9484,-3.9682,-4.0278,-4.0519,-4.0622,-4.0554,-4.0588,-4.0857,-4.1603,-4.23,-4.3427,-4.5441,-4.6407,-4.6876,-4.6876,-4.6876,-4.6876,-4.6876,-4.6876,-4.6876,-4.6876,-4.6876,-4.6876,-4.6876,-4.625,-4.5857,-4.5857,-4.5073,-4.4662,-4.4774,-4.4699,-4.4662,-4.4774,-4.4774,-4.511,-4.5857,-4.5857,-4.5409,-4.4598,-4.4527,-4.3818,0.0,0.0,0.0,0.0,0.0,0.0,-3.5,0.0,-3.4414,0.0,0.0,0.0,0.0,0.0,0.0,0.0,0.0,0.0,0.0,0.0,0.0,0.0,0.0,0.0,0.0,0.0,0.0,0.0,-3.7085,-3.7564,-3.8173,-3.8202,-3.8202,-3.8202,-3.8202,-3.8202,-3.8202,-3.8202,-3.8202,-3.8202,-3.8202,-3.8202,-3.8202,-3.8202,-3.8202,-3.8202,-3.8202,-3.8202,-3.8202,-3.8202,-3.8202,-3.8202,-3.8202,-3.8202,-3.8202,-3.8202,-3.8202,-3.8202,-3.8202,-3.8202,-3.83,-3.9066,-3.952,-3.9753,-3.9753,-3.9247,-3.8657,-3.8657,-3.8449,-3.8277,-3.8583,-3.8972,-3.9284,-3.9139,-3.9788,-4.0278,-3.9859,-4.0104,-4.0485,-4.0792,-4.1767,-4.2788,-4.3725,-4.5183,-4.6372,-4.6842,-4.6876,-4.6876,-4.6876,-4.652,-4.6261,-4.6261,-4.5532,-4.5195,-4.5524,-4.4849,-4.46,-4.4968,-4.4699,-4.4282,-4.3819,-4.4243,-4.451,-4.451,-4.451,-4.4662,-4.4999,-4.4999,-4.462,-4.3875,-4.4325,-4.4223,-3.7549,0.0,0.0,0.0,0.0,0.0,0.0,0.0,0.0,0.0,0.0,0.0,0.0,0.0,0.0,0.0,0.0,0.0,0.0,0.0,0.0,0.0,0.0,0.0,0.0,0.0,0.0,-3.5996,-3.6664,-3.7302,-3.7926,-3.8115,-3.8202,-3.8202,-3.8202,-3.8202,-3.8202,-3.8202,-3.8202,-3.8202,-3.8202,-3.8202,-3.8202,-3.8202,-3.8202,-3.8202,-3.8202,-3.8202,-3.8202,-3.8202,-3.8202,-3.8202,-3.8202,-3.8202,-3.8202,-3.8202,-3.8202,-3.8202,-3.8202,-3.8202,-3.8277,-3.8826,-3.8994,-3.8994,-3.8994,-3.862,-3.8202,-3.8202,-3.8202,-3.8202,-3.8202,-3.8583,-3.8863,-3.8337,-3.903,-3.9662,-3.9103,-3.9412,-3.992,-4.0294,-4.1176,-4.2028,-4.2652,-4.4205,-4.566,-4.6442,-4.6582,-4.6588,-4.6617,-4.6131,-4.5726,-4.5548,-4.4425,-4.3867,-4.4322,-4.3613,-4.3343,-4.3827,-4.3834,-4.356,-4.2996,-4.3521,-4.3834,-4.3834,-4.3834,-4.395,-4.4167,-4.4167,-4.3974,-4.3639,-4.4013,-4.4051,0.0,0.0,0.0,-3.7273,0.0,0.0,0.0,0.0,-3.5363,0.0,0.0,0.0,0.0,0.0,0.0,0.0,0.0,0.0,0.0,0.0,0.0,0.0,0.0,0.0,0.0,0.0,-3.4704,-3.5378,-3.5981,-3.6635,-3.7302,-3.7883,-3.8202,-3.8202,-3.8202,-3.8202,-3.8202,-3.8202,-3.8202,-3.8202,-3.8202,-3.8202,-3.8202,-3.8202,-3.8202,-3.8202,-3.8202,-3.8202,-3.8202,-3.8202,-3.8202,-3.8202,-3.8202,-3.8202,-3.8202,-3.8202,-3.8202,-3.8202,-3.8202,-3.8202,-3.8202,-3.824,-3.824,-3.824,-3.824,-3.8202,-3.8202,-3.8202,-3.8202,-3.8202,-3.8202,-3.8202,-3.824,-3.8202,-3.824,-3.8277,-3.824,-3.824,-3.8662,-4.004,-4.0218,-4.0851,-4.2997,-4.4018,-4.4812,-4.5624,-4.5733,-4.5746,-4.5819,-4.5807,-4.5548,-4.4901,-4.4154,-4.3712,-4.3727,-4.2858,-4.2292,-4.2172,-4.2175,-4.2175,-4.2133,-4.2175,-4.2175,-4.2175,-4.2175,-4.2541,-4.3324,-4.3324,-4.3717,-4.4434,-4.3702,-4.2915,0.0,0.0,-3.7897,-3.7897,0.0,0.0,0.0,0.0,0.0,0.0,0.0,0.0,0.0,0.0,0.0,0.0,0.0,0.0,0.0,0.0,0.0,0.0,0.0,0.0,0.0,0.0,0.0,-3.5348,-3.5952,-3.6591,-3.7273,-3.7883,-3.8202,-3.8202,-3.8202,-3.8202,-3.8202,-3.8202,-3.8202,-3.8202,-3.8202,-3.8202,-3.8202,-3.8202,-3.8202,-3.8202,-3.8202,-3.8202,-3.8202,-3.8202,-3.8202,-3.8202,-3.8202,-3.8202,-3.8202,-3.8202,-3.8202,-3.8202,-3.8202,-3.8202,-3.8202,-3.8202,-3.8202,-3.8202,-3.8202,-3.8202,-3.8202,-3.8202,-3.8202,-3.8202,-3.8202,-3.8202,-3.8202,-3.8202,-3.8551,-3.887,-3.887,-3.9175,-3.9601,-4.0075,-4.0504,-4.1015,-4.176,-4.2431,-4.3379,-4.4699,-4.494,-4.4994,-4.5002,-4.4682,-4.4154,-4.3417,-4.2234,-4.1504,-4.1448,-4.1462,-4.1675,-4.2049,-4.2092,-4.2092,-4.2092,-4.2092,-4.2092,-4.2092,-4.2092,-4.2242,-4.2514,-4.2514,-4.2662,-4.289,-4.2622,-4.2662,-3.8739,-3.8565,0.0,-3.826,-3.7912,0.0,-3.7622,0.0,0.0,0.0,0.0,0.0,0.0,0.0,0.0,0.0,0.0,0.0,0.0,0.0,0.0,0.0,0.0,0.0,0.0,0.0,-3.4588,-3.4994,-3.5619,-3.6257,0.0,0.0,-3.7984,-3.8188,-3.8202,-3.8202,-3.8202,-3.8202,-3.8202,-3.8202,-3.8202,-3.8202,-3.8202,-3.8202,-3.8202,-3.8202,-3.8202,-3.8202,-3.8202,-3.8202,-3.8202,-3.8202,-3.8202,-3.8202,-3.8202,-3.8202,-3.8202,-3.8202,-3.8202,-3.8202,-3.8202,-3.8202,-3.8202,-3.8202,-3.8202,-3.8202,-3.8202,-3.8202,-3.8202,-3.8202,-3.8202,-3.8202,-3.826,-3.8507,-3.8884,-3.9262,-3.9465,-3.9828,-4.0162,-4.0408,-4.08,-4.1178,-4.141,-4.1802,-4.2555,-4.3858,-4.391,-4.3884,-4.4216,-4.3466,-4.2739,-4.227,-4.0885,-4.006,-4.0232,-4.0563,-4.1134,-4.2034,-4.2092,-4.2092,-4.2092,-4.2092,-4.2092,-4.2092,-4.2092,-4.2092,-4.2092,-4.2092,-4.2092,-4.2092,-4.2092,-4.2392]},{"header":{"parameterUnit":"m.s-1","parameterCategory":1,"la1":30.6,"la2":29.2853,"lo1":-89.7004,"lo2":-87.6739,"dy":0.0162,"dx":0.0183,"nx":112,"ny":82,"refTime":"2023-03-19T18:00:00:Z","depth":0,"parameterNumber":3,"parameterNumberName":"V-component_of_WINDS"},"data":[0.0,0.0,0.0,0.0,0.0,0.0,0.0,0.0,0.0,0.0,0.0,0.0,0.0,0.0,0.0,0.0,0.0,0.0,0.0,0.0,0.0,0.0,0.0,0.0,0.0,0.0,0.0,0.0,0.0,0.0,0.0,0.0,0.0,0.0,0.0,0.0,0.0,0.0,0.0,0.0,0.0,0.0,0.0,0.0,0.0,0.0,0.0,0.0,0.0,0.0,0.0,0.0,0.0,0.0,0.0,0.0,0.0,0.0,0.0,0.0,0.0,0.0,0.0,0.0,0.0,0.0,0.0,0.0,0.0,0.0,0.0,0.0,0.0,0.0,0.0,0.0,0.0,0.0,0.0,0.0,0.0,0.0,0.0,0.0,0.0,0.0,0.0,0.0,0.0,0.0,1.4231,1.4299,1.4668,1.4883,1.4883,1.4964,1.4674,1.3941,0.0,0.0,0.0,0.0,0.0,0.0,0.0,0.0,0.0,0.0,0.0,0.0,0.0,0.0,0.0,0.0,0.0,0.0,0.0,0.0,0.0,0.0,0.0,0.0,0.0,0.0,0.0,0.0,0.0,0.0,0.0,0.0,0.0,0.0,0.0,0.0,0.0,0.0,0.0,0.0,0.0,0.0,0.0,0.0,0.0,0.0,0.0,0.0,0.0,0.0,0.0,0.0,0.0,0.0,0.0,0.0,0.0,0.0,0.0,0.0,0.0,0.0,0.0,0.0,0.0,0.0,0.0,0.0,0.0,0.0,0.0,0.0,0.0,0.0,0.0,0.0,0.0,0.0,0.0,0.0,0.0,0.0,0.0,0.0,0.0,0.0,0.0,0.0,0.0,0.0,0.0,0.0,0.0,0.0,0.0,0.0,0.0,0.0,0.0,0.0,0.0,0.0,0.0,0.0,1.4824,1.5186,1.5283,1.5312,1.5312,1.5113,1.4931,1.4802,0.0,0.0,0.0,0.0,0.0,0.0,0.0,0.0,0.0,0.0,0.0,0.0,0.0,0.0,0.0,0.0,0.0,0.0,0.0,0.0,0.0,0.0,0.0,0.0,0.0,0.0,0.0,0.0,0.0,0.0,0.0,0.0,0.0,0.0,0.0,0.0,0.0,0.0,0.0,0.0,0.0,0.0,0.0,0.0,0.0,0.0,0.0,0.0,0.0,0.0,0.0,0.0,0.0,0.0,0.0,0.0,0.0,0.0,0.0,0.0,0.0,0.0,0.0,0.0,0.0,0.0,0.0,0.0,0.0,0.0,0.0,0.0,0.0,0.0,0.0,0.0,0.0,0.0,0.0,0.0,0.0,0.0,0.0,0.0,0.0,0.0,0.0,0.0,0.0,0.0,0.0,0.0,0.0,0.0,0.0,0.0,0.0,0.0,0.0,0.0,0.0,0.0,0.0,1.5184,1.5262,1.5642,1.5604,1.5604,1.5662,1.5627,1.5481,1.524,1.4749,0.0,0.0,0.0,0.0,0.0,0.0,0.0,0.0,0.0,0.0,0.0,0.0,0.0,0.0,0.0,0.0,0.0,0.0,0.0,0.0,0.0,0.0,0.0,0.0,0.0,0.0,0.0,0.0,0.0,0.0,0.0,0.0,0.0,0.0,0.0,0.0,0.0,0.0,0.0,0.0,0.0,0.0,0.0,0.0,0.0,0.0,0.0,0.0,0.0,0.0,0.0,0.0,0.0,0.0,0.0,0.0,0.0,0.0,0.0,0.0,0.0,0.0,0.0,0.0,0.0,0.0,0.0,0.0,0.0,0.0,0.0,0.0,0.0,0.0,0.0,0.0,0.0,0.0,0.0,0.0,0.0,0.0,0.0,0.0,0.0,0.0,0.0,0.0,0.0,0.0,0.0,0.0,0.0,0.0,0.0,0.0,0.0,0.0,0.0,0.0,0.0,0.0,1.5575,1.5604,1.5827,1.5798,1.5798,1.5885,1.6009,1.5932,1.5586,1.532,0.0,0.0,0.0,0.0,0.0,0.0,0.0,0.0,0.0,0.0,0.0,0.0,0.0,0.0,0.0,0.0,0.0,0.0,0.0,0.0,0.0,0.0,0.0,0.0,0.0,0.0,0.0,0.0,0.0,0.0,0.0,0.0,0.0,0.0,0.0,0.0,0.0,0.0,0.0,0.0,0.0,0.0,0.0,0.0,0.0,0.0,0.0,0.0,0.0,0.0,0.0,0.0,0.0,0.0,0.0,0.0,0.0,0.0,0.0,0.0,0.0,0.0,0.0,0.0,0.0,0.0,0.0,0.0,0.0,0.0,0.0,0.0,0.0,0.0,0.0,0.0,0.0,0.0,0.0,0.0,0.0,0.0,0.0,0.0,0.0,0.0,0.0,0.0,0.0,0.0,0.0,0.0,0.0,0.0,0.0,0.0,0.0,0.0,0.0,0.0,0.0,0.0,1.5662,1.5827,1.5711,1.5827,1.5885,1.5885,1.6009,1.6104,1.6034,1.5804,0.0,0.0,0.0,0.0,0.0,0.0,0.0,0.0,0.0,0.0,0.0,0.0,0.0,0.0,0.0,0.0,0.0,0.0,0.0,0.0,0.0,0.0,0.0,0.0,0.0,0.0,0.0,0.0,0.0,0.0,0.0,0.0,0.0,0.0,0.0,0.0,0.0,0.0,0.0,0.0,0.0,0.0,0.0,0.0,0.0,0.0,0.0,0.0,0.0,0.0,0.0,0.0,0.0,0.0,0.0,0.0,0.0,0.0,0.0,0.0,0.0,0.0,0.0,0.0,0.0,0.0,0.0,0.0,0.0,0.0,0.0,0.0,0.0,0.0,0.0,0.0,0.0,0.0,0.0,0.0,0.0,0.0,0.0,0.0,0.0,0.0,0.0,0.0,0.0,0.0,0.0,0.0,0.0,0.0,0.0,0.0,0.0,0.0,0.0,0.0,0.0,0.0,1.6266,1.6476,0.0,1.6921,1.6799,1.6613,1.6631,1.6547,1.6298,0.0,0.0,0.0,0.0,0.0,0.0,0.0,0.0,0.0,0.0,0.0,0.0,0.0,0.0,0.0,0.0,0.0,0.0,0.0,0.0,0.0,0.0,0.0,0.0,0.0,0.0,0.0,0.0,0.0,0.0,0.0,0.0,0.0,0.0,0.0,0.0,0.0,0.0,0.0,0.0,0.0,0.0,0.0,0.0,0.0,0.0,0.0,0.0,0.0,0.0,0.0,0.0,0.0,0.0,0.0,0.0,0.0,0.0,0.0,0.0,0.0,0.0,0.0,0.0,0.0,0.0,0.0,0.0,0.0,0.0,0.0,0.0,0.0,0.0,0.0,0.0,0.0,0.0,0.0,0.0,0.0,0.0,0.0,0.0,0.0,0.0,0.0,0.0,0.0,0.0,0.0,0.0,0.0,0.0,0.0,0.0,0.0,0.0,0.0,0.0,0.0,0.0,1.6567,1.6789,1.7124,0.0,1.7606,1.7482,1.7224,1.7099,1.6882,1.6612,0.0,0.0,0.0,0.0,0.0,0.0,0.0,0.0,0.0,0.0,0.0,0.0,0.0,0.0,0.0,0.0,0.0,0.0,0.0,0.0,0.0,0.0,0.0,0.0,0.0,0.0,0.0,0.0,0.0,0.0,0.0,0.0,0.0,0.0,0.0,0.0,0.0,0.0,0.0,0.0,0.0,0.0,0.0,0.0,0.0,0.0,0.0,0.0,0.0,0.0,0.0,0.0,0.0,0.0,0.0,0.0,0.0,0.0,0.0,0.0,0.0,0.0,0.0,0.0,0.0,0.0,0.0,0.0,0.0,0.0,0.0,0.0,0.0,0.0,0.0,0.0,0.0,0.0,0.0,0.0,0.0,0.0,0.0,0.0,0.0,0.0,0.0,0.0,0.0,0.0,0.0,0.0,0.0,0.0,0.0,0.0,0.0,0.0,0.0,0.0,0.0,0.0,1.6618,1.7267,1.7647,1.7523,1.7647,1.7719,1.7709,1.7285,1.7027,0.0,0.0,0.0,0.0,0.0,0.0,0.0,0.0,0.0,0.0,0.0,0.0,0.0,0.0,0.0,0.0,0.0,0.0,0.0,0.0,0.0,0.0,0.0,0.0,0.0,0.0,0.0,0.0,0.0,0.0,0.0,0.0,0.0,0.0,0.0,0.0,0.0,0.0,0.0,0.0,0.0,0.0,0.0,0.0,0.0,0.0,0.0,0.0,0.0,0.0,0.0,0.0,0.0,0.0,0.0,0.0,0.0,0.0,0.0,0.0,0.0,0.0,0.0,0.0,0.0,0.0,0.0,0.0,0.0,0.0,0.0,0.0,0.0,0.0,0.0,0.0,0.0,0.0,0.0,0.0,0.0,0.0,0.0,0.0,0.0,0.0,0.0,0.0,0.0,0.0,0.0,0.0,0.0,0.0,0.0,0.0,0.0,0.0,0.0,0.0,0.0,0.0,0.0,1.7633,1.8017,1.8309,1.8608,1.8671,1.8547,1.8216,1.8071,1.7719,1.7048,0.0,0.0,0.0,0.0,0.0,0.0,0.0,0.0,0.0,0.0,0.0,0.0,0.0,0.0,0.0,0.0,0.0,0.0,0.0,0.0,0.0,0.0,0.0,0.0,0.0,0.0,0.0,0.0,0.0,0.0,0.0,0.0,0.0,0.0,0.0,0.0,0.0,0.0,0.0,0.0,0.0,0.0,0.0,0.0,0.0,0.0,0.0,0.0,0.0,0.0,0.0,0.0,0.0,0.0,0.0,0.0,0.0,0.0,0.0,0.0,0.0,0.0,0.0,0.0,0.0,0.0,0.0,0.0,0.0,0.0,0.0,0.0,0.0,0.0,0.0,0.0,0.0,0.0,0.0,0.0,0.0,0.0,0.0,0.0,0.0,0.0,0.0,0.0,0.0,0.0,0.0,0.0,0.0,0.0,0.0,0.0,0.0,0.0,0.0,0.0,0.0,0.0,1.8202,1.8515,1.8797,1.9077,1.9108,1.8994,1.8714,1.8517,1.8154,1.7575,0.0,0.0,0.0,0.0,0.0,0.0,0.0,0.0,0.0,0.0,0.0,0.0,0.0,0.0,0.0,0.0,0.0,0.0,0.0,0.0,0.0,0.0,0.0,0.0,0.0,0.0,0.0,0.0,0.0,0.0,0.0,0.0,0.0,0.0,0.0,0.0,0.0,0.0,0.0,0.0,0.0,0.0,0.0,0.0,0.0,0.0,0.0,0.0,0.0,0.0,0.0,0.0,0.0,0.0,0.0,0.0,0.0,0.0,0.0,0.0,0.0,0.0,0.0,0.0,0.0,0.0,0.0,0.0,0.0,0.0,0.0,0.0,0.0,0.0,0.0,0.0,0.0,0.0,0.0,0.0,0.0,0.0,0.0,0.0,0.0,0.0,0.0,0.0,0.0,0.0,0.0,0.0,0.0,0.0,0.0,0.0,0.0,0.0,0.0,0.0,0.0,0.0,1.8465,1.8849,1.9108,1.9108,1.9108,1.9108,1.9108,1.8714,1.8455,1.8414,0.0,0.0,0.0,0.0,0.0,0.0,0.0,0.0,0.0,0.0,0.0,0.0,0.0,0.0,0.0,0.0,0.0,0.0,0.0,0.0,0.0,0.0,0.0,0.0,0.0,0.0,0.0,0.0,0.0,0.0,0.0,0.0,0.0,0.0,0.0,0.0,0.0,0.0,0.0,0.0,0.0,0.0,0.0,0.0,0.0,0.0,0.0,0.0,0.0,0.0,0.0,0.0,0.0,0.0,0.0,0.0,0.0,0.0,0.0,0.0,1.8402,0.0,0.0,0.0,0.0,0.0,0.0,0.0,0.0,0.0,0.0,0.0,0.0,0.0,0.0,0.0,0.0,0.0,0.0,0.0,0.0,0.0,0.0,0.0,0.0,0.0,0.0,0.0,0.0,0.0,0.0,0.0,0.0,0.0,0.0,0.0,0.0,0.0,0.0,0.0,0.0,0.0,1.8878,1.9046,1.9108,1.9108,1.9108,1.9108,1.9108,1.9015,1.8797,1.8434,1.8299,0.0,0.0,0.0,0.0,0.0,0.0,0.0,0.0,0.0,0.0,0.0,0.0,0.0,0.0,0.0,0.0,0.0,0.0,0.0,0.0,0.0,0.0,0.0,0.0,0.0,0.0,0.0,0.0,0.0,0.0,0.0,0.0,0.0,0.0,0.0,0.0,0.0,0.0,0.0,0.0,0.0,0.0,0.0,0.0,0.0,0.0,0.0,0.0,0.0,0.0,0.0,0.0,0.0,0.0,0.0,0.0,0.0,0.0,0.0,0.0,1.8745,0.0,0.0,0.0,0.0,0.0,0.0,0.0,0.0,0.0,0.0,0.0,0.0,0.0,0.0,0.0,0.0,0.0,0.0,0.0,0.0,0.0,0.0,0.0,0.0,0.0,0.0,0.0,0.0,0.0,0.0,0.0,0.0,0.0,0.0,0.0,0.0,0.0,0.0,0.0,0.0,1.9409,1.9627,1.9717,1.9717,1.9717,1.9717,1.9717,1.9554,1.9336,1.9088,1.887,0.0,0.0,0.0,0.0,0.0,0.0,0.0,0.0,0.0,0.0,0.0,0.0,0.0,0.0,0.0,0.0,0.0,0.0,0.0,0.0,0.0,0.0,0.0,0.0,0.0,0.0,0.0,0.0,0.0,0.0,0.0,0.0,0.0,0.0,0.0,0.0,0.0,0.0,0.0,0.0,0.0,0.0,0.0,0.0,0.0,0.0,0.0,0.0,0.0,0.0,0.0,0.0,0.0,2.0385,2.0385,2.0385,2.0385,2.0385,2.0343,1.9634,1.9336,1.9336,1.9336,0.0,0.0,0.0,0.0,0.0,0.0,0.0,0.0,0.0,0.0,0.0,0.0,0.0,0.0,0.0,0.0,0.0,0.0,0.0,0.0,0.0,0.0,0.0,0.0,1.8174,1.8174,1.8174,0.0,0.0,0.0,0.0,0.0,0.0,0.0,0.0,0.0,0.0,0.0,1.9907,2.0193,2.0385,2.0385,2.0385,2.0385,2.0385,2.0089,1.9907,1.9907,1.9482,1.9056,0.0,0.0,0.0,0.0,0.0,0.0,0.0,0.0,0.0,0.0,0.0,0.0,0.0,0.0,0.0,0.0,0.0,0.0,0.0,0.0,0.0,0.0,0.0,0.0,0.0,0.0,0.0,0.0,0.0,0.0,0.0,0.0,2.0385,2.0385,0.0,0.0,0.0,0.0,0.0,0.0,0.0,0.0,0.0,0.0,0.0,0.0,0.0,2.0385,2.0385,2.0385,2.0385,2.0385,2.0385,2.0385,2.0385,2.0385,2.0385,2.0385,2.0296,0.0,2.0245,2.0245,0.0,0.0,0.0,0.0,0.0,0.0,0.0,0.0,0.0,0.0,0.0,0.0,0.0,0.0,0.0,0.0,0.0,0.0,0.0,0.0,0.0,0.0,2.0034,2.0034,2.0034,2.0034,0.0,1.9137,1.8413,1.8849,1.8922,0.0,0.0,0.0,0.0,0.0,0.0,0.0,2.0338,2.0354,2.0385,2.0385,2.0385,2.0385,2.0385,2.0333,2.0338,2.0338,1.9948,1.9679,1.9616,1.8839,0.0,0.0,0.0,0.0,0.0,0.0,0.0,0.0,0.0,0.0,0.0,0.0,0.0,0.0,0.0,0.0,0.0,0.0,0.0,0.0,0.0,0.0,0.0,0.0,0.0,0.0,0.0,0.0,0.0,2.1207,2.1207,2.1207,2.1207,2.1207,0.0,0.0,0.0,0.0,0.0,0.0,0.0,0.0,0.0,2.159,2.1849,2.1973,2.1973,2.1973,2.1973,2.1973,2.1973,2.1973,2.1973,2.1973,2.1973,2.1973,2.1973,2.1973,2.189,2.0855,2.0385,2.0385,0.0,0.0,0.0,0.0,2.0006,1.9831,1.9831,1.9831,1.9831,1.9831,0.0,0.0,0.0,0.0,0.0,0.0,0.0,0.0,0.0,0.0,2.0385,2.0385,2.0385,2.0385,2.0385,1.9955,1.9582,0.0,1.9831,1.9893,2.01,0.0,0.0,0.0,0.0,2.0777,2.0777,2.1005,2.1207,2.1207,2.1207,2.1207,2.1207,2.0969,2.0777,2.0777,2.0389,2.0131,2.0131,1.9544,1.9191,0.0,0.0,0.0,0.0,0.0,0.0,0.0,0.0,0.0,0.0,0.0,0.0,0.0,0.0,0.0,0.0,0.0,0.0,0.0,0.0,0.0,0.0,0.0,0.0,0.0,0.0,0.0,0.0,2.1807,2.1807,2.1807,2.1807,2.1849,0.0,0.0,0.0,0.0,0.0,0.0,2.2159,2.248,2.2677,2.2677,2.3008,2.3184,2.3184,2.3184,2.3184,2.3184,2.3184,2.3184,2.3184,2.3184,2.3184,2.3184,2.3184,2.3184,2.308,2.1694,2.1135,2.1135,2.1135,2.1062,2.0948,2.0948,2.0803,2.056,2.056,2.0488,2.0385,2.0385,2.0385,2.0385,2.0385,0.0,0.0,0.0,0.0,2.056,2.056,2.0653,2.0772,2.0772,2.0772,2.0772,2.0772,2.0772,2.071,0.0,2.0385,2.0426,2.055,0.0,0.0,0.0,0.0,2.129,2.129,2.159,2.1807,2.1807,2.1807,2.1807,2.1807,2.1487,2.129,2.129,2.0855,2.056,2.056,2.0172,1.9917,1.9793,0.0,0.0,0.0,0.0,0.0,0.0,0.0,0.0,0.0,0.0,0.0,0.0,0.0,0.0,0.0,0.0,0.0,0.0,0.0,0.0,0.0,0.0,0.0,0.0,0.0,0.0,0.0,0.0,0.0,2.1807,2.1807,0.0,0.0,0.0,0.0,2.3091,2.3122,2.3122,2.3122,2.3143,2.3153,2.3153,2.3174,2.3184,2.3184,2.3184,2.3184,2.3184,2.3184,2.3184,2.3184,2.3184,2.3184,2.3184,2.3184,2.3184,2.3184,2.3091,2.3049,2.3049,2.3049,2.278,2.2387,2.2387,2.1838,2.1073,2.1073,2.0757,2.0385,2.0385,2.0385,2.0385,2.0385,2.0385,0.0,0.0,2.0705,2.1073,2.1073,2.1404,2.1735,2.1735,2.1735,2.1735,2.1735,2.1735,2.1476,0.0,2.0385,2.0529,2.1,0.0,2.1228,2.1662,2.1756,2.1766,2.1766,2.1797,2.1807,2.1807,2.1807,2.1807,2.1807,2.1787,2.1766,2.1766,2.1331,2.1073,2.1073,2.0602,2.0193,1.9803,1.9751,0.0,0.0,0.0,0.0,0.0,0.0,0.0,0.0,0.0,0.0,0.0,0.0,0.0,0.0,0.0,0.0,0.0,0.0,0.0,0.0,0.0,0.0,0.0,0.0,0.0,0.0,0.0,0.0,2.2252,2.2511,0.0,2.2925,2.2946,2.3008,2.3174,2.3184,2.3184,2.3184,2.3474,2.3629,2.3629,2.3908,2.4022,2.4022,2.4022,2.4022,2.4022,2.4022,2.4022,2.4022,2.4022,2.4022,2.4022,2.4022,2.4022,2.4022,2.4022,2.3722,2.3184,2.3184,2.3091,2.2946,2.2946,2.2739,2.2449,2.2449,2.2335,2.2201,2.2201,2.2201,2.2201,2.2201,2.2201,2.2201,2.2201,2.2325,2.2449,2.2449,2.2573,2.2697,2.2697,2.2697,2.2697,2.2697,2.2697,2.2594,2.2263,2.1725,2.1455,2.1921,2.2004,2.2159,2.2625,2.2697,2.2697,2.2697,2.2697,2.2584,2.2283,2.2252,2.2128,2.1828,2.1807,2.1807,2.1807,2.1652,2.1559,2.1559,2.1114,2.0793,2.0638,2.0338,1.9965,0.0,0.0,0.0,0.0,0.0,0.0,0.0,0.0,0.0,0.0,0.0,0.0,0.0,0.0,0.0,0.0,0.0,0.0,0.0,0.0,0.0,0.0,0.0,0.0,0.0,0.0,2.2729,2.2729,2.2998,2.3246,2.3412,2.3422,2.3484,2.3629,2.3639,2.3639,2.3639,2.3939,2.4105,2.4105,2.4342,2.4497,2.4497,2.4497,2.4497,2.4497,2.4497,2.4497,2.4497,2.4497,2.4497,2.4497,2.4497,2.4497,2.4497,2.4497,2.4146,2.3639,2.3639,2.3639,2.3639,2.3639,2.3546,2.3401,2.3246,2.3184,2.3184,2.3184,2.3184,2.3184,2.3184,2.3184,2.3184,2.3184,2.3184,2.3184,2.3184,2.3184,2.3184,2.3184,2.3184,2.3184,2.3184,2.3184,2.3184,2.3184,2.2687,2.2366,2.2677,2.2729,2.2832,2.3143,2.3184,2.3184,2.3184,2.3184,2.307,2.276,2.2729,2.2604,2.2294,2.2128,2.2035,2.2035,2.189,2.1807,2.1807,2.1507,2.1269,2.1114,2.0622,2.0203,1.9793,0.0,0.0,0.0,0.0,0.0,0.0,0.0,0.0,0.0,0.0,0.0,0.0,0.0,0.0,0.0,0.0,0.0,0.0,0.0,0.0,0.0,0.0,0.0,2.3194,2.3194,2.3205,2.3205,2.3215,2.3412,2.3857,2.394,2.4074,2.4466,2.4497,2.4497,2.4497,2.4497,2.4497,2.4497,2.4497,2.4497,2.4497,2.4497,2.4497,2.4497,2.4497,2.4497,2.4497,2.4497,2.4497,2.4497,2.4497,2.4497,2.4497,2.4497,2.4497,2.4497,2.4497,2.4497,2.4497,2.4497,2.4271,2.3836,2.3391,2.3225,2.3225,2.3225,2.3225,2.3225,2.3225,2.3225,2.3225,2.3225,2.3225,2.3225,2.3225,2.3225,2.3225,2.3225,2.3225,2.3225,2.3225,2.3225,2.3225,2.3225,2.3225,2.3225,2.3215,2.3205,2.3215,2.3225,2.3225,0.0,2.3225,2.3225,2.3225,2.3215,2.3205,2.3205,2.3184,2.278,2.2511,2.2511,2.2087,2.1828,2.1828,2.1818,2.159,2.1145,2.0643,2.0234,1.9834,0.0,0.0,0.0,0.0,0.0,0.0,0.0,0.0,0.0,0.0,0.0,0.0,0.0,0.0,0.0,0.0,0.0,0.0,0.0,0.0,0.0,0.0,2.3939,2.3277,2.3474,2.3691,2.3691,2.3971,2.4177,2.4301,2.4321,2.4363,2.4487,2.4497,2.4497,2.4497,2.4497,2.4497,2.4497,2.4497,2.4497,2.4497,2.4497,2.4497,2.4497,2.4497,2.4497,2.4497,2.4497,2.4497,2.4497,2.4497,2.4497,2.4497,2.4497,2.4497,2.4497,2.4497,2.4497,2.4497,2.4497,2.4425,2.4301,2.4177,2.4125,2.4125,2.4125,2.4125,2.4125,2.4125,2.4125,2.4125,2.4125,2.4125,2.4125,2.4125,2.4125,2.4125,2.4125,2.4125,2.4125,2.4125,2.4125,2.4125,2.4125,2.4125,2.4064,2.3743,2.3691,2.3795,2.4115,2.4125,0.0,2.4125,2.4125,2.4043,2.3722,2.3691,2.3557,2.3215,2.307,2.2998,2.2998,2.2563,2.2304,2.2304,2.1983,2.1745,2.1621,2.1155,2.0866,0.0,0.0,0.0,0.0,0.0,0.0,0.0,0.0,0.0,0.0,0.0,0.0,0.0,0.0,0.0,0.0,0.0,0.0,0.0,0.0,0.0,0.0,2.4497,2.4311,2.3826,2.3991,2.4157,2.4157,2.4507,2.4786,2.4786,2.4952,2.5099,2.5099,2.5099,2.5099,2.5099,2.5099,2.5099,2.5099,2.5099,2.5099,2.5099,2.5099,2.5099,2.5099,2.5099,2.5099,2.5099,2.4869,2.4786,2.4776,2.458,2.4497,2.4497,2.4497,2.4497,0.0,0.0,0.0,0.0,0.0,2.4497,2.4497,2.4497,2.4497,2.4497,2.4497,2.4497,2.4497,2.4497,2.4497,2.4497,2.4497,2.4497,2.4497,2.4497,2.4497,2.4497,2.4497,2.4497,2.4497,2.4497,2.4497,2.4497,2.4497,2.4497,0.0,2.4198,2.4157,2.425,2.4456,2.4497,2.4497,2.4497,2.4497,2.4404,2.4188,2.4157,2.4043,2.3774,2.3588,0.0,0.0,0.0,2.2697,2.2501,2.2242,0.0,0.0,0.0,2.1311,2.1114,0.0,0.0,0.0,1.951,1.9489,0.0,0.0,0.0,0.0,0.0,0.0,0.0,0.0,0.0,0.0,0.0,0.0,0.0,0.0,0.0,0.0,2.4497,2.4518,2.4569,2.458,2.458,2.458,2.4941,2.521,2.5261,2.5658,2.5875,2.5875,2.5875,2.5875,2.5875,0.0,0.0,0.0,0.0,2.5875,2.5875,2.5875,2.5875,2.5875,2.5875,2.5875,2.591,2.5482,2.5261,2.5241,2.4828,2.4652,2.4652,2.4652,2.4621,2.4569,2.4518,2.4497,2.4497,2.4497,2.4497,2.4497,2.4497,0.0,0.0,2.4497,2.4497,2.4497,2.4497,2.4497,2.4497,2.4497,2.4497,2.4497,2.4497,2.4497,2.4497,2.4497,2.4497,2.4497,2.4497,2.4497,2.4497,2.4497,2.4497,2.4497,2.4497,2.4497,2.4497,2.4497,2.4497,2.4497,2.4497,2.4497,2.4497,2.4497,0.0,0.0,2.4497,2.4178,2.395,2.395,2.3515,2.306,2.2594,2.2522,2.2304,2.189,2.1828,2.1611,2.1186,2.1186,2.0943,2.0576,2.0436,2.0385,0.0,0.0,0.0,0.0,0.0,0.0,0.0,0.0,0.0,0.0,0.0,0.0,0.0,0.0,0.0,2.4497,2.4497,2.4631,2.5003,2.5055,2.5055,2.5055,2.5127,2.5368,2.572,2.5823,2.5875,2.5875,2.5875,2.5875,2.5875,2.5875,2.5875,2.5875,2.5875,2.5875,2.5875,2.5875,2.5875,2.5875,0.0,0.0,2.5875,2.5792,2.5751,2.5751,2.5658,2.5616,2.5616,2.5616,2.542,2.5024,2.4642,2.4497,2.4497,2.4497,2.4497,2.4497,2.4497,2.4497,2.4497,2.4497,2.4497,2.4497,2.4497,2.4497,0.0,2.4497,2.4497,2.4497,2.4497,2.4497,2.4497,2.4497,2.4497,2.4497,2.4497,2.4497,2.4497,2.4497,2.4497,2.4497,2.4497,2.4497,2.4497,2.4497,2.4497,2.4497,2.4497,2.4497,2.4497,2.4497,2.4497,2.4497,2.4497,2.4425,2.4373,2.4373,2.3991,2.3536,2.307,2.2697,2.2449,2.2366,2.1994,2.1766,2.1673,2.1673,2.1621,2.1518,2.0736,2.0385,0.0,0.0,0.0,0.0,0.0,0.0,0.0,0.0,0.0,0.0,0.0,2.4497,0.0,0.0,2.4497,2.4497,2.4693,2.4921,2.5158,2.542,2.5554,2.5554,2.5761,2.5989,2.6252,2.648,2.6615,2.6615,2.6615,2.6615,2.6615,2.6615,2.6615,2.6615,2.6615,2.6615,2.6615,2.6615,2.6615,2.6615,2.6615,2.6615,2.6604,2.6376,2.6273,2.6262,2.5978,2.5875,2.5875,2.5875,2.5751,2.5533,2.5295,2.489,2.4497,2.4497,2.4497,2.4497,2.4497,2.4497,2.4497,2.4497,2.4497,2.4497,2.4497,2.4497,2.4497,2.4497,2.4497,2.4497,2.4497,2.4497,2.4497,2.4497,2.4497,2.4497,2.4497,2.4497,2.4497,2.4497,2.4497,2.4497,2.4497,2.4497,2.4497,2.4497,2.4497,2.4497,2.4497,2.4497,2.4497,2.4497,2.4497,2.4497,2.4497,2.4497,2.4497,2.4497,2.4333,2.4002,2.3557,2.3318,2.308,2.2842,2.2387,2.2149,2.2149,2.1921,2.1807,2.1797,2.1331,2.1114,0.0,0.0,0.0,0.0,0.0,0.0,0.0,0.0,2.4497,2.4497,2.4497,2.4497,2.4497,2.4569,2.4631,2.4631,2.5013,2.5388,2.5482,2.5792,2.6096,2.6179,2.6449,2.6656,2.6739,2.7092,2.7309,2.7309,2.7309,2.7309,2.7309,2.7309,2.7309,2.7309,2.7309,2.7309,2.7309,2.7309,2.7309,2.7309,2.7309,2.7309,2.7299,2.6915,2.675,2.6729,2.6356,2.6144,2.6144,2.6096,2.6055,2.6055,2.5962,2.544,2.4745,2.4662,2.4631,2.4621,2.4528,2.4497,2.4497,2.4497,2.4497,2.4497,2.4497,2.4497,2.4497,2.4497,2.4497,2.4497,2.4497,2.4497,2.4497,2.4497,2.4497,2.4497,2.4497,2.4497,2.4497,2.4497,2.4497,2.4497,2.4497,2.4497,2.4497,2.4497,2.4497,2.4497,2.4497,2.4497,2.4497,2.4497,2.4497,2.4497,2.4497,2.4497,2.4497,2.4497,2.4497,2.4332,2.4022,2.3929,2.3701,2.3329,2.2873,2.2635,2.2635,2.2263,2.2025,2.1942,2.1942,2.189,2.4497,2.4497,2.4497,2.4497,2.4497,2.4497,0.0,0.0,2.4497,2.4497,2.4497,2.4497,2.4497,2.4838,2.5117,2.5117,2.5523,2.5947,2.6361,2.6511,2.6687,2.7102,2.6832,2.6781,2.7185,2.7278,2.7309,2.7309,2.7309,2.7309,2.7309,2.7309,2.7309,2.7309,2.7309,2.7309,2.7309,2.7309,2.7309,2.7309,2.7309,2.7309,2.7309,2.7258,2.7226,2.7226,2.7175,2.7154,2.7123,2.6708,2.6542,2.6501,2.6041,2.5858,2.5678,2.5295,2.5117,2.5055,2.4642,2.4497,2.4497,2.4497,2.4497,2.4497,2.4497,2.4497,2.4497,2.4497,2.4497,2.4497,2.4497,2.4497,2.4497,2.4497,2.4497,2.4497,2.4497,2.4497,2.4497,2.4497,2.4497,2.4497,2.4497,2.4497,2.4497,2.4497,2.4497,2.4497,2.4497,2.4497,2.4497,2.4497,2.4497,2.4497,2.4497,2.4497,2.4497,2.4497,2.4497,2.4476,2.4425,2.4084,2.3898,2.3805,2.335,2.3111,2.3111,2.306,2.2822,2.2418,2.2418,2.2201,2.4497,2.4497,0.0,0.0,2.4497,2.4497,2.4497,2.4497,2.4497,2.4497,2.4497,2.458,2.4848,2.5055,2.5272,0.0,2.5989,2.6397,2.6594,2.6853,2.7092,2.7289,2.7133,2.7092,2.7289,2.7309,2.7309,2.7309,2.7309,2.7309,2.7309,2.7309,2.7309,2.7309,2.7309,2.7309,2.7309,2.7309,2.7309,2.7309,2.7309,2.7309,2.7309,2.7309,2.7309,2.7309,2.7309,2.7309,2.7289,2.7102,2.7019,2.6998,2.6801,2.6729,2.6635,2.5875,2.5606,2.5585,2.5388,2.5161,2.49,2.49,2.4714,2.4497,2.4497,2.4497,2.4497,2.4497,2.4497,2.4497,2.4497,2.4497,2.4497,2.4497,2.4497,2.4497,2.4497,2.4497,2.4497,2.4497,2.4497,2.4497,2.4497,2.4497,2.4497,2.4497,2.4497,2.4497,2.4497,2.4497,2.4497,2.4497,2.4497,2.4497,2.4497,2.4497,2.4497,2.4497,2.4497,2.4497,2.4497,2.4321,2.426,2.426,2.3826,2.3588,2.3588,2.3318,2.3091,2.2904,2.2904,2.2791,2.4497,0.0,0.0,2.4497,2.4497,2.4497,2.4497,2.4497,2.4497,2.4497,2.4497,2.4642,2.5096,2.5326,2.5554,2.6044,2.6501,2.6801,2.6801,2.7092,2.7309,2.7309,2.7309,2.7309,2.7309,2.7309,2.7309,2.7309,2.7309,2.7309,2.7309,2.7309,2.7309,2.7309,2.7309,2.7309,2.7309,2.7309,2.7309,2.7309,2.7309,2.7309,2.7309,2.7309,2.7309,2.7309,2.7309,2.7309,2.7309,2.7309,2.7309,2.7309,2.7309,2.7309,2.7226,2.6553,2.6175,2.6096,2.5916,2.5668,2.5409,2.5409,2.5181,2.4912,2.4912,2.4786,2.4683,2.4683,2.46,2.4497,2.4497,2.4497,2.4497,2.4497,2.4497,2.4497,2.4497,2.4497,2.4497,2.4497,2.4497,2.4497,2.4497,2.4497,2.4497,2.4497,2.4497,2.4497,2.4497,2.4497,2.4497,2.4497,2.4497,2.4497,2.4497,2.4497,2.4497,2.4497,2.4497,2.4497,2.4497,2.4497,2.4497,2.4497,2.4229,2.4064,2.4053,2.3722,2.3494,2.3381,2.3381,2.3308,0.0,0.0,2.4497,2.4497,2.4497,2.4497,2.4497,2.4497,2.4497,2.4497,2.4497,2.4642,2.5096,2.5575,2.6009,2.6521,2.6988,2.7289,2.7289,2.7299,2.7309,2.7309,2.7309,2.7309,0.0,2.7309,2.7309,2.7309,2.7309,2.7309,2.7309,2.7309,2.7309,2.7309,2.7309,2.7309,2.7309,2.7309,2.7309,2.7309,2.7309,2.7309,2.7309,2.7309,2.7309,2.7309,2.7309,2.7309,2.7309,2.7309,2.7309,2.7309,2.7309,2.7309,2.7299,2.7278,2.6978,2.6532,2.6086,2.5875,2.5854,2.5854,2.5889,2.5844,2.5844,2.5544,2.5168,2.5168,2.4848,2.4497,2.4497,2.4497,2.4497,2.4497,2.4497,2.4497,2.4497,2.4497,2.4497,2.4497,2.4497,2.4497,2.4497,2.4497,2.4497,2.4497,2.4497,2.4497,2.4497,2.4497,2.4497,2.4497,2.4497,2.4497,2.4497,2.4497,2.4497,2.4497,2.4497,2.4497,2.4497,2.4497,2.4497,2.4497,2.4487,2.4476,2.4476,2.4466,2.4281,2.3857,2.3857,2.3619,0.0,0.0,2.4497,2.4497,2.4497,2.4497,2.4497,2.4497,2.4497,2.4497,2.4497,2.4724,2.5523,2.5782,2.6179,2.6946,2.7206,2.7309,2.7309,2.7309,2.7309,2.7309,2.7309,0.0,0.0,0.0,0.0,2.7309,2.7309,2.7309,2.7309,2.7309,2.7309,2.7309,2.7309,2.7309,2.7309,2.7309,2.7309,2.7309,2.7309,2.7309,2.7309,2.7309,2.7309,2.7309,2.7309,2.7309,2.7309,2.7309,2.7309,2.7309,2.7309,2.7309,2.7309,2.7309,2.7206,2.705,2.6895,2.6646,2.6376,2.6376,2.6123,2.5875,2.5875,2.5771,2.5658,2.5658,2.5544,2.543,2.543,2.543,2.543,2.543,2.5202,2.4952,2.4952,2.4714,2.4497,2.4497,2.4497,2.4497,2.4497,2.4497,2.4497,2.4497,2.4497,2.4497,2.4497,2.4497,2.4497,2.4497,2.4497,2.4497,2.4497,2.4497,2.4497,2.4497,2.4497,2.4497,2.4497,2.4497,2.4497,2.4497,2.4497,2.4497,2.4497,2.4497,2.4425,2.4322,2.4322,2.4197,0.0,2.4497,2.4538,2.4704,2.4621,2.4538,2.4704,2.4621,2.4497,2.4497,2.4497,2.4776,2.5709,2.5875,2.6231,2.7154,2.7309,2.7309,2.7309,2.7309,2.7309,2.7309,2.7309,2.7309,0.0,0.0,0.0,2.7309,2.7309,2.7309,2.7309,2.7309,2.7309,2.7309,2.7309,2.7309,2.7309,2.7309,2.7309,2.7309,2.7309,2.7309,2.7309,2.7309,2.7309,2.7309,2.7309,2.7309,2.7309,2.7309,2.7309,2.7309,2.7309,2.7309,2.7309,2.7309,2.7309,2.7309,2.7309,2.7112,2.6864,2.6864,2.6656,2.6418,2.6418,2.6304,2.6169,2.6169,2.6055,2.5875,2.5875,2.5875,2.5875,2.5875,2.5668,2.5461,2.5461,2.5223,2.4931,2.4776,2.4745,2.4693,2.4528,2.4497,2.4497,2.4497,2.4497,2.4497,2.4497,2.4497,2.4497,2.4497,2.4497,2.4497,2.4497,2.4497,2.4497,2.4497,2.4497,2.4497,2.4497,2.4497,2.4497,2.4497,2.4497,2.4497,2.4497,2.4497,2.4497,2.4497,2.4497,2.4497,2.4528,2.4538,2.4642,2.5106,2.489,2.4673,2.5096,2.4848,2.4528,2.4507,2.4497,2.4766,0.0,0.0,2.6221,2.7123,2.7289,2.7309,2.7309,2.7309,2.7309,0.0,0.0,0.0,0.0,0.0,0.0,2.7372,0.0,2.7309,2.7309,2.7309,2.7309,2.7309,2.7309,2.7309,2.7309,2.7309,2.7309,2.7309,2.7309,2.7309,2.7309,2.7309,2.7309,2.7309,2.7309,2.7309,2.7309,2.7309,2.7309,2.7309,2.7309,2.7309,2.7309,2.7309,2.7309,2.7309,2.7309,2.7309,2.7309,2.7309,2.7309,2.7309,2.7309,2.6998,2.6656,2.6656,2.6335,2.5993,2.5993,2.5993,2.5993,2.5993,2.5927,2.5962,2.5962,2.5941,2.5761,2.5303,2.5199,2.5055,2.4611,2.4518,2.4497,2.4497,2.4497,2.4497,2.4497,2.4497,2.4497,2.4497,2.4497,2.4497,2.4497,2.4497,2.4497,2.4497,2.4497,2.4497,2.4497,2.454,2.4583,2.4583,2.4583,2.4583,2.4583,2.454,2.4497,2.4497,2.454,2.4583,2.4921,2.5013,2.5117,2.5595,2.5627,2.5482,2.523,2.5096,2.491,2.4569,2.4497,2.4673,0.0,0.0,0.0,2.6698,2.7081,0.0,2.7309,2.7309,0.0,2.7309,0.0,2.7444,2.7728,2.7759,0.0,0.0,2.7693,2.7309,2.7309,2.7309,2.7309,2.7309,2.7309,2.7309,2.7309,2.7309,2.7309,2.7309,2.7309,2.7309,2.7309,2.7309,2.7309,2.7309,2.7309,2.7309,2.7309,2.7309,2.7309,2.7309,2.7309,2.7309,2.7309,2.7309,2.7309,2.7309,2.7309,2.7309,2.7309,2.7309,2.7309,2.7309,2.7309,2.7226,2.7133,2.7133,2.705,2.6957,2.6957,2.6957,2.6957,2.6957,2.6687,2.6438,2.6438,2.6169,2.5844,2.573,2.5451,2.5148,2.5034,2.4724,2.4497,2.4497,2.4497,2.4497,2.4497,2.4497,2.4497,2.4497,2.4497,2.4497,2.4497,2.4497,2.4497,2.4497,2.4497,2.4497,2.4497,2.5137,2.5463,2.5463,2.5463,2.5463,2.5463,2.4818,2.4497,2.4497,2.5189,2.5463,2.5117,2.5368,2.5627,2.6072,2.603,2.5813,2.5575,2.5368,2.5055,2.459,2.4497,0.0,0.0,0.0,0.0,0.0,0.0,0.0,2.7309,2.7309,2.7309,0.0,2.7486,0.0,2.7903,2.811,2.8328,0.0,2.8142,2.7852,2.7852,2.7852,2.7759,2.7552,2.7552,2.7458,2.7309,2.7309,2.7309,2.7309,2.7309,2.7309,2.7309,2.7309,2.7309,2.7309,0.0,2.7309,2.7309,2.7309,2.7309,2.7309,2.7309,2.7309,2.7309,2.7309,2.7309,2.7309,2.7309,2.7309,2.7309,2.7309,2.7309,2.7309,2.7309,2.7309,2.7309,2.7309,2.7309,2.7309,2.7309,2.7309,2.7309,2.7309,2.7102,2.6915,2.6915,2.6718,2.647,2.6273,2.5823,2.5513,2.5513,2.5096,2.4797,2.4797,2.4631,2.4497,2.4497,2.4497,2.4497,2.4497,2.4497,2.4497,2.4497,2.4497,2.4497,2.4497,2.4497,2.4497,2.4497,2.4978,2.5421,2.5788,2.5777,2.5777,2.5777,2.5306,2.4861,2.454,2.5379,2.5777,2.5261,2.5637,2.6127,2.6594,2.6356,2.6003,2.5885,2.5544,2.5055,2.459,0.0,2.4621,2.5024,0.0,2.6009,2.6459,0.0,2.7309,2.7309,2.7309,2.733,2.7382,2.7686,2.7976,2.809,2.8473,2.8731,2.8794,2.8794,2.8742,2.8618,2.8618,2.84,2.7886,2.7924,2.7717,2.7309,2.7309,2.7309,2.7309,2.7309,2.7309,2.7309,2.7309,2.7309,2.7309,2.7309,2.7309,2.7309,2.7309,2.7309,2.7309,2.7309,2.7309,2.7309,2.7309,2.7309,2.7309,2.7309,2.7309,2.7309,2.7309,2.7309,2.7309,2.7309,2.7309,2.7309,2.7309,2.7309,2.7309,2.7309,2.7309,2.7309,2.7309,2.7309,2.7309,2.7309,2.7309,2.7185,2.6781,2.6335,2.5968,2.5968,2.5606,2.5251,2.5199,2.4848,2.4569,2.4507,2.4497,2.4497,2.4497,2.4497,2.4497,2.4497,2.4497,2.4497,2.4497,2.4497,2.4497,2.4497,2.4615,2.5062,2.5944,2.5986,2.6027,2.6152,2.6027,2.5589,2.4861,2.5631,2.6027,2.5668,2.6103,2.6604,2.7071,2.6832,2.6397,2.6013,2.5544,0.0,0.0,0.0,2.4518,2.4611,2.5326,0.0,2.6034,0.0,0.0,0.0,0.0,2.7396,0.0,0.0,0.0,0.0,0.0,0.0,0.0,0.0,2.9425,2.8659,2.8618,2.84,2.7886,2.7924,2.7717,2.7309,2.7309,2.7309,2.7309,2.7309,2.7309,2.7309,2.7309,2.7309,2.7309,2.7309,0.0,2.7309,2.7309,2.7309,2.7309,2.7309,2.7309,2.7309,2.7309,2.7309,2.7309,2.7309,2.7309,2.7309,2.7309,2.7309,2.7309,2.7309,2.7309,2.7309,2.7309,2.7309,2.7309,2.7309,2.7309,2.7309,2.7309,2.7309,2.7309,2.7309,2.7309,2.7289,2.7195,2.6812,2.6501,2.6501,2.6072,2.5647,2.5241,2.5117,2.4931,2.4549,2.4497,2.4497,2.4497,2.4497,2.4497,2.4497,2.4497,2.4497,2.4497,2.4497,2.4497,2.4497,2.5179,2.5986,2.6864,2.6864,2.7273,2.8051,2.7273,2.6782,2.6659,2.6823,2.7313,2.5823,2.6438,2.7029,2.7247,2.6957,2.6501,2.6034,0.0,0.0,0.0,0.0,2.4497,2.4497,0.0,0.0,0.0,0.0,0.0,0.0,0.0,0.0,0.0,0.0,0.0,0.0,0.0,0.0,0.0,0.0,2.9798,2.9352,2.9104,2.8866,2.8649,2.8173,2.7821,2.7603,2.7423,2.7309,2.7309,2.7309,2.7309,2.7309,2.7309,2.7309,2.7309,2.7309,2.7309,2.7309,2.7309,2.7309,2.7309,2.7309,2.7309,2.7309,2.7309,2.7309,2.7309,2.7309,2.7309,2.7309,2.7309,2.7309,2.7309,2.7309,2.7309,2.7309,2.7309,2.7309,2.7309,2.7309,2.7309,2.7309,2.7309,2.7309,2.7309,2.7309,2.7309,2.7309,2.7309,2.7123,2.6978,2.6978,2.6594,2.621,2.5958,2.5533,2.5106,2.489,2.505,2.502,2.454,2.4497,2.4497,2.4497,2.4903,2.5179,2.5179,2.5589,2.5841,2.5841,2.6246,2.6894,2.7799,2.7851,2.8051,2.8502,2.8051,2.7597,2.711,2.7597,2.8051,2.5854,2.6532,2.7154,2.7154,2.6812,2.6345,2.5844,2.5399,0.0,0.0,2.4497,2.4497,2.4497,0.0,0.0,0.0,0.0,0.0,0.0,0.0,0.0,0.0,0.0,0.0,0.0,0.0,0.0,0.0,0.0,0.0,2.9994,2.9653,2.9404,2.9301,2.8597,2.8121,2.7924,2.7583,2.7403,2.7309,2.7309,2.7309,2.7309,2.7309,2.7309,2.7309,2.7309,2.7309,2.7309,2.7309,2.7309,2.7309,2.7309,2.7309,2.7309,2.7309,2.7309,2.7309,2.7309,2.7309,2.7309,2.7309,2.7309,2.7309,2.7309,2.7309,2.7309,2.7309,2.7309,2.7309,2.7309,2.7309,2.7309,2.7309,2.7309,2.7309,2.7309,2.7309,2.7309,2.7309,2.7309,2.7309,2.7309,2.7009,2.6729,2.6625,2.5968,2.5451,2.521,2.5648,2.5655,2.4871,2.4946,2.5073,2.5073,2.5673,2.6069,2.6069,2.673,2.711,2.711,2.711,2.7557,2.8502,2.8502,2.8581,2.8791,2.8791,2.8383,2.7678,2.8251,2.8581,2.5771,2.6248,2.6677,2.6677,2.6335,2.5823,2.5344,0.0,0.0,0.0,2.4497,2.4497,2.4497,2.4879,2.5334,0.0,0.0,0.0,0.0,0.0,0.0,0.0,0.0,0.0,0.0,0.0,0.0,0.0,0.0,0.0,2.9994,2.9953,2.9735,2.9321,2.9228,2.8773,2.7935,2.7883,2.7655,2.7309,2.7309,2.7309,2.7309,2.7309,2.7309,2.7309,2.7309,2.7309,0.0,2.7309,2.7309,2.7309,2.7309,2.7309,2.7309,2.7309,2.7309,2.7309,2.7309,2.7309,2.7309,2.7309,2.7309,2.7309,2.7309,2.7309,2.7309,2.7309,2.7309,2.7309,2.7309,2.7309,2.7309,2.7309,2.7309,2.7309,2.7309,2.7309,2.7309,2.7309,2.7309,2.7309,2.7309,2.7268,2.7102,2.6677,2.6542,2.6154,2.5292,2.5936,2.6236,2.5748,2.6412,2.6864,2.6864,2.6946,2.6976,2.6976,2.7069,2.711,2.711,2.711,2.7557,2.8502,2.8502,2.8882,2.9663,2.9663,2.9624,2.9546,2.8831,2.8922,2.544,2.5813,2.62,2.62,2.5813,2.544,2.523,0.0,0.0,2.4497,2.4497,2.4497,2.4497,2.4652,2.5003,0.0,0.0,0.0,0.0,0.0,0.0,0.0,0.0,0.0,0.0,0.0,0.0,0.0,0.0,0.0,2.9994,2.9994,2.9911,2.9725,2.9446,2.899,2.8349,2.8059,2.7696,2.7309,2.7309,2.7309,2.7309,2.7309,2.7309,2.7309,2.7309,0.0,0.0,2.7309,2.7309,2.7309,2.7309,2.7309,2.7309,2.7309,2.7309,2.7309,2.7309,2.7309,2.7309,2.7309,2.7309,2.7309,2.7309,2.7309,2.7309,2.7309,2.7309,2.7309,2.7309,2.7309,2.7309,2.7309,2.7309,2.7309,2.7309,2.7309,2.7309,2.7309,2.7309,2.7309,2.7309,2.7309,2.7247,2.7061,2.6791,2.6664,2.6875,2.7425,2.7864,2.7904,2.7405,2.711,2.711,2.7597,2.7931,2.7931,2.8435,2.8724,2.8724,2.8724,2.8882,2.9287,2.9287,2.9456,2.9792,2.9792,2.9792,2.9792,2.9456,2.9456,2.5148,2.5451,2.5689,2.5689,2.5461,2.5148,0.0,0.0,2.4497,2.4497,2.4497,2.4497,2.4497,2.4497,2.4797,0.0,0.0,0.0,0.0,0.0,0.0,0.0,0.0,0.0,0.0,0.0,0.0,0.0,0.0,0.0,2.9994,2.9994,2.9994,2.9994,2.9684,2.9228,2.8618,2.8286,2.7841,2.7309,2.7309,2.7309,2.7309,2.7309,2.7309,2.7309,2.7309,0.0,0.0,2.7309,2.7309,2.7309,2.7309,2.7309,2.7309,2.7309,2.7309,2.7309,2.7309,2.7309,2.7309,2.7309,2.7309,2.7309,2.7309,2.7309,2.7309,2.7309,2.7309,2.7309,2.7309,2.7309,2.7309,2.7309,2.7309,2.7309,2.7309,2.7309,2.7309,2.7309,2.7309,2.7309,2.7309,2.7309,2.7309,2.7309,2.7029,2.7085,2.7878,2.852,2.9064,2.9491,2.8719,2.8056,2.7903,2.8502,2.887,2.887,2.9456,2.9792,2.9792,2.9792,2.9792,2.9792,2.9792,2.9792,2.9792,2.9792,2.9792,2.9792,2.9792,2.9792,2.5065,2.5189,2.5199,2.5199,2.5189,2.5065,0.0,0.0,2.4497,2.4497,2.4497,2.4497,2.4497,2.4497,2.4797,2.573,0.0,0.0,0.0,0.0,0.0,0.0,0.0,0.0,0.0,0.0,0.0,0.0,0.0,0.0,2.9994,2.9994,2.9994,2.9994,2.9994,2.9539,2.8618,2.8607,2.8152,2.7309,2.7309,2.7309,2.7309,2.7309,2.7309,2.7309,0.0,0.0,0.0,2.7309,2.7309,2.7309,2.7309,2.7309,2.7309,2.7309,2.7309,2.7309,2.7309,2.7309,2.7309,2.7309,2.7309,2.7309,2.7309,2.7309,2.7309,2.7309,2.7309,2.7309,2.7309,2.7309,2.7309,2.7309,2.7309,2.7309,2.7309,2.7309,2.7309,2.7309,2.7309,2.7309,2.7309,2.7309,2.7309,2.7309,2.7299,2.7453,2.7922,2.8768,2.95,3.0044,3.0371,3.0342,2.9803,2.9792,2.9792,2.9792,2.9792,2.9792,2.9792,2.9792,2.9792,2.9792,2.9792,2.9792,2.9792,2.9792,2.9792,2.9792,2.9792,2.9792,2.4673,2.4714,2.4714,2.4714,2.4714,2.4683,2.4528,0.0,2.4497,2.4497,2.4497,2.4497,2.4497,2.4497,2.4797,2.573,0.0,0.0,0.0,0.0,0.0,0.0,0.0,0.0,0.0,0.0,0.0,0.0,0.0,0.0,2.9994,3.0193,3.0193,2.9994,2.9994,2.9704,2.9094,2.8773,2.8307,2.7717,2.7455,2.7309,2.7309,2.7309,2.7309,0.0,0.0,0.0,0.0,2.7309,2.7309,2.7309,2.7309,2.7309,2.7309,2.7309,2.7309,2.7309,2.7309,2.7309,2.7309,2.7309,2.7309,2.7309,2.7309,2.7309,2.7309,2.7309,2.7309,2.7309,2.7309,2.7309,2.7309,2.7309,2.7309,2.7309,2.7309,2.7309,2.7309,2.7309,2.7309,2.7309,2.7309,2.7309,2.7309,2.7309,2.7309,2.784,2.9319,2.9737,3.0343,3.1403,3.1635,3.1336,3.0432,3.0005,2.9792,2.9792,2.9792,2.9792,2.9792,2.9792,2.9792,2.9792,2.9792,2.9792,2.9792,2.9792,2.9792,2.9792,2.9792,2.9792,0.0,2.4497,2.4497,2.4497,2.4497,0.0,0.0,0.0,2.4497,2.4497,2.4497,2.4497,2.4497,2.4497,2.4797,2.573,0.0,0.0,0.0,0.0,0.0,0.0,0.0,0.0,0.0,0.0,0.0,0.0,0.0,0.0,3.0151,3.0297,3.0297,2.9994,2.9994,2.9777,2.9311,2.8845,2.838,2.7914,2.7469,2.7309,2.7309,2.7309,2.7309,0.0,0.0,0.0,0.0,2.7309,2.7309,2.7309,2.7309,2.7309,2.7309,2.7309,2.7309,2.7309,2.7309,2.7309,2.7309,2.7309,2.7309,2.7309,2.7309,2.7309,2.7309,2.7309,2.7309,2.7309,2.7309,2.7309,2.7309,2.7309,2.7309,2.7309,2.7309,2.7309,2.7309,2.7309,2.7309,2.7309,2.7309,2.7309,2.7309,2.7309,2.7573,2.8398,2.9988,3.0486,3.1172,3.2397,3.234,3.1938,3.1273,3.0708,3.0319,3.0118,3.0105,3.0005,2.9804,2.9792,2.9792,2.9792,2.9792,2.9792,2.9792,2.9792,2.9792,2.9792,2.9792,2.9792,0.0,0.0,0.0,0.0,0.0,0.0,0.0,0.0,0.0,2.4497,2.4497,2.4497,2.4497,2.4528,2.4828,2.574,0.0,0.0,0.0,0.0,0.0,0.0,0.0,0.0,0.0,0.0,0.0,0.0,0.0,0.0,3.0443,3.0443,3.0349,3.0047,3.0047,2.9787,2.9352,2.8897,2.8431,2.7917,2.7521,2.734,2.7309,2.7309,2.7309,0.0,0.0,0.0,0.0,2.7309,2.7309,2.7309,2.7309,2.7309,2.7309,2.7309,2.7309,2.7309,2.7309,2.7309,2.7309,2.7309,2.7309,2.7309,2.7309,2.7309,2.7309,2.7309,2.7309,2.7309,2.7309,2.7309,2.7309,2.7309,2.7309,2.7309,2.7309,2.7309,2.7309,2.7309,2.7309,2.7309,2.7309,2.7309,2.7309,2.7309,2.8034,2.8991,3.0079,3.0946,3.1901,3.2982,3.2591,3.2277,3.2277,3.1725,3.1185,3.0708,3.067,3.0432,2.988,2.9854,2.9829,2.9792,2.9792,2.9792,2.9792,2.9792,2.9792,2.9792,2.9792,2.9792,2.4497,0.0,2.4497,2.4497,0.0,0.0,0.0,0.0,0.0,0.0,0.0,0.0,0.0,0.0,0.0,0.0,0.0,0.0,0.0,0.0,0.0,0.0,0.0,0.0,0.0,0.0,0.0,0.0,0.0,3.0972,3.0724,3.092,3.0817,3.0339,3.0297,3.0141,2.9829,2.9373,2.8907,2.8442,2.7986,2.7593,2.7309,2.7309,2.7394,0.0,0.0,0.0,2.7536,2.7357,2.7309,2.7309,2.7309,2.7309,2.7309,2.7309,2.7309,2.7309,2.7309,2.7309,2.7309,2.7309,2.7309,2.7309,2.7309,2.7309,2.7309,2.7309,2.7309,2.7309,2.7309,2.7309,2.7309,2.7309,2.7309,2.7309,2.7309,2.7309,2.7309,2.7309,2.7309,2.7309,2.7309,2.7309,2.7309,2.7309,2.7489,2.8258,2.9988,3.0396,3.1169,3.2939,3.2955,3.2867,3.2867,3.1964,3.1336,3.1223,3.121,3.0972,3.0444,3.0419,3.0218,2.9804,2.9792,2.9792,2.9792,2.9792,2.9792,2.9792,2.9792,2.9792,2.4497,2.4497,2.4497,2.4497,2.4497,2.4497,0.0,0.0,0.0,0.0,0.0,0.0,0.0,0.0,0.0,0.0,0.0,0.0,0.0,0.0,0.0,0.0,0.0,0.0,0.0,0.0,0.0,0.0,0.0,3.1281,3.0983,3.1127,3.0961,3.0443,3.0505,3.0401,2.9994,2.9539,2.9073,2.8607,2.8142,2.7686,2.7309,2.7404,2.7499,0.0,0.0,0.0,2.7773,2.7536,2.7452,2.7441,2.7357,2.7309,2.7309,2.7309,2.7309,2.7309,2.7309,2.7309,2.7309,2.7309,2.7309,2.7309,2.7309,2.7309,2.7309,2.7309,2.7309,2.7309,2.7309,2.7309,2.7309,2.7309,2.7309,2.7309,2.7309,2.7309,2.7309,2.7309,2.7309,2.7309,2.7309,2.7309,2.7309,2.7309,2.8081,2.8991,3.0079,3.0991,3.1933,3.2982,3.3124,3.3124,3.3124,3.2516,3.2051,3.1788,3.1763,3.1524,3.0997,3.0972,3.0721,3.0181,3.0168,3.0043,2.9792,2.9792,2.9792,2.9792,2.9792,2.9792,2.4497,2.4497,2.4497,2.4497,2.4497,2.4497,0.0,0.0,0.0,0.0,0.0,0.0,0.0,0.0,0.0,0.0,0.0,0.0,0.0,0.0,0.0,0.0,0.0,0.0,0.0,0.0,0.0,0.0,0.0,3.1527,3.1281,3.127,3.1013,3.0547,3.0713,3.062,3.0151,2.9704,2.9247,2.8668,2.8263,2.7855,2.7394,2.7536,2.7631,2.7726,0.0,0.0,2.8045,2.7726,2.7584,2.7584,2.7404,2.7309,2.7309,2.7309,2.7309,2.7357,2.7394,2.7394,2.7357,2.7357,2.7309,2.7309,2.7309,2.7309,2.7309,2.7357,2.7299,2.7309,2.7309,2.7309,2.7309,2.7309,2.7309,2.7309,2.7309,2.7309,2.7309,2.7309,2.7309,2.7309,2.7309,2.7309,2.7357,2.7489,2.8899,3.0079,3.0396,3.1845,3.2939,3.3068,3.3124,3.3124,3.3124,3.3124,3.2867,3.2378,3.234,3.2089,3.1537,3.1436,3.1185,3.0746,3.0733,3.0507,3.003,2.9955,2.9917,2.9917,2.9829,2.9792,2.4497,2.4497,2.4497,2.4497,2.4497,2.4497,0.0,0.0,0.0,0.0,0.0,0.0,0.0,0.0,0.0,0.0,0.0,0.0,0.0,0.0,0.0,0.0,0.0,0.0,0.0,0.0,0.0,0.0,0.0,3.1567,3.1516,3.1527,3.1373,3.1075,3.1127,3.0972,3.0672,3.0608,3.003,2.8938,2.8883,2.8488,2.7904,2.7678,2.7831,2.8254,0.0,2.8149,2.8301,2.782,2.7584,2.7584,2.7404,2.7309,2.7309,2.7309,2.7404,2.7594,2.7809,2.7715,2.7536,2.7536,2.7452,2.7309,2.7309,2.7309,2.7357,2.7489,2.7441,2.7309,2.7309,2.7309,2.7309,2.7309,2.7309,2.7309,2.7309,2.7309,2.7309,2.7309,2.7309,2.7309,2.7309,2.7309,2.7584,2.8362,2.8724,2.9532,3.1169,3.1669,3.2164,3.3025,3.3124,3.3124,3.3124,3.3124,3.3043,3.2955,3.2943,3.2692,3.2102,3.1637,3.1348,3.1273,3.1273,3.1235,3.1148,3.0708,3.0495,3.0482,3.0005,2.9792,2.4497,2.4497,2.4497,2.4497,2.4497,2.4497,0.0,0.0,0.0,0.0,0.0,0.0,0.0,0.0,0.0,0.0,0.0,0.0,0.0,0.0,0.0,0.0,0.0,0.0,0.0,0.0,0.0,0.0,0.0,0.0,3.1618,3.1618,3.1476,3.123,3.1322,3.1111,3.0455,3.0689,3.0295,2.9215,2.8951,2.8561,2.7998,2.8008,2.816,2.8395,0.0,2.8513,2.8581,2.8196,2.8019,2.8019,2.7773,2.7678,2.7678,2.7678,2.7715,2.7809,2.7951,2.7904,2.7773,2.7631,2.7536,2.7452,2.7309,2.7309,2.7357,2.7536,2.7452,2.7309,2.7441,2.7404,2.7309,2.7309,2.7309,2.7309,2.7452,2.7404,2.7309,2.7452,2.7357,2.7309,2.7309,2.7309,2.7452,2.7857,2.8852,2.9852,3.0711,3.1757,3.2581,3.3038,3.3124,3.3124,3.3124,3.3124,3.3124,3.3124,3.3124,3.2998,3.2692,3.2428,3.2152,3.1838,3.1838,3.1687,3.1386,3.1148,3.1035,3.1035,3.0771,3.0658,2.4497,2.4497,2.4497,2.4497,0.0,0.0,0.0,0.0,0.0,0.0,0.0,0.0,0.0,0.0,0.0,0.0,0.0,0.0,0.0,0.0,0.0,0.0,0.0,0.0,0.0,0.0,0.0,0.0,0.0,0.0,3.2015,3.1964,3.1717,3.1159,3.1353,3.1023,3.0117,3.0426,3.0138,2.9351,2.8978,2.8598,2.8186,2.8337,2.8441,2.8488,2.871,2.8803,2.8757,2.8488,2.8395,2.8395,2.8092,2.7998,2.7998,2.8092,2.8092,2.8092,2.8186,2.8139,2.8045,2.7867,2.7689,2.7584,2.7404,2.7357,2.7404,2.7631,2.7584,2.7489,2.7584,2.7499,2.7357,2.7309,2.7309,2.7357,2.7547,2.7499,2.7404,2.7584,2.7499,2.7357,2.7309,2.7309,2.7357,2.7584,2.8899,2.9988,3.0486,3.1845,3.2853,3.3068,3.3124,3.3124,3.3124,3.3124,3.3124,3.3124,3.3124,3.3124,3.3124,3.3124,3.2867,3.2416,3.2416,3.2202,3.1788,3.165,3.1587,3.1574,3.1449,3.1386,2.4497,2.4497,2.4497,2.4497,2.4497,0.0,2.4497,2.4828,0.0,0.0,0.0,0.0,0.0,0.0,0.0,0.0,0.0,0.0,0.0,0.0,0.0,0.0,0.0,0.0,0.0,0.0,0.0,0.0,0.0,0.0,3.3151,3.3101,3.2447,3.0963,3.0952,3.0734,3.0215,2.9816,2.9432,2.9112,2.908,2.8953,2.8746,2.8488,2.8535,2.8757,2.8803,2.8803,2.8757,2.8488,2.8395,2.8395,2.8092,2.7998,2.8034,2.829,2.8395,2.8395,2.8664,2.8571,2.8348,2.8348,2.8019,2.7584,2.7584,2.7584,2.7631,2.7904,2.7951,2.7904,2.7678,2.7594,2.7547,2.7357,2.7309,2.7357,2.7547,2.7594,2.7584,2.7584,2.7594,2.7536,2.7309,2.7309,2.7584,2.8456,2.8724,2.9452,3.1258,3.1625,3.2077,3.2982,3.3124,3.3124,3.3124,3.3124,3.3124,3.3124,3.3124,3.3124,3.3124,3.3124,3.3056,3.3061,3.3061,3.3036,3.2998,3.2416,3.2152,3.2139,3.1625,3.1386,2.4497,2.4497,2.4497,2.4497,2.4714,0.0,0.0,2.5065,2.5388,0.0,0.0,0.0,0.0,0.0,0.0,0.0,0.0,0.0,0.0,0.0,0.0,0.0,0.0,0.0,0.0,0.0,0.0,0.0,0.0,0.0,3.3705,3.3061,3.2305,3.1379,3.0756,3.0242,2.9762,2.9576,2.9288,2.8889,2.8889,2.8885,2.8803,2.871,2.871,2.8803,2.8803,2.8803,2.8803,2.871,2.8664,2.8617,2.8524,2.8513,2.8513,2.8617,2.8664,2.8664,2.8757,2.871,2.8617,2.8441,2.8254,2.8055,2.7914,2.7857,2.7904,2.8149,2.8243,2.8196,2.7904,2.7726,2.7536,2.7357,2.7309,2.7404,2.7762,2.7726,2.7689,2.8019,2.7831,2.7594,2.7499,2.7394,2.7441,2.7762,2.8315,2.8956,2.9715,3.0857,3.1757,3.212,3.2711,3.3124,3.3124,3.3124,3.3124,3.3124,3.3124,3.3124,3.3124,3.3124,3.3124,3.3124,3.3124,3.3124,3.3124,3.2855,3.2754,3.2742,3.2528,3.2483,2.4497,2.4497,2.4497,0.0,0.0,0.0,2.5409,2.5554,0.0,0.0,0.0,0.0,0.0,0.0,0.0,0.0,0.0,0.0,0.0,0.0,0.0,0.0,0.0,0.0,0.0,0.0,0.0,0.0,0.0,0.0,0.0,3.3528,3.2629,3.1431,3.0765,3.0065,2.9307,2.9296,2.9132,2.8803,2.8803,2.8803,2.8803,2.8803,2.8803,2.8803,2.8803,2.8803,2.8803,2.8803,2.8803,2.8803,2.8803,2.8803,2.8803,2.8803,2.8803,2.8803,2.8803,2.8803,2.8757,2.8581,2.8488,2.8348,2.8196,2.8149,2.8149,2.8348,2.8441,2.8477,2.8196,2.7914,2.7678,2.7452,2.7404,2.7489,2.7904,2.7904,2.7961,2.8348,2.8055,2.7678,2.7631,2.7441,2.7309,2.7309,2.7857,2.8409,2.8771,3.017,3.1403,3.1989,3.2711,3.3124,3.3124,3.3124,3.3124,3.3124,3.3124,3.3124,3.3124,3.3124,3.3124,3.3124,3.3124,3.3124,3.3124,3.3124,3.3111,3.3197,3.3111,3.3111,2.4497,2.4497,2.4497,0.0,0.0,0.0,0.0,0.0,0.0,0.0,0.0,0.0,0.0,0.0,0.0,0.0,0.0,0.0,0.0,0.0,0.0,0.0,0.0,0.0,0.0,0.0,0.0,0.0,0.0,0.0,0.0,3.4585,3.3439,3.0985,3.0928,3.0235,2.885,2.8803,2.8803,2.8803,2.8803,2.8803,2.8803,2.8803,2.8803,2.8803,2.8803,2.8803,2.8803,2.8803,2.8803,2.8803,2.8803,2.8803,2.8803,2.8803,2.8803,2.8803,2.8803,2.8803,2.8803,2.8803,2.8617,2.8395,2.8395,2.8395,2.8395,2.8395,2.8617,2.8757,2.8488,2.8196,2.7951,2.7678,2.7584,2.7678,2.7951,2.8196,2.8395,2.8395,2.8196,2.7904,2.7631,2.7452,2.7309,2.7309,2.7309,2.7762,2.8945,2.9761,3.0946,3.2896,3.3124,3.3124,3.3124,3.3124,3.3124,3.3124,3.3124,3.3124,3.3124,3.3124,3.3124,3.3124,3.3124,3.3124,3.3124,3.3124,3.3197,3.3398,3.3197,3.3197,2.6008,2.5872,0.0,0.0,0.0,0.0,0.0,0.0,0.0,0.0,0.0,0.0,0.0,0.0,0.0,0.0,0.0,0.0,0.0,0.0,0.0,0.0,0.0,0.0,0.0,0.0,0.0,0.0,0.0,0.0,0.0,3.4464,3.3557,3.2404,3.1728,3.121,3.0789,3.0125,2.9772,2.9772,2.9106,2.8803,2.8803,2.8803,2.8803,2.8803,2.8803,2.8803,2.8803,2.8803,2.8803,2.8803,2.8803,2.8803,2.8803,2.8803,2.8803,2.8803,2.8803,2.8803,2.8803,2.8803,2.8757,2.8664,2.8664,2.8664,2.8664,2.8664,2.8757,2.8803,2.871,2.8477,2.8196,2.7951,2.7726,2.7726,2.8196,2.8196,2.8233,2.8617,2.8477,2.8196,2.7951,2.7678,2.7441,2.7309,2.7309,2.7987,2.9829,3.0294,3.1169,3.3086,3.3197,3.3124,3.3124,3.3124,3.3124,3.3124,3.324,3.324,3.3124,3.3124,3.3124,3.3124,3.3124,3.3124,3.3124,3.3124,3.3197,3.3398,3.3356,3.3441,2.6987,0.0,0.0,0.0,0.0,0.0,0.0,0.0,0.0,0.0,0.0,0.0,0.0,0.0,0.0,0.0,0.0,0.0,0.0,0.0,0.0,0.0,0.0,0.0,0.0,0.0,0.0,0.0,0.0,0.0,0.0,3.4397,3.3746,3.3036,3.2451,3.1972,3.1621,3.1045,3.0564,3.017,2.9646,2.9152,2.8803,2.8803,2.8803,2.8803,2.8803,2.8803,2.8803,2.8803,2.8803,2.8803,2.8803,2.8803,2.8803,2.8803,2.8803,2.8803,2.8803,2.8803,2.8803,2.8803,2.8803,2.8803,2.8803,2.8803,2.8803,2.8803,2.8803,2.8803,2.8803,2.8664,2.8477,2.8243,2.8055,2.8019,2.8348,2.8337,2.842,2.8757,2.8571,2.8348,2.8196,2.7867,2.7547,2.7452,2.7489,2.8164,2.9738,3.0474,3.1347,3.2686,3.3056,3.3197,3.3124,3.3124,3.3111,3.3197,3.3313,3.3356,3.324,3.324,3.3197,3.3124,3.3124,3.3154,3.324,3.324,3.3368,3.3696,3.3556,3.3416,2.7706,0.0,0.0,0.0,0.0,0.0,0.0,0.0,0.0,0.0,0.0,0.0,0.0,0.0,0.0,0.0,0.0,0.0,0.0,0.0,0.0,0.0,0.0,0.0,0.0,0.0,0.0,0.0,0.0,0.0,0.0,3.4397,3.4008,3.3164,3.3122,3.2722,3.184,3.1753,3.1267,3.0351,3.026,2.9726,2.8803,2.8803,2.8803,2.8803,2.8803,2.8803,2.8803,2.8803,2.8803,2.8803,2.8803,2.8803,2.8803,2.8803,2.8803,2.8803,2.8803,2.8803,2.8803,2.8803,2.8803,2.8803,2.8803,2.8803,2.8803,2.8803,2.8803,2.8803,2.8803,2.8803,2.8757,2.8488,2.8395,2.8395,2.8441,2.8617,2.8757,2.8803,2.8617,2.8441,2.8395,2.8019,2.7678,2.7594,2.7809,2.8269,2.9026,3.0396,3.148,3.1977,3.2871,3.3313,3.3124,3.3124,3.3197,3.3356,3.3398,3.3398,3.327,3.3356,3.3313,3.3124,3.3124,3.324,3.3398,3.3441,3.3654,3.4076,3.3852,3.336,0.0,2.9094,0.0,0.0,0.0,0.0,0.0,0.0,0.0,0.0,0.0,0.0,0.0,0.0,0.0,0.0,0.0,0.0,0.0,0.0,0.0,0.0,0.0,0.0,0.0,0.0,0.0,0.0,0.0,0.0,3.4397,3.4397,3.4314,3.4092,3.4092,3.3995,3.3784,3.3079,3.2246,0.0,3.0564,2.9726,2.8803,2.8803,2.8803,2.8803,2.8803,2.8803,2.8803,2.8803,2.8803,2.8803,2.8803,2.8803,2.8803,2.8803,2.8803,2.8803,2.8803,2.8803,2.8803,2.8803,2.8803,2.8803,2.8803,2.8803,2.8803,2.8803,2.8803,2.8803,2.8803,2.8803,2.8803,2.871,2.8535,2.8441,2.8664,2.8571,2.8535,2.8757,2.8757,2.8664,2.8441,2.8301,2.8113,2.7678,2.7809,2.8305,2.9235,3.0474,3.1524,3.2183,3.2945,3.3313,3.3124,3.3124,3.3124,3.3154,3.3484,3.3245,3.2339,3.3,3.3313,3.3124,3.3283,3.3356,3.3398,3.3556,3.381,3.4118,3.4034,3.3628,0.0,0.0,0.0,0.0,0.0,0.0,0.0,0.0,0.0,0.0,0.0,0.0,0.0,0.0,0.0,0.0,0.0,0.0,0.0,0.0,0.0,0.0,0.0,0.0,0.0,0.0,0.0,0.0,0.0,3.4397,3.4397,3.4397,3.4397,3.4397,3.4397,3.4397,3.4397,3.3911,3.298,3.1577,3.1089,3.0125,2.8803,2.8803,2.8803,2.8803,2.8803,2.8803,2.8803,2.8803,2.8803,2.8803,2.8803,2.8803,2.8803,2.8803,2.8803,2.8803,2.8803,2.8803,2.8803,2.8803,2.8803,2.8803,2.8803,2.8803,2.8803,2.8803,2.8803,2.8803,2.8803,2.8803,2.8803,2.8803,2.871,2.8617,2.8757,2.871,2.8617,2.8757,2.8803,2.8833,2.8922,2.9018,2.8844,2.8238,2.8243,2.8479,2.8885,2.9897,3.0711,3.1057,3.1877,3.2413,3.2568,3.2568,3.2754,3.324,3.3513,3.3416,3.2846,3.2988,3.2729,3.2077,3.2152,3.2283,3.237,3.2488,3.2661,3.2907,3.2907,3.2476,0.0,0.0,0.0,0.0,0.0,0.0,0.0,0.0,0.0,0.0,0.0,0.0,0.0,0.0,0.0,0.0,0.0,0.0,0.0,0.0,0.0,0.0,0.0,0.0,0.0,0.0,0.0,0.0,0.0,3.4397,3.4397,3.4397,3.4397,3.4397,3.4397,3.4397,3.4397,3.4397,3.356,3.184,3.1665,3.0609,2.8803,2.8978,2.8932,2.8803,2.8803,2.8803,2.8803,2.8803,2.8803,2.8803,2.8803,2.8803,2.8803,2.8803,2.8803,2.8803,2.8803,2.8803,2.8803,2.8803,2.8803,2.8803,2.8803,2.8803,2.8803,2.8803,2.8803,2.8803,2.8803,2.8803,2.8803,2.8803,2.8803,2.8803,2.8803,2.8803,2.8803,2.8803,2.8869,2.9077,2.9521,2.9732,2.9607,2.8978,2.8876,2.8764,2.8531,2.932,2.9908,2.9818,3.0711,3.1436,3.1713,3.1757,3.2064,3.2815,3.3061,3.3147,3.2963,3.2618,3.1821,3.067,3.0859,3.108,3.1303,3.1347,3.1424,3.1621,3.1621,3.1101,0.0,0.0,0.0,0.0,0.0,0.0,0.0,0.0,0.0,0.0,0.0,0.0,0.0,0.0,0.0,0.0,0.0,0.0,0.0,0.0,0.0,0.0,0.0,0.0,0.0,0.0,0.0,0.0,3.4397,3.4397,3.4397,3.4397,3.4397,3.4397,3.4397,3.4397,3.4397,3.4397,3.3869,3.2809,3.1972,3.0609,2.885,2.9635,2.9555,2.8803,2.8803,2.8803,2.8803,2.8803,2.8803,2.8803,2.8803,2.8803,2.8803,2.8803,2.8803,2.8803,2.8803,2.8803,2.8803,2.8803,2.8803,2.8803,2.8803,2.8803,2.8803,2.8803,2.8803,2.8803,2.8803,2.8803,2.8803,2.8803,2.8803,2.8803,2.8803,2.8803,2.8803,2.8803,2.9142,2.9543,3.0035,2.9959,2.9774,2.965,2.9464,2.9255,2.9036,2.9831,3.0248,2.9852,3.0711,3.1125,3.0722,3.0722,3.0666,3.0621,3.1024,3.0902,3.0102,3.0744,3.0697,2.97,3.073,3.1258,3.1303,3.1456,3.1577,3.1621,3.1621,3.1101,0.0,0.0,0.0,0.0,0.0,0.0,0.0,0.0,0.0,0.0,0.0,0.0,0.0,0.0,0.0,0.0,0.0,0.0,0.0,0.0,0.0,0.0,0.0,0.0,0.0,0.0,0.0,0.0,3.4397,3.4397,3.4397,3.4397,3.4397,3.4397,3.4397,3.4397,3.4397,3.4397,3.3911,3.298,3.1533,3.0654,3.0339,2.9726,2.9198,2.8803,2.8803,2.8803,2.8803,2.8803,2.8803,2.8803,2.8803,2.8803,2.8803,2.8803,2.8803,2.8803,2.8803,2.8803,2.8803,2.8803,2.8803,2.8803,2.8803,2.8803,2.8803,2.8803,2.8803,2.8803,2.8803,2.8803,2.8803,2.8803,2.8803,2.8803,2.8803,2.8803,2.888,2.9153,2.9554,3.0046,3.0515,3.071,3.0647,3.0227,2.9956,2.9746,2.9532,2.9737,2.9818,2.9664,3.0017,3.0216,3.0114,3.0,3.0057,3.0351,3.0711,3.0722,3.0283,3.0445,3.0331,2.9881,3.0168,3.0295,3.0295,3.0137,3.0034,3.0034,3.0034,2.9818,0.0,0.0,0.0,0.0,0.0,0.0,0.0,0.0,0.0,0.0,0.0,0.0,0.0,0.0,0.0,0.0,0.0,0.0,0.0,0.0,0.0,0.0,0.0,0.0,0.0,0.0,0.0,0.0,3.4397,3.4397,3.4397,3.4397,3.4397,3.4397,3.4397,3.4397,3.4397,3.4397,3.3911,3.2993,3.1797,3.14,3.1577,3.0396,2.9726,2.9509,2.9024,2.8803,2.8803,2.8803,2.8803,2.8803,2.8803,2.8803,2.8803,2.8803,2.8803,2.8803,2.8803,2.8803,2.8803,2.8803,2.8803,2.8803,2.8803,2.8803,2.8803,2.8803,2.8803,2.8803,2.8803,2.8803,2.8803,2.8803,2.8803,2.8803,2.8803,2.8803,2.8978,2.9543,2.9958,3.0395,3.0985,3.1389,3.1396,3.0835,3.0539,3.0327,3.0115,2.9842,2.9659,2.967,2.9674,2.9646,2.9652,2.9479,2.9516,2.9818,3.0136,3.0272,3.0272,3.0125,3.001,3.001,2.9659,2.9489,2.9489,2.9164,2.8989,2.8989,2.8989,2.8924,0.0,0.0,0.0,0.0,0.0,0.0,0.0,0.0,0.0,0.0,0.0,0.0,0.0,0.0,0.0,0.0,0.0,0.0,0.0,0.0,0.0,0.0,0.0,0.0,0.0,0.0,0.0,0.0,3.4397,3.4397,3.4397,3.4397,3.4397,3.4397,3.4397,3.4397,3.4397,3.4397,3.3911,3.3023,3.3784,3.3292,3.1621,3.242,3.2277,3.1356,2.9543,2.8803,2.8803,2.8803,2.8803,2.8803,2.8803,2.8803,2.8803,2.8803,2.8803,2.8803,2.8803,2.8803,2.8803,2.8803,2.8803,2.8803,2.8803,2.8803,2.8803,2.8803,2.8803,2.8803,2.8803,2.8803,2.8803,2.8803,2.8803,2.8803,2.8803,2.8803,2.9077,2.9991,3.0188,3.0504,3.1433,3.1607,3.1567,3.1534,3.1289,3.1065,3.0869,3.0615,3.0392,3.0171,3.0177,2.9883,2.9202,2.9132,2.8832,2.816,2.8384,2.8535,2.8535,2.9205,2.954,2.954,2.9514,2.9489,2.9489,2.9456,2.9445,2.9445,2.9445,2.9252,0.0,0.0,0.0,0.0,0.0,0.0,0.0,0.0,0.0,0.0,0.0,0.0,0.0,0.0,0.0,0.0,0.0,0.0,0.0,0.0,0.0,0.0,0.0,0.0,0.0,0.0,0.0,0.0,0.0,3.4397,3.4397,3.4397,3.4397,3.4397,3.4397,3.4397,3.4397,3.4397,3.4217,3.3911,3.3645,3.3462,3.3377,3.2494,3.2234,3.242,3.1134,3.0609,3.0564,2.9954,2.9681,2.9635,2.9024,2.8803,2.8803,2.8803,2.8803,2.8803,2.8803,2.8803,2.8803,2.8803,2.8803,2.8803,2.8803,2.8803,2.8803,2.8803,2.8803,2.8803,2.8803,2.8803,2.8803,2.8803,2.8803,2.8803,2.8803,2.9044,2.9423,3.0089,3.045,3.0854,3.1509,3.1618,3.1516,3.1373,3.127,3.1114,3.085,3.092,3.0788,3.0413,3.0558,3.0411,2.9845,2.9386,2.8993,2.8715,2.852,2.8395,2.8395,2.8838,2.9066,2.9066,2.9066,2.9219,2.9489,2.9489,2.9489,2.9489,2.9805,2.986,0.0,0.0,0.0,0.0,0.0,0.0,0.0,0.0,0.0,0.0,0.0,0.0,0.0,0.0,0.0,0.0,0.0,0.0,0.0,0.0,0.0,0.0,0.0,0.0,0.0,0.0,0.0,0.0,0.0,0.0,3.4397,3.4397,3.4397,3.4397,3.4397,3.4397,3.4397,3.4397,3.4397,3.4397,3.3784,3.3784,3.4356,3.3122,3.2895,3.3433,3.2809,3.219,3.1533,3.0923,3.0474,3.0125,2.9509,2.9071,2.8803,2.8803,2.8803,2.8803,2.8803,2.8803,2.8803,2.8803,2.8803,2.8803,2.8803,2.8803,2.8803,2.8803,2.8803,2.8803,2.8803,2.8803,2.8803,2.8803,2.8803,2.8847,2.9011,2.9296,2.9631,3.0122,3.0581,3.105,3.1542,3.1618,3.1527,3.1373,3.1322,3.123,3.0983,3.1178,3.1203,3.0788,3.0997,3.0952,3.0482,3.0008,2.9661,2.9461,2.9044,2.8773,2.8773,2.8798,2.8803,2.8803,2.8803,2.8957,2.9285,2.9401,2.9489,2.95,2.9991,3.0209,0.0,0.0,0.0,0.0,0.0,0.0,0.0,0.0,0.0,0.0,0.0,0.0,0.0,0.0,0.0,0.0,0.0,0.0,0.0,0.0,0.0,0.0,0.0,0.0,0.0,0.0,0.0,0.0,3.4397,3.4397,3.4397,3.4397,3.4397,3.4397,3.4397,3.4397,3.4397,3.4397,3.4397,3.4397,3.4397,3.4397,3.4397,3.4397,3.4397,3.4397,3.4397,3.3377,3.1665,3.1665,3.1089,3.026,3.0215,2.9635,2.885,2.8803,2.8803,2.8803,2.8803,2.8803,2.8803,2.8803,2.8803,2.8803,2.8803,2.8803,2.8803,2.8803,2.8803,2.8803,2.8803,2.8803,2.8803,2.8803,2.8803,2.8935,2.9358,2.9489,2.9652,3.0144,3.0603,3.1072,3.1542,3.1618,3.1618,3.1618,3.1618,3.1527,3.1219,3.1424,3.1476,3.123,3.1424,3.1433,3.0952,3.0898,3.0701,3.0264,2.9773,2.95,2.95,2.9099,2.8836,2.8836,2.8836,2.8836,2.8847,2.9259,2.9489,2.95,3.0002,3.0231,3.0986,0.0,0.0,0.0,0.0,0.0,0.0,0.0,0.0,0.0,0.0,0.0,0.0,0.0,0.0,0.0,0.0,0.0,0.0,0.0,0.0,0.0,0.0,0.0,0.0,0.0,0.0,0.0,3.4397,3.4397,3.4397,3.4397,3.4397,3.4397,3.4397,3.4397,3.4397,3.4397,3.4397,3.4397,3.4397,3.4397,3.4397,3.4397,3.4397,3.4397,3.4397,3.4092,3.356,3.2895,3.2451,3.2103,3.0744,3.0034,2.9726,2.9071,2.8803,2.8803,2.8803,2.8803,2.8803,2.8803,2.8803,2.8803,2.8803,2.8803,2.8803,2.8803,2.8803,2.8803,2.8803,2.8803,2.8803,2.8803,2.8803,2.8836,2.8978,2.951,3.0155,3.0614,3.1094,3.1465,3.1597,3.1618,3.1618,3.1618,3.1618,3.1527,3.1219,3.1424,3.1476,3.123,3.1424,3.1575,3.1433,3.1105,3.0843,3.0712,3.0275,3.0013,3.0013,2.9882,2.9805,2.9805,2.9805,2.9805,2.9805,2.9587,2.9489,2.95,3.0319,3.0701,0.0,0.0,0.0,0.0,0.0,0.0,3.0986,3.0986,3.0986,0.0,0.0,0.0,0.0,0.0,0.0,0.0,0.0,0.0,0.0,0.0,0.0,0.0,0.0,0.0,0.0,3.4397,3.4397,3.4397,3.4397,3.4397,3.4397,3.4397,3.4397,3.4397,3.4397,3.4397,3.4397,3.4397,3.4397,3.4397,3.4397,3.4397,3.4397,3.4397,3.4397,3.4397,3.4397,3.4397,3.4356,3.3827,3.3335,3.2895,3.1797,3.1134,3.0744,3.017,2.9726,2.9371,2.9371,2.9106,2.8803,2.8803,2.8803,2.8803,2.8803,2.8803,2.8803,2.8803,2.8803,2.8803,2.8803,2.8803,2.8803,2.8803,2.8803,2.8858,2.9066,2.95,3.0046,3.0526,3.116,3.1618,3.1618,3.1618,3.1618,3.1618,3.1618,3.1527,3.1219,3.1424,3.1476,3.123,3.1424,3.1618,3.1618,3.1367,3.1203,3.1203,3.0756,3.0493,3.0493,3.0308,3.0209,3.0209,3.0209,3.0209,3.0209,2.9718,2.9489,2.95,3.0046,3.0515,0.0,0.0,0.0,0.0,0.0,0.0,3.0986,3.0986,3.0986,3.0986,0.0,0.0,0.0,0.0,0.0,0.0,0.0,0.0,0.0,0.0,0.0,0.0,0.0,0.0,3.4162,3.4267,3.4306,3.4306,3.4358,3.4397,3.4397,3.4397,3.4397,3.4397,3.4397,3.4397,3.4397,3.4397,3.4397,3.4397,3.4397,3.4397,3.4397,3.4397,3.4397,3.4397,3.4397,3.4397,3.4397,3.4397,3.3911,3.3164,3.3036,3.2506,3.1753,3.1621,3.1089,3.0351,3.0351,2.9818,2.9106,2.8978,2.8978,2.8932,2.885,2.8803,2.8803,2.8932,2.9024,2.9106,2.8978,2.8978,2.8932,2.8803,2.8803,2.8924,2.9314,2.9445,2.9609,3.0046,3.0898,3.1564,3.1567,3.1618,3.1618,3.1618,3.1618,3.1516,3.1281,3.1476,3.1527,3.1281,3.1476,3.1618,3.1618,3.1618,3.1618,3.1618,3.1214,3.0974,3.0974,3.0581,3.0373,3.0373,3.0373,3.0341,3.0286,2.9805,2.9532,2.9489,2.9532,2.9991,0.0,0.0,0.0,0.0,0.0,0.0,3.0986,3.0986,3.0986,0.0,0.0,0.0,0.0,0.0,0.0,0.0,0.0,0.0,0.0,0.0,0.0,0.0,0.0,0.0,3.3012,3.347,3.3757,3.3757,3.4162,3.4397,3.4397,3.4397,3.4397,3.4397,3.4397,3.4397,3.4397,3.4397,3.4397,3.4397,3.4397,3.4397,3.4397,3.4397,3.4397,3.4397,3.4397,3.4397,3.4397,3.4397,3.4301,3.4037,3.3292,3.2895,3.2636,3.1884,3.1488,3.1311,3.1311,3.1223,3.0923,3.017,2.9943,2.9772,2.9024,2.8803,2.8978,2.9726,3.0474,3.0878,3.0125,2.9943,2.9726,2.8978,2.8803,2.8825,2.8924,2.9252,2.951,2.9609,3.0384,3.116,3.1553,3.1618,3.1618,3.1618,3.1618,3.1567,3.1527,3.1567,3.1578,3.1527,3.1567,3.1618,3.1618,3.1618,3.1618,3.1618,3.1531,3.1487,3.1487,3.14,3.1345,3.1345,3.1345,3.116,3.0756,3.0297,2.9871,2.9489,2.9893,2.9958,0.0,0.0,0.0,3.0986,0.0,0.0,0.0,3.0986,3.0986,3.0986,0.0,0.0,0.0,0.0,0.0,0.0,0.0,0.0,0.0,0.0,0.0,0.0,0.0,0.0,3.2659,3.296,3.3273,3.3574,3.4097,3.4397,3.4397,3.4397,3.4397,3.4397,3.4397,3.4397,3.4397,3.4397,3.4397,3.4397,3.4397,3.4397,3.4397,3.4397,3.4397,3.4397,3.4397,3.4397,3.4397,3.4397,3.4397,3.4356,3.3869,3.3687,3.3645,3.3164,3.2679,3.2277,3.2277,3.1972,3.1444,3.0519,3.0215,3.0125,2.9635,2.9818,3.0306,3.0789,3.1235,3.1488,3.1012,3.0564,3.0215,3.0215,2.9463,2.8932,2.9417,2.9305,2.9241,2.9434,3.0067,3.0701,3.1181,3.1465,3.1618,3.1618,3.1618,3.1618,3.1618,3.1618,3.1618,3.1618,3.1618,3.1618,3.1618,3.1618,3.1618,3.1618,3.2117,3.2167,3.1618,3.2117,3.2167,3.1618,3.1618,3.1498,3.1258,3.1029,3.0548,2.9849,3.0611,3.1001,0.0,0.0,0.0,0.0,0.0,3.0986,0.0,0.0,0.0,3.0986,0.0,0.0,0.0,0.0,0.0,0.0,0.0,0.0,0.0,0.0,0.0,0.0,0.0,0.0,3.2319,3.2463,3.2829,3.3535,3.3992,3.4293,3.4384,3.4397,3.4397,3.4397,3.4397,3.4397,3.4397,3.4397,3.4397,3.4397,3.4397,3.4397,3.4397,3.4397,3.4397,3.4397,3.4397,3.4397,3.4397,3.4397,3.4397,3.4397,3.4397,3.4397,3.4397,3.4397,3.3911,3.325,3.325,3.2766,3.1972,3.1045,3.0609,3.0474,3.0474,3.1134,3.1884,3.1884,3.2016,3.2103,3.1928,3.1311,3.0866,3.1444,3.0429,2.9555,3.0306,2.9863,2.9402,2.9579,3.0274,3.0781,3.091,3.1302,3.1618,3.1618,3.1618,3.1618,3.1618,3.1618,3.1618,3.1618,3.1618,3.1618,3.1618,3.1772,3.1924,3.1924,3.2901,3.3101,3.2269,3.3051,3.3101,3.2218,3.2218,3.2117,3.1924,3.1924,3.1472,3.0672,3.1533,3.2199,0.0,0.0,0.0,0.0,3.1365,0.0,0.0,0.0,3.0986,3.0986,0.0,0.0,0.0,0.0,0.0,0.0,0.0,0.0,0.0,0.0,0.0,0.0,0.0,0.0,0.0,3.164,3.2359,3.3509,3.3652,3.3901,3.4371,3.4397,3.4397,3.4397,3.4397,3.4397,3.4397,3.4397,3.4397,3.4397,3.4397,3.4397,3.4397,3.4397,3.4397,3.4397,3.4397,3.4397,3.4397,3.4397,3.4397,3.4397,3.4397,3.4397,3.4397,3.4397,3.4356,3.4259,3.4259,3.4176,3.3911,3.2993,3.2103,3.1444,3.1444,3.2103,3.2852,3.2852,3.342,3.3911,3.3079,3.2766,3.2494,3.1753,3.1444,3.1311,3.14,3.1356,3.1069,3.0296,3.1587,3.2429,3.1158,3.1302,3.1618,3.1618,3.1618,3.1618,3.1618,3.1618,3.1618,3.1618,3.1618,3.1618,3.1618,3.246,3.3012,3.3012,3.4042,3.4581,3.4434,3.4532,3.4581,3.4434,3.4434,3.3993,3.3012,3.3012,3.2765,3.2254,3.2351,3.2721,0.0,0.0,0.0,0.0,0.0,0.0,3.1445,0.0,3.0986,0.0,0.0,0.0,0.0,0.0,0.0,0.0,0.0,0.0,0.0,0.0,0.0,0.0,0.0,0.0,0.0,0.0,0.0,0.0,3.3391,3.3822,3.4371,3.4397,3.4397,3.4397,3.4397,3.4397,3.4397,3.4397,3.4397,3.4397,3.4397,3.4397,3.4397,3.4397,3.4397,3.4397,3.4397,3.4397,3.4397,3.4397,3.4397,3.4397,3.4397,3.4397,3.4397,3.4397,3.4397,3.4397,3.4397,3.4397,3.4259,3.3292,3.2722,3.2407,3.2407,3.3079,3.3827,3.3827,3.4092,3.4314,3.3911,3.3433,3.3036,3.3207,3.2364,3.1753,3.2277,3.1972,3.1488,3.1089,3.2194,3.2981,3.2355,3.2377,3.2319,3.1669,3.1618,3.1618,3.1618,3.1378,3.1203,3.1203,3.144,3.1719,3.2099,3.3036,3.3761,3.4117,3.4532,3.5066,3.5642,3.5114,3.4775,3.4775,3.4775,3.4581,3.4141,3.4141,3.4315,3.4666,3.4089,3.3934,3.3809,0.0,0.0,0.0,0.0,0.0,0.0,0.0,0.0,0.0,0.0,0.0,0.0,0.0,0.0,0.0,0.0,0.0,0.0,0.0,0.0,0.0,0.0,0.0,0.0,0.0,0.0,3.2411,3.3012,3.3587,3.4149,3.4319,3.4397,3.4397,3.4397,3.4397,3.4397,3.4397,3.4397,3.4397,3.4397,3.4397,3.4397,3.4397,3.4397,3.4397,3.4397,3.4397,3.4397,3.4397,3.4397,3.4397,3.4397,3.4397,3.4397,3.4397,3.4397,3.4397,3.4397,3.4397,3.4314,3.3602,3.3377,3.3377,3.3377,3.3869,3.4397,3.4397,3.4397,3.4397,3.4397,3.3911,3.356,3.4217,3.3335,3.255,3.325,3.2852,3.2326,3.2267,3.3195,3.3882,3.3473,3.3538,3.325,3.2218,3.2015,3.1869,3.1444,3.1116,3.0843,3.0723,3.1252,3.1798,3.2202,3.3541,3.4709,3.557,3.5655,3.5988,3.6722,3.6036,3.5655,3.5655,3.5655,3.5511,3.521,3.521,3.5451,3.5893,3.5403,3.5355,0.0,0.0,0.0,3.3561,0.0,0.0,0.0,0.0,3.1771,0.0,0.0,0.0,0.0,0.0,0.0,0.0,0.0,0.0,0.0,0.0,0.0,0.0,0.0,0.0,0.0,0.0,3.1248,3.1784,3.2398,3.2986,3.3587,3.411,3.4397,3.4397,3.4397,3.4397,3.4397,3.4397,3.4397,3.4397,3.4397,3.4397,3.4397,3.4397,3.4397,3.4397,3.4397,3.4397,3.4397,3.4397,3.4397,3.4397,3.4397,3.4397,3.4397,3.4397,3.4397,3.4397,3.4397,3.4397,3.4397,3.4356,3.4356,3.4356,3.4356,3.4397,3.4397,3.4397,3.4397,3.4397,3.4397,3.4397,3.4356,3.4397,3.4356,3.4314,3.4356,3.4356,3.4205,3.3896,3.5038,3.559,3.4202,3.439,3.4385,3.33,3.3151,3.263,3.1124,3.0898,3.0723,3.0286,3.106,3.1613,3.1624,3.3938,3.6041,3.7723,3.7808,3.7808,3.7854,3.7808,3.7808,3.7808,3.7808,3.7307,3.6273,3.6273,3.5798,3.4872,3.5786,3.6815,0.0,0.0,3.4123,3.4123,0.0,0.0,0.0,0.0,0.0,0.0,0.0,0.0,0.0,0.0,0.0,0.0,0.0,0.0,0.0,0.0,0.0,0.0,0.0,0.0,0.0,0.0,0.0,3.1758,3.2372,3.2947,3.3561,3.411,3.4397,3.4397,3.4397,3.4397,3.4397,3.4397,3.4397,3.4397,3.4397,3.4397,3.4397,3.4397,3.4397,3.4397,3.4397,3.4397,3.4397,3.4397,3.4397,3.4397,3.4397,3.4397,3.4397,3.4397,3.4397,3.4397,3.4397,3.4397,3.4397,3.4397,3.4397,3.4397,3.4397,3.4397,3.4397,3.4397,3.4397,3.4397,3.4397,3.4397,3.4397,3.4397,3.4711,3.4999,3.4999,3.5273,3.55,3.5378,3.6072,3.6527,3.6062,3.648,3.6238,3.4532,3.3406,3.254,3.2026,3.0781,3.0134,3.0613,3.1251,3.1991,3.3043,3.5178,3.6871,3.7861,3.79,3.79,3.79,3.79,3.79,3.79,3.79,3.7703,3.7366,3.7366,3.7168,3.6875,3.7214,3.7168,3.4881,3.4724,0.0,3.445,3.4136,0.0,3.3875,0.0,0.0,0.0,0.0,0.0,0.0,0.0,0.0,0.0,0.0,0.0,0.0,0.0,0.0,0.0,0.0,0.0,0.0,0.0,3.1143,3.1509,3.2071,3.2646,0.0,0.0,3.4201,3.4384,3.4397,3.4397,3.4397,3.4397,3.4397,3.4397,3.4397,3.4397,3.4397,3.4397,3.4397,3.4397,3.4397,3.4397,3.4397,3.4397,3.4397,3.4397,3.4397,3.4397,3.4397,3.4397,3.4397,3.4397,3.4397,3.4397,3.4397,3.4397,3.4397,3.4397,3.4397,3.4397,3.4397,3.4397,3.4397,3.4397,3.4397,3.4397,3.445,3.4672,3.5012,3.5351,3.5534,3.5861,3.6162,3.6384,3.6737,3.7077,3.7286,3.7639,3.732,3.5595,3.4306,3.3219,3.2347,3.1219,3.0556,3.064,3.1514,3.2803,3.4514,3.5888,3.7037,3.7848,3.79,3.79,3.79,3.79,3.79,3.79,3.79,3.79,3.79,3.79,3.79,3.79,3.79,3.7505]}]]